Darstellungsparameter: Aktuell verwendete Einstellungen:
Skalierung der Graphiken ... ?
xyx+y,   Skalierungsfaktor:      Skalierung: Modus: x, Faktor: 1
Darstellungszeitraum ... ?
Vom - - bis: - -   Zeitraum: 18.07.2019 - 16.08.2019
Min/Max/Avg-Anzeige ... ?
Zeige MMA aktuell
Zeige MMA Monat
Zeige MMA alles
Zeige --A aktuell
Zeige --A Monat
Zeige --A alles
Keine MMA-Anzeige
MMA:
Average (ber die Originaldaten)
MMA-Basis: 18.07.2019 - 16.08.2019
Quicknavigation für Darstellung... ?
Tage:      1T, 2T, 3T, 5T -1T -2T -3T -5T +1T +2T +3T +5T
Wochen: 1W, 2W, 3W -1W -2W -3W +1W +2W +3W
Monate: 1M, 3M, 6M -1M -3M -6M +1M +3M +6M
Jahre:    1J, 3J, 5J, 10J -1J -3J -5J -10J +1J +3J +5J +10J
Nutze für die Darstellung ... ?
Originaldaten oder Mittelwerte auf ...
Stundenbasis Tagesbasis Wochenbasis
Monatsbasis Jahresbasis      Datenbasis: Original-Daten
Darstellen als:
Statistik (Auto) Statistik J:M      Darstellung:
Zur Graphik,    zurück zur Übersicht aller Sensoren.
 
Tabellarische Datenbersicht: ?
 
Sensor: Nr:Datum:Temp:Abs-Feuchte:Windchill:Wind:
Aussen-T/F 1 18-07-2019 00:00:00 15.6 C 11.3 g/m*3 15.6 C 0 km/h
2 18-07-2019 00:05:00 15.6 C 11.3 g/m*3 15.6 C 0 km/h
3 18-07-2019 00:10:00 15.5 C 11.37 g/m*3 15.5 C 0 km/h
4 18-07-2019 00:15:00 15.4 C 11.3 g/m*3 15.4 C 0 km/h
5 18-07-2019 00:20:00 15.4 C 11.3 g/m*3 15.4 C 0 km/h
6 18-07-2019 00:25:00 15.3 C 11.23 g/m*3 15.3 C 0 km/h
7 18-07-2019 00:30:00 15.3 C 11.23 g/m*3 15.3 C 0 km/h
8 18-07-2019 00:35:00 15.2 C 11.16 g/m*3 15.2 C 0 km/h
9 18-07-2019 00:40:00 15.2 C 11.16 g/m*3 15.2 C 0 km/h
10 18-07-2019 00:45:00 15.1 C 11.22 g/m*3 15.1 C 0 km/h
11 18-07-2019 00:50:00 15 C 11.16 g/m*3 15 C 0 km/h
12 18-07-2019 00:55:00 14.9 C 11.09 g/m*3 14.9 C 0 km/h
13 18-07-2019 01:00:00 14.8 C 11.02 g/m*3 14.8 C 0 km/h
14 18-07-2019 01:05:00 14.7 C 11.08 g/m*3 14.7 C 0 km/h
15 18-07-2019 01:10:00 14.7 C 11.08 g/m*3 14.7 C 0 km/h
16 18-07-2019 01:15:00 14.6 C 11.01 g/m*3 14.6 C 0 km/h
17 18-07-2019 01:20:00 14.4 C 10.88 g/m*3 14.4 C 0 km/h
18 18-07-2019 01:25:00 14.4 C 10.88 g/m*3 14.4 C 0 km/h
19 18-07-2019 01:30:00 14.3 C 10.81 g/m*3 14.3 C 0 km/h
20 18-07-2019 01:35:00 14.1 C 10.8 g/m*3 14.1 C 0 km/h
21 18-07-2019 01:40:00 14 C 10.74 g/m*3 14 C 0 km/h
22 18-07-2019 01:45:00 13.9 C 10.67 g/m*3 13.9 C 0 km/h
23 18-07-2019 01:50:00 13.8 C 10.72 g/m*3 13.8 C 0 km/h
24 18-07-2019 01:55:00 13.8 C 10.72 g/m*3 13.8 C 0 km/h
25 18-07-2019 02:00:00 13.8 C 10.72 g/m*3 13.8 C 0 km/h
Sensor: Nr:Datum:Temp:Abs-Feuchte:Windchill:Wind:
Aussen-T/F 26 18-07-2019 02:05:00 13.8 C 10.84 g/m*3 13.8 C 0 km/h
27 18-07-2019 02:10:00 13.7 C 10.78 g/m*3 13.7 C 0 km/h
28 18-07-2019 02:15:00 13.7 C 10.78 g/m*3 13.7 C 0 km/h
29 18-07-2019 02:20:00 13.7 C 10.78 g/m*3 13.7 C 0 km/h
30 18-07-2019 02:25:00 13.7 C 10.78 g/m*3 13.7 C 0 km/h
31 18-07-2019 02:30:00 13.6 C 10.71 g/m*3 13.6 C 0 km/h
32 18-07-2019 02:35:00 13.6 C 10.71 g/m*3 13.6 C 0 km/h
33 18-07-2019 02:40:00 13.7 C 10.89 g/m*3 13.7 C 0 km/h
34 18-07-2019 02:45:00 13.7 C 10.89 g/m*3 13.7 C 0 km/h
35 18-07-2019 02:50:00 13.7 C 10.89 g/m*3 13.7 C 0 km/h
36 18-07-2019 02:55:00 13.6 C 10.83 g/m*3 13.6 C 0 km/h
37 18-07-2019 03:00:00 13.6 C 10.83 g/m*3 13.6 C 0 km/h
38 18-07-2019 03:05:00 13.6 C 10.83 g/m*3 13.6 C 0 km/h
39 18-07-2019 03:10:00 13.5 C 10.76 g/m*3 13.5 C 0 km/h
40 18-07-2019 03:15:00 13.5 C 10.76 g/m*3 13.5 C 0 km/h
41 18-07-2019 03:20:00 13.5 C 10.76 g/m*3 13.5 C 0 km/h
42 18-07-2019 03:25:00 13.4 C 10.69 g/m*3 13.4 C 0 km/h
43 18-07-2019 03:30:00 13.4 C 10.69 g/m*3 13.4 C 0 km/h
44 18-07-2019 03:35:00 13.4 C 10.69 g/m*3 13.4 C 0 km/h
45 18-07-2019 03:40:00 13.4 C 10.69 g/m*3 13.4 C 0 km/h
46 18-07-2019 03:45:00 13.4 C 10.81 g/m*3 13.4 C 0 km/h
47 18-07-2019 03:50:00 13.4 C 10.81 g/m*3 13.4 C 0 km/h
48 18-07-2019 03:55:00 13.4 C 10.81 g/m*3 13.4 C 0 km/h
49 18-07-2019 04:00:00 13.4 C 10.81 g/m*3 13.4 C 0 km/h
50 18-07-2019 04:05:00 13.4 C 10.81 g/m*3 13.4 C 0 km/h
Sensor: Nr:Datum:Temp:Abs-Feuchte:Windchill:Wind:
Aussen-T/F 51 18-07-2019 04:10:00 13.4 C 10.81 g/m*3 13.4 C 0 km/h
52 18-07-2019 04:15:00 13.4 C 10.81 g/m*3 13.4 C 0 km/h
53 18-07-2019 04:20:00 13.3 C 10.74 g/m*3 13.3 C 0 km/h
54 18-07-2019 04:25:00 13.3 C 10.74 g/m*3 13.3 C 0 km/h
55 18-07-2019 04:30:00 13.3 C 10.74 g/m*3 13.3 C 0 km/h
56 18-07-2019 04:35:00 13.2 C 10.68 g/m*3 13.2 C 0 km/h
57 18-07-2019 04:40:00 13.2 C 10.68 g/m*3 13.2 C 0 km/h
58 18-07-2019 04:45:00 13.1 C 10.61 g/m*3 13.1 C 0 km/h
59 18-07-2019 04:50:00 13 C 10.43 g/m*3 13 C 0 km/h
60 18-07-2019 04:55:00 12.9 C 10.48 g/m*3 12.9 C 0 km/h
61 18-07-2019 05:00:00 12.9 C 10.48 g/m*3 12.9 C 0 km/h
62 18-07-2019 05:05:00 12.8 C 10.42 g/m*3 12.8 C 0 km/h
63 18-07-2019 05:10:00 12.8 C 10.42 g/m*3 12.8 C 0 km/h
64 18-07-2019 05:15:00 12.8 C 10.42 g/m*3 12.8 C 0 km/h
65 18-07-2019 05:20:00 12.8 C 10.42 g/m*3 12.8 C 0 km/h
66 18-07-2019 05:25:00 12.7 C 10.35 g/m*3 12.7 C 0 km/h
67 18-07-2019 05:30:00 12.7 C 10.35 g/m*3 12.7 C 0 km/h
68 18-07-2019 05:35:00 12.6 C 10.29 g/m*3 12.6 C 0 km/h
69 18-07-2019 05:40:00 12.6 C 10.29 g/m*3 12.6 C 0 km/h
70 18-07-2019 05:45:00 12.5 C 10.22 g/m*3 12.5 C 0 km/h
71 18-07-2019 05:50:00 12.5 C 10.22 g/m*3 12.5 C 0 km/h
72 18-07-2019 05:55:00 12.4 C 10.27 g/m*3 12.4 C 0 km/h
73 18-07-2019 06:00:00 12.4 C 10.27 g/m*3 12.4 C 0 km/h
74 18-07-2019 06:05:00 12.4 C 10.27 g/m*3 12.4 C 0 km/h
75 18-07-2019 06:10:00 12.4 C 10.27 g/m*3 12.4 C 0 km/h
Sensor: Nr:Datum:Temp:Abs-Feuchte:Windchill:Wind:
Aussen-T/F 76 18-07-2019 06:15:00 12.3 C 10.21 g/m*3 12.3 C 0 km/h
77 18-07-2019 06:20:00 12.4 C 10.27 g/m*3 12.4 C 0 km/h
78 18-07-2019 06:25:00 12.4 C 10.27 g/m*3 12.4 C 0 km/h
79 18-07-2019 06:30:00 12.4 C 10.27 g/m*3 12.4 C 0 km/h
80 18-07-2019 06:35:00 12.4 C 10.27 g/m*3 12.4 C 0 km/h
81 18-07-2019 06:40:00 12.5 C 10.44 g/m*3 12.5 C 0 km/h
82 18-07-2019 06:45:00 12.6 C 10.51 g/m*3 12.6 C 0 km/h
83 18-07-2019 06:50:00 12.6 C 10.51 g/m*3 12.6 C 0 km/h
84 18-07-2019 06:55:00 12.7 C 10.58 g/m*3 12.7 C 0 km/h
85 18-07-2019 07:00:00 12.8 C 10.64 g/m*3 12.8 C 0 km/h
86 18-07-2019 07:05:00 12.9 C 10.71 g/m*3 12.9 C 0 km/h
87 18-07-2019 07:10:00 13 C 10.77 g/m*3 13 C 0 km/h
88 18-07-2019 07:15:00 13.1 C 10.84 g/m*3 13.1 C 0 km/h
89 18-07-2019 07:20:00 13.2 C 10.91 g/m*3 13.2 C 0 km/h
90 18-07-2019 07:25:00 13.2 C 10.91 g/m*3 13.2 C 0 km/h
91 18-07-2019 07:30:00 13.3 C 10.98 g/m*3 13.3 C 0 km/h
92 18-07-2019 07:35:00 13.4 C 11.04 g/m*3 13.4 C 0 km/h
93 18-07-2019 07:40:00 13.4 C 11.04 g/m*3 13.4 C 0 km/h
94 18-07-2019 07:45:00 13.5 C 11.11 g/m*3 13.5 C 0 km/h
95 18-07-2019 07:50:00 13.6 C 11.18 g/m*3 13.6 C 0 km/h
96 18-07-2019 07:55:00 13.7 C 11.25 g/m*3 13.7 C 0 km/h
97 18-07-2019 08:00:00 13.7 C 11.13 g/m*3 13.7 C 0 km/h
98 18-07-2019 08:05:00 13.8 C 11.2 g/m*3 13.8 C 0 km/h
99 18-07-2019 08:10:00 13.9 C 11.27 g/m*3 13.9 C 0 km/h
100 18-07-2019 08:15:00 14 C 11.34 g/m*3 14 C 0 km/h
Sensor: Nr:Datum:Temp:Abs-Feuchte:Windchill:Wind:
Aussen-T/F 101 18-07-2019 08:20:00 14.1 C 11.41 g/m*3 14.1 C 0 km/h
102 18-07-2019 08:25:00 14.3 C 11.55 g/m*3 14.3 C 0 km/h
103 18-07-2019 08:30:00 14.3 C 11.43 g/m*3 14.3 C 1.6 km/h
104 18-07-2019 08:35:00 14.4 C 11.5 g/m*3 14.4 C 0 km/h
105 18-07-2019 08:40:00 14.6 C 11.51 g/m*3 14.6 C 0 km/h
106 18-07-2019 08:45:00 14.7 C 11.58 g/m*3 14.7 C 0 km/h
107 18-07-2019 08:50:00 14.9 C 11.73 g/m*3 14.9 C 0 km/h
108 18-07-2019 08:55:00 15.1 C 11.87 g/m*3 15.1 C 0 km/h
109 18-07-2019 09:00:00 15.2 C 11.94 g/m*3 15.2 C 0 km/h
110 18-07-2019 09:05:00 15.4 C 12.09 g/m*3 15.4 C 0 km/h
111 18-07-2019 09:10:00 15.6 C 12.1 g/m*3 15.6 C 0 km/h
112 18-07-2019 09:15:00 15.7 C 12.18 g/m*3 15.7 C 0 km/h
113 18-07-2019 09:20:00 15.9 C 12.32 g/m*3 15.9 C 0 km/h
114 18-07-2019 09:25:00 16.1 C 12.2 g/m*3 16.1 C 0 km/h
115 18-07-2019 09:30:00 16.3 C 12.21 g/m*3 16.3 C 0 km/h
116 18-07-2019 09:35:00 16.4 C 12.28 g/m*3 16.4 C 0 km/h
117 18-07-2019 09:40:00 16.7 C 12.51 g/m*3 16.7 C 0 km/h
118 18-07-2019 09:45:00 16.9 C 12.37 g/m*3 16.9 C 0 km/h
119 18-07-2019 09:50:00 17.1 C 12.52 g/m*3 17.1 C 0 km/h
120 18-07-2019 09:55:00 17.3 C 12.82 g/m*3 17.3 C 0 km/h
121 18-07-2019 10:00:00 17.4 C 12.89 g/m*3 17.4 C 0 km/h
122 18-07-2019 10:05:00 17.6 C 12.75 g/m*3 17.6 C 0 km/h
123 18-07-2019 10:10:00 17.7 C 12.82 g/m*3 17.7 C 0 km/h
124 18-07-2019 10:15:00 17.9 C 12.98 g/m*3 17.9 C 0 km/h
125 18-07-2019 10:20:00 18.2 C 13.06 g/m*3 18.2 C 0 km/h
Sensor: Nr:Datum:Temp:Abs-Feuchte:Windchill:Wind:
Aussen-T/F 126 18-07-2019 10:25:00 18.5 C 13.13 g/m*3 18.5 C 0 km/h
127 18-07-2019 10:30:00 18.9 C 12.96 g/m*3 18.9 C 0 km/h
128 18-07-2019 10:35:00 19.3 C 13.27 g/m*3 19.3 C 1.6 km/h
129 18-07-2019 10:40:00 19.7 C 13.25 g/m*3 19.7 C 0 km/h
130 18-07-2019 10:45:00 20 C 13.31 g/m*3 20 C 0 km/h
131 18-07-2019 10:50:00 20.3 C 13.54 g/m*3 20.3 C 0 km/h
132 18-07-2019 10:55:00 20.5 C 13.35 g/m*3 20.5 C 0 km/h
133 18-07-2019 11:00:00 20.7 C 13.68 g/m*3 20.7 C 0 km/h
134 18-07-2019 11:05:00 20.8 C 13.4 g/m*3 20.8 C 0 km/h
135 18-07-2019 11:10:00 20.9 C 13.3 g/m*3 20.9 C 0 km/h
136 18-07-2019 11:15:00 21.1 C 12.53 g/m*3 21.1 C 4.8 km/h
137 18-07-2019 11:20:00 21.3 C 11.93 g/m*3 21.3 C 8.1 km/h
138 18-07-2019 11:25:00 21.7 C 11.83 g/m*3 21.7 C 6.4 km/h
139 18-07-2019 11:30:00 22.1 C 12.1 g/m*3 22.1 C 4.8 km/h
140 18-07-2019 11:35:00 22.3 C 11.85 g/m*3 22.3 C 4.8 km/h
141 18-07-2019 11:40:00 22.6 C 12.05 g/m*3 22.6 C 8.1 km/h
142 18-07-2019 11:45:00 22.9 C 11.85 g/m*3 22.9 C 9.7 km/h
143 18-07-2019 11:50:00 23.1 C 11.99 g/m*3 23.1 C 8.1 km/h
144 18-07-2019 11:55:00 23.2 C 12.06 g/m*3 23.2 C 8.1 km/h
145 18-07-2019 12:00:00 23.3 C 12.34 g/m*3 23.3 C 6.4 km/h
146 18-07-2019 12:05:00 23.4 C 11.99 g/m*3 23.4 C 3.2 km/h
147 18-07-2019 12:10:00 23.6 C 11.7 g/m*3 23.6 C 4.8 km/h
148 18-07-2019 12:15:00 23.8 C 12.05 g/m*3 23.8 C 0 km/h
149 18-07-2019 12:20:00 23.9 C 11.68 g/m*3 23.9 C 6.4 km/h
150 18-07-2019 12:25:00 24.3 C 11.95 g/m*3 24.3 C 8.1 km/h
Sensor: Nr:Datum:Temp:Abs-Feuchte:Windchill:Wind:
Aussen-T/F 151 18-07-2019 12:30:00 24.5 C 12.09 g/m*3 24.5 C 4.8 km/h
152 18-07-2019 12:35:00 24.7 C 12 g/m*3 24.7 C 4.8 km/h
153 18-07-2019 12:40:00 24.7 C 11.77 g/m*3 24.7 C 3.2 km/h
154 18-07-2019 12:45:00 24.7 C 11.77 g/m*3 24.7 C 6.4 km/h
155 18-07-2019 12:50:00 24.7 C 12.22 g/m*3 24.7 C 4.8 km/h
156 18-07-2019 12:55:00 24.6 C 11.25 g/m*3 24.6 C 3.2 km/h
157 18-07-2019 13:00:00 24.8 C 11.61 g/m*3 24.8 C 6.4 km/h
158 18-07-2019 13:05:00 24.9 C 11.45 g/m*3 24.9 C 3.2 km/h
159 18-07-2019 13:10:00 25.1 C 11.57 g/m*3 25.1 C 4.8 km/h
160 18-07-2019 13:15:00 25.2 C 11.64 g/m*3 25.2 C 3.2 km/h
161 18-07-2019 13:20:00 25.4 C 11.77 g/m*3 25.4 C 8.1 km/h
162 18-07-2019 13:25:00 25.6 C 11.67 g/m*3 25.6 C 4.8 km/h
163 18-07-2019 13:30:00 25.8 C 11.8 g/m*3 25.8 C 4.8 km/h
164 18-07-2019 13:35:00 26.1 C 12.24 g/m*3 26.1 C 4.8 km/h
165 18-07-2019 13:40:00 26.3 C 12.38 g/m*3 26.3 C 6.4 km/h
166 18-07-2019 13:45:00 26.3 C 11.64 g/m*3 26.3 C 6.4 km/h
167 18-07-2019 13:50:00 26.4 C 12.2 g/m*3 26.4 C 4.8 km/h
168 18-07-2019 13:55:00 26.7 C 11.14 g/m*3 26.7 C 16.1 km/h
169 18-07-2019 14:00:00 26.8 C 10.69 g/m*3 26.8 C 19.3 km/h
170 18-07-2019 14:05:00 27 C 11.58 g/m*3 27 C 9.7 km/h
171 18-07-2019 14:10:00 27.3 C 10.99 g/m*3 27.3 C 17.7 km/h
172 18-07-2019 14:15:00 27.4 C 10.79 g/m*3 27.4 C 12.9 km/h
173 18-07-2019 14:20:00 27.6 C 10.64 g/m*3 27.6 C 14.5 km/h
174 18-07-2019 14:25:00 27.5 C 10.32 g/m*3 27.5 C 8.1 km/h
175 18-07-2019 14:30:00 27.3 C 10.73 g/m*3 27.3 C 6.4 km/h
Sensor: Nr:Datum:Temp:Abs-Feuchte:Windchill:Wind:
Aussen-T/F 176 18-07-2019 14:35:00 27.2 C 10.93 g/m*3 27.2 C 6.4 km/h
177 18-07-2019 14:40:00 27.2 C 10.41 g/m*3 27.2 C 6.4 km/h
178 18-07-2019 14:45:00 27.2 C 10.93 g/m*3 27.2 C 6.4 km/h
179 18-07-2019 14:50:00 27.1 C 10.09 g/m*3 27.1 C 9.7 km/h
180 18-07-2019 14:55:00 26.9 C 10.24 g/m*3 26.9 C 6.4 km/h
181 18-07-2019 15:00:00 26.8 C 9.93 g/m*3 26.8 C 9.7 km/h
182 18-07-2019 15:05:00 26.8 C 11.45 g/m*3 26.8 C 3.2 km/h
183 18-07-2019 15:10:00 26.6 C 10.57 g/m*3 26.6 C 6.4 km/h
184 18-07-2019 15:15:00 26.3 C 10.89 g/m*3 26.3 C 11.3 km/h
185 18-07-2019 15:20:00 26.1 C 10.77 g/m*3 26.1 C 9.7 km/h
186 18-07-2019 15:25:00 25.9 C 11.62 g/m*3 25.9 C 4.8 km/h
187 18-07-2019 15:30:00 25.8 C 12.04 g/m*3 25.8 C 4.8 km/h
188 18-07-2019 15:35:00 25.7 C 10.29 g/m*3 25.7 C 9.7 km/h
189 18-07-2019 15:40:00 25.7 C 10.53 g/m*3 25.7 C 8.1 km/h
190 18-07-2019 15:45:00 25.6 C 10.24 g/m*3 25.6 C 14.5 km/h
191 18-07-2019 15:50:00 25.6 C 10.71 g/m*3 25.6 C 8.1 km/h
192 18-07-2019 15:55:00 25.6 C 12.38 g/m*3 25.6 C 0 km/h
193 18-07-2019 16:00:00 25.5 C 12.31 g/m*3 25.5 C 0 km/h
194 18-07-2019 16:05:00 25.2 C 11.87 g/m*3 25.2 C 0 km/h
195 18-07-2019 16:10:00 24.9 C 12.13 g/m*3 24.9 C 4.8 km/h
196 18-07-2019 16:15:00 24.7 C 12.45 g/m*3 24.7 C 1.6 km/h
197 18-07-2019 16:20:00 24.5 C 12.76 g/m*3 24.5 C 1.6 km/h
198 18-07-2019 16:25:00 24.6 C 11.48 g/m*3 24.6 C 12.9 km/h
199 18-07-2019 16:30:00 24.6 C 11.25 g/m*3 24.6 C 16.1 km/h
200 18-07-2019 16:35:00 24.6 C 11.25 g/m*3 24.6 C 11.3 km/h
Sensor: Nr:Datum:Temp:Abs-Feuchte:Windchill:Wind:
Aussen-T/F 201 18-07-2019 16:40:00 24.5 C 11.64 g/m*3 24.5 C 9.7 km/h
202 18-07-2019 16:45:00 24.6 C 11.7 g/m*3 24.6 C 6.4 km/h
203 18-07-2019 16:50:00 24.7 C 11.54 g/m*3 24.7 C 9.7 km/h
204 18-07-2019 16:55:00 24.8 C 12.52 g/m*3 24.8 C 6.4 km/h
205 18-07-2019 17:00:00 24.9 C 11.45 g/m*3 24.9 C 11.3 km/h
206 18-07-2019 17:05:00 24.9 C 11.45 g/m*3 24.9 C 4.8 km/h
207 18-07-2019 17:10:00 24.9 C 12.13 g/m*3 24.9 C 4.8 km/h
208 18-07-2019 17:15:00 24.8 C 12.29 g/m*3 24.8 C 0 km/h
209 18-07-2019 17:20:00 24.8 C 12.97 g/m*3 24.8 C 3.2 km/h
210 18-07-2019 17:25:00 24.8 C 12.52 g/m*3 24.8 C 1.6 km/h
211 18-07-2019 17:30:00 24.8 C 12.52 g/m*3 24.8 C 6.4 km/h
212 18-07-2019 17:35:00 24.9 C 13.05 g/m*3 24.9 C 0 km/h
213 18-07-2019 17:40:00 24.9 C 13.28 g/m*3 24.9 C 0 km/h
214 18-07-2019 17:45:00 24.8 C 13.43 g/m*3 24.8 C 0 km/h
215 18-07-2019 17:50:00 24.8 C 14.11 g/m*3 24.8 C 0 km/h
216 18-07-2019 17:55:00 24.8 C 14.34 g/m*3 24.8 C 0 km/h
217 18-07-2019 18:00:00 24.7 C 12.68 g/m*3 24.7 C 1.6 km/h
218 18-07-2019 18:05:00 24.8 C 13.88 g/m*3 24.8 C 0 km/h
219 18-07-2019 18:10:00 24.8 C 13.66 g/m*3 24.8 C 3.2 km/h
220 18-07-2019 18:15:00 24.8 C 11.84 g/m*3 24.8 C 6.4 km/h
221 18-07-2019 18:20:00 24.7 C 12.22 g/m*3 24.7 C 4.8 km/h
222 18-07-2019 18:25:00 24.7 C 11.54 g/m*3 24.7 C 1.6 km/h
223 18-07-2019 18:30:00 24.6 C 14.85 g/m*3 24.6 C 0 km/h
224 18-07-2019 18:35:00 24.2 C 14.52 g/m*3 24.2 C 1.6 km/h
225 18-07-2019 18:40:00 23.5 C 14.8 g/m*3 23.5 C 1.6 km/h
Sensor: Nr:Datum:Temp:Abs-Feuchte:Windchill:Wind:
Aussen-T/F 226 18-07-2019 18:45:00 22.8 C 14.43 g/m*3 22.8 C 1.6 km/h
227 18-07-2019 18:50:00 22.3 C 14.41 g/m*3 22.3 C 0 km/h
228 18-07-2019 18:55:00 21.8 C 14.01 g/m*3 21.8 C 0 km/h
229 18-07-2019 19:00:00 21.6 C 14.03 g/m*3 21.6 C 0 km/h
230 18-07-2019 19:05:00 21.4 C 14.06 g/m*3 21.4 C 0 km/h
231 18-07-2019 19:10:00 21.3 C 14.17 g/m*3 21.3 C 0 km/h
232 18-07-2019 19:15:00 21.2 C 13.9 g/m*3 21.2 C 0 km/h
233 18-07-2019 19:20:00 21.2 C 14.08 g/m*3 21.2 C 0 km/h
234 18-07-2019 19:25:00 21.1 C 13.82 g/m*3 21.1 C 0 km/h
235 18-07-2019 19:30:00 21 C 13.74 g/m*3 21 C 0 km/h
236 18-07-2019 19:35:00 20.9 C 13.66 g/m*3 20.9 C 0 km/h
237 18-07-2019 19:40:00 20.9 C 13.48 g/m*3 20.9 C 0 km/h
238 18-07-2019 19:45:00 20.8 C 13.22 g/m*3 20.8 C 0 km/h
239 18-07-2019 19:50:00 20.7 C 12.96 g/m*3 20.7 C 0 km/h
240 18-07-2019 19:55:00 20.7 C 12.78 g/m*3 20.7 C 0 km/h
241 18-07-2019 20:00:00 20.7 C 12.96 g/m*3 20.7 C 0 km/h
242 18-07-2019 20:05:00 20.7 C 12.78 g/m*3 20.7 C 0 km/h
243 18-07-2019 20:10:00 20.8 C 13.04 g/m*3 20.8 C 0 km/h
244 18-07-2019 20:15:00 20.8 C 12.86 g/m*3 20.8 C 0 km/h
245 18-07-2019 20:20:00 20.9 C 12.75 g/m*3 20.9 C 0 km/h
246 18-07-2019 20:25:00 21 C 12.82 g/m*3 21 C 0 km/h
247 18-07-2019 20:30:00 21 C 12.64 g/m*3 21 C 0 km/h
248 18-07-2019 20:35:00 21 C 12.64 g/m*3 21 C 0 km/h
249 18-07-2019 20:40:00 21 C 12.64 g/m*3 21 C 0 km/h
250 18-07-2019 20:45:00 20.9 C 12.57 g/m*3 20.9 C 1.6 km/h
Sensor: Nr:Datum:Temp:Abs-Feuchte:Windchill:Wind:
Aussen-T/F 251 18-07-2019 20:50:00 20.8 C 12.49 g/m*3 20.8 C 0 km/h
252 18-07-2019 20:55:00 20.8 C 12.49 g/m*3 20.8 C 0 km/h
253 18-07-2019 21:00:00 20.8 C 12.31 g/m*3 20.8 C 0 km/h
254 18-07-2019 21:05:00 20.7 C 12.24 g/m*3 20.7 C 0 km/h
255 18-07-2019 21:10:00 20.6 C 12.35 g/m*3 20.6 C 0 km/h
256 18-07-2019 21:15:00 20.6 C 12.17 g/m*3 20.6 C 0 km/h
257 18-07-2019 21:20:00 20.4 C 12.21 g/m*3 20.4 C 0 km/h
258 18-07-2019 21:25:00 20.4 C 12.21 g/m*3 20.4 C 0 km/h
259 18-07-2019 21:30:00 20.3 C 12.14 g/m*3 20.3 C 0 km/h
260 18-07-2019 21:35:00 20.2 C 12.06 g/m*3 20.2 C 0 km/h
261 18-07-2019 21:40:00 20.2 C 12.24 g/m*3 20.2 C 0 km/h
262 18-07-2019 21:45:00 20.1 C 12.17 g/m*3 20.1 C 0 km/h
263 18-07-2019 21:50:00 20 C 12.1 g/m*3 20 C 0 km/h
264 18-07-2019 21:55:00 19.9 C 12.03 g/m*3 19.9 C 0 km/h
265 18-07-2019 22:00:00 19.8 C 11.96 g/m*3 19.8 C 0 km/h
266 18-07-2019 22:05:00 19.8 C 12.13 g/m*3 19.8 C 0 km/h
267 18-07-2019 22:10:00 19.8 C 12.13 g/m*3 19.8 C 0 km/h
268 18-07-2019 22:15:00 19.7 C 12.06 g/m*3 19.7 C 0 km/h
269 18-07-2019 22:20:00 19.7 C 12.06 g/m*3 19.7 C 0 km/h
270 18-07-2019 22:25:00 19.7 C 12.23 g/m*3 19.7 C 0 km/h
271 18-07-2019 22:30:00 19.7 C 12.4 g/m*3 19.7 C 1.6 km/h
272 18-07-2019 22:35:00 19.7 C 12.4 g/m*3 19.7 C 1.6 km/h
273 18-07-2019 22:40:00 19.6 C 12.15 g/m*3 19.6 C 0 km/h
274 18-07-2019 22:45:00 19.6 C 12.15 g/m*3 19.6 C 0 km/h
275 18-07-2019 22:50:00 19.5 C 12.08 g/m*3 19.5 C 0 km/h
Sensor: Nr:Datum:Temp:Abs-Feuchte:Windchill:Wind:
Aussen-T/F 276 18-07-2019 22:55:00 19.4 C 12.01 g/m*3 19.4 C 0 km/h
277 18-07-2019 23:00:00 19.4 C 12.01 g/m*3 19.4 C 0 km/h
278 18-07-2019 23:05:00 19.4 C 12.01 g/m*3 19.4 C 0 km/h
279 18-07-2019 23:10:00 19.4 C 12.01 g/m*3 19.4 C 0 km/h
280 18-07-2019 23:15:00 19.3 C 11.94 g/m*3 19.3 C 0 km/h
281 18-07-2019 23:20:00 19.3 C 12.11 g/m*3 19.3 C 0 km/h
282 18-07-2019 23:25:00 19.3 C 12.11 g/m*3 19.3 C 0 km/h
283 18-07-2019 23:30:00 19.3 C 12.11 g/m*3 19.3 C 0 km/h
284 18-07-2019 23:35:00 19.3 C 12.11 g/m*3 19.3 C 0 km/h
285 18-07-2019 23:40:00 19.3 C 11.94 g/m*3 19.3 C 0 km/h
286 18-07-2019 23:45:00 19.4 C 12.18 g/m*3 19.4 C 0 km/h
287 18-07-2019 23:50:00 19.4 C 12.18 g/m*3 19.4 C 0 km/h
288 18-07-2019 23:55:00 19.5 C 12.08 g/m*3 19.5 C 0 km/h
289 19-07-2019 00:00:00 19.6 C 12.15 g/m*3 19.6 C 0 km/h
290 19-07-2019 00:05:00 19.6 C 12.32 g/m*3 19.6 C 0 km/h
291 19-07-2019 00:10:00 19.5 C 12.25 g/m*3 19.5 C 0 km/h
292 19-07-2019 00:15:00 19.5 C 12.42 g/m*3 19.5 C 0 km/h
293 19-07-2019 00:20:00 19.4 C 12.35 g/m*3 19.4 C 0 km/h
294 19-07-2019 00:25:00 19.3 C 12.27 g/m*3 19.3 C 0 km/h
295 19-07-2019 00:30:00 19.3 C 12.27 g/m*3 19.3 C 0 km/h
296 19-07-2019 00:35:00 19.2 C 12.2 g/m*3 19.2 C 0 km/h
297 19-07-2019 00:40:00 19.2 C 12.2 g/m*3 19.2 C 0 km/h
298 19-07-2019 00:45:00 19.2 C 12.37 g/m*3 19.2 C 0 km/h
299 19-07-2019 00:50:00 19.1 C 12.46 g/m*3 19.1 C 0 km/h
300 19-07-2019 00:55:00 19.1 C 12.46 g/m*3 19.1 C 0 km/h
Sensor: Nr:Datum:Temp:Abs-Feuchte:Windchill:Wind:
Aussen-T/F 301 19-07-2019 01:00:00 19 C 12.39 g/m*3 19 C 0 km/h
302 19-07-2019 01:05:00 18.9 C 12.47 g/m*3 18.9 C 0 km/h
303 19-07-2019 01:10:00 18.9 C 12.64 g/m*3 18.9 C 0 km/h
304 19-07-2019 01:15:00 18.9 C 12.8 g/m*3 18.9 C 0 km/h
305 19-07-2019 01:20:00 18.8 C 13.05 g/m*3 18.8 C 0 km/h
306 19-07-2019 01:25:00 18.7 C 13.29 g/m*3 18.7 C 0 km/h
307 19-07-2019 01:30:00 18.5 C 13.29 g/m*3 18.5 C 0 km/h
308 19-07-2019 01:35:00 18.3 C 13.13 g/m*3 18.3 C 0 km/h
309 19-07-2019 01:40:00 18.1 C 13.13 g/m*3 18.1 C 0 km/h
310 19-07-2019 01:45:00 17.9 C 13.28 g/m*3 17.9 C 0 km/h
311 19-07-2019 01:50:00 17.8 C 13.2 g/m*3 17.8 C 0 km/h
312 19-07-2019 01:55:00 17.7 C 13.28 g/m*3 17.7 C 0 km/h
313 19-07-2019 02:00:00 17.6 C 13.2 g/m*3 17.6 C 0 km/h
314 19-07-2019 02:05:00 17.4 C 13.19 g/m*3 17.4 C 0 km/h
315 19-07-2019 02:10:00 17.3 C 13.11 g/m*3 17.3 C 0 km/h
316 19-07-2019 02:15:00 17.2 C 13.03 g/m*3 17.2 C 0 km/h
317 19-07-2019 02:20:00 17.1 C 12.96 g/m*3 17.1 C 0 km/h
318 19-07-2019 02:25:00 17 C 13.02 g/m*3 17 C 0 km/h
319 19-07-2019 02:30:00 16.9 C 12.94 g/m*3 16.9 C 0 km/h
320 19-07-2019 02:35:00 16.9 C 13.09 g/m*3 16.9 C 0 km/h
321 19-07-2019 02:40:00 16.9 C 13.09 g/m*3 16.9 C 0 km/h
322 19-07-2019 02:45:00 16.8 C 13.01 g/m*3 16.8 C 0 km/h
323 19-07-2019 02:50:00 16.8 C 13.01 g/m*3 16.8 C 0 km/h
324 19-07-2019 02:55:00 16.8 C 13.01 g/m*3 16.8 C 0 km/h
325 19-07-2019 03:00:00 16.7 C 12.93 g/m*3 16.7 C 0 km/h
Sensor: Nr:Datum:Temp:Abs-Feuchte:Windchill:Wind:
Aussen-T/F 326 19-07-2019 03:05:00 16.7 C 12.93 g/m*3 16.7 C 0 km/h
327 19-07-2019 03:10:00 16.7 C 13.07 g/m*3 16.7 C 0 km/h
328 19-07-2019 03:15:00 16.7 C 13.07 g/m*3 16.7 C 0 km/h
329 19-07-2019 03:20:00 16.6 C 13 g/m*3 16.6 C 0 km/h
330 19-07-2019 03:25:00 16.6 C 13 g/m*3 16.6 C 0 km/h
331 19-07-2019 03:30:00 16.6 C 13.14 g/m*3 16.6 C 0 km/h
332 19-07-2019 03:35:00 16.6 C 13.14 g/m*3 16.6 C 0 km/h
333 19-07-2019 03:40:00 16.6 C 13.14 g/m*3 16.6 C 0 km/h
334 19-07-2019 03:45:00 16.5 C 13.06 g/m*3 16.5 C 0 km/h
335 19-07-2019 03:50:00 16.5 C 13.06 g/m*3 16.5 C 0 km/h
336 19-07-2019 03:55:00 16.5 C 13.06 g/m*3 16.5 C 0 km/h
337 19-07-2019 04:00:00 16.5 C 13.06 g/m*3 16.5 C 0 km/h
338 19-07-2019 04:05:00 16.4 C 12.98 g/m*3 16.4 C 0 km/h
339 19-07-2019 04:10:00 16.4 C 12.98 g/m*3 16.4 C 0 km/h
340 19-07-2019 04:15:00 16.4 C 12.98 g/m*3 16.4 C 0 km/h
341 19-07-2019 04:20:00 16.4 C 12.98 g/m*3 16.4 C 0 km/h
342 19-07-2019 04:25:00 16.4 C 12.98 g/m*3 16.4 C 0 km/h
343 19-07-2019 04:30:00 16.4 C 12.98 g/m*3 16.4 C 0 km/h
344 19-07-2019 04:35:00 16.4 C 13.12 g/m*3 16.4 C 0 km/h
345 19-07-2019 04:40:00 16.3 C 13.04 g/m*3 16.3 C 0 km/h
346 19-07-2019 04:45:00 16.3 C 13.04 g/m*3 16.3 C 0 km/h
347 19-07-2019 04:50:00 16.3 C 13.04 g/m*3 16.3 C 0 km/h
348 19-07-2019 04:55:00 16.3 C 13.04 g/m*3 16.3 C 0 km/h
349 19-07-2019 05:00:00 16.3 C 13.04 g/m*3 16.3 C 0 km/h
350 19-07-2019 05:05:00 16.3 C 13.04 g/m*3 16.3 C 0 km/h
Sensor: Nr:Datum:Temp:Abs-Feuchte:Windchill:Wind:
Aussen-T/F 351 19-07-2019 05:10:00 16.3 C 13.04 g/m*3 16.3 C 0 km/h
352 19-07-2019 05:15:00 16.3 C 13.04 g/m*3 16.3 C 0 km/h
353 19-07-2019 05:20:00 16.3 C 13.04 g/m*3 16.3 C 0 km/h
354 19-07-2019 05:25:00 16.3 C 13.04 g/m*3 16.3 C 0 km/h
355 19-07-2019 05:30:00 16.3 C 13.04 g/m*3 16.3 C 0 km/h
356 19-07-2019 05:35:00 16.3 C 13.04 g/m*3 16.3 C 0 km/h
357 19-07-2019 05:40:00 16.3 C 13.04 g/m*3 16.3 C 0 km/h
358 19-07-2019 05:45:00 16.3 C 13.04 g/m*3 16.3 C 0 km/h
359 19-07-2019 05:50:00 16.3 C 13.18 g/m*3 16.3 C 0 km/h
360 19-07-2019 05:55:00 16.3 C 13.18 g/m*3 16.3 C 0 km/h
361 19-07-2019 06:00:00 16.3 C 13.18 g/m*3 16.3 C 0 km/h
362 19-07-2019 06:05:00 16.3 C 13.18 g/m*3 16.3 C 0 km/h
363 19-07-2019 06:10:00 16.3 C 13.18 g/m*3 16.3 C 0 km/h
364 19-07-2019 06:15:00 16.3 C 13.18 g/m*3 16.3 C 0 km/h
365 19-07-2019 06:20:00 16.3 C 13.18 g/m*3 16.3 C 0 km/h
366 19-07-2019 06:25:00 16.3 C 13.18 g/m*3 16.3 C 0 km/h
367 19-07-2019 06:30:00 16.4 C 13.26 g/m*3 16.4 C 0 km/h
368 19-07-2019 06:35:00 16.4 C 13.26 g/m*3 16.4 C 0 km/h
369 19-07-2019 06:40:00 16.4 C 13.26 g/m*3 16.4 C 0 km/h
370 19-07-2019 06:45:00 16.4 C 13.26 g/m*3 16.4 C 0 km/h
371 19-07-2019 06:50:00 16.4 C 13.26 g/m*3 16.4 C 0 km/h
372 19-07-2019 06:55:00 16.4 C 13.26 g/m*3 16.4 C 0 km/h
373 19-07-2019 07:00:00 16.5 C 13.34 g/m*3 16.5 C 0 km/h
374 19-07-2019 07:05:00 16.6 C 13.42 g/m*3 16.6 C 0 km/h
375 19-07-2019 07:10:00 16.6 C 13.42 g/m*3 16.6 C 0 km/h
Sensor: Nr:Datum:Temp:Abs-Feuchte:Windchill:Wind:
Aussen-T/F 376 19-07-2019 07:15:00 16.6 C 13.42 g/m*3 16.6 C 0 km/h
377 19-07-2019 07:20:00 16.6 C 13.42 g/m*3 16.6 C 0 km/h
378 19-07-2019 07:25:00 16.7 C 13.5 g/m*3 16.7 C 0 km/h
379 19-07-2019 07:30:00 16.7 C 13.5 g/m*3 16.7 C 0 km/h
380 19-07-2019 07:35:00 16.7 C 13.5 g/m*3 16.7 C 0 km/h
381 19-07-2019 07:40:00 16.8 C 13.58 g/m*3 16.8 C 0 km/h
382 19-07-2019 07:45:00 16.8 C 13.73 g/m*3 16.8 C 0 km/h
383 19-07-2019 07:50:00 16.9 C 13.81 g/m*3 16.9 C 0 km/h
384 19-07-2019 07:55:00 16.9 C 13.81 g/m*3 16.9 C 0 km/h
385 19-07-2019 08:00:00 16.9 C 13.81 g/m*3 16.9 C 0 km/h
386 19-07-2019 08:05:00 16.9 C 13.81 g/m*3 16.9 C 0 km/h
387 19-07-2019 08:10:00 17 C 13.89 g/m*3 17 C 0 km/h
388 19-07-2019 08:15:00 17.1 C 13.97 g/m*3 17.1 C 0 km/h
389 19-07-2019 08:20:00 17.1 C 13.97 g/m*3 17.1 C 0 km/h
390 19-07-2019 08:25:00 17.2 C 14.06 g/m*3 17.2 C 0 km/h
391 19-07-2019 08:30:00 17.3 C 14.14 g/m*3 17.3 C 0 km/h
392 19-07-2019 08:35:00 17.4 C 14.23 g/m*3 17.4 C 0 km/h
393 19-07-2019 08:40:00 17.4 C 14.23 g/m*3 17.4 C 0 km/h
394 19-07-2019 08:45:00 17.4 C 14.23 g/m*3 17.4 C 0 km/h
395 19-07-2019 08:50:00 17.5 C 14.31 g/m*3 17.5 C 0 km/h
396 19-07-2019 08:55:00 17.6 C 14.4 g/m*3 17.6 C 4.8 km/h
397 19-07-2019 09:00:00 17.7 C 14.48 g/m*3 17.7 C 0 km/h
398 19-07-2019 09:05:00 17.8 C 14.57 g/m*3 17.8 C 0 km/h
399 19-07-2019 09:10:00 17.8 C 14.57 g/m*3 17.8 C 1.6 km/h
400 19-07-2019 09:15:00 17.8 C 14.42 g/m*3 17.8 C 1.6 km/h
Sensor: Nr:Datum:Temp:Abs-Feuchte:Windchill:Wind:
Aussen-T/F 401 19-07-2019 09:20:00 17.9 C 14.5 g/m*3 17.9 C 0 km/h
402 19-07-2019 09:25:00 17.9 C 14.5 g/m*3 17.9 C 1.6 km/h
403 19-07-2019 09:30:00 18.1 C 14.68 g/m*3 18.1 C 0 km/h
404 19-07-2019 09:35:00 18.1 C 14.68 g/m*3 18.1 C 0 km/h
405 19-07-2019 09:40:00 18.2 C 14.61 g/m*3 18.2 C 3.2 km/h
406 19-07-2019 09:45:00 18.3 C 14.7 g/m*3 18.3 C 6.4 km/h
407 19-07-2019 09:50:00 18.3 C 14.7 g/m*3 18.3 C 8.1 km/h
408 19-07-2019 09:55:00 18.4 C 14.63 g/m*3 18.4 C 8.1 km/h
409 19-07-2019 10:00:00 18.6 C 14.8 g/m*3 18.6 C 3.2 km/h
410 19-07-2019 10:05:00 18.8 C 15.14 g/m*3 18.8 C 1.6 km/h
411 19-07-2019 10:10:00 18.9 C 14.9 g/m*3 18.9 C 6.4 km/h
412 19-07-2019 10:15:00 19 C 14.99 g/m*3 19 C 6.4 km/h
413 19-07-2019 10:20:00 19.1 C 14.92 g/m*3 19.1 C 6.4 km/h
414 19-07-2019 10:25:00 19.1 C 14.75 g/m*3 19.1 C 4.8 km/h
415 19-07-2019 10:30:00 19.3 C 14.93 g/m*3 19.3 C 9.7 km/h
416 19-07-2019 10:35:00 19.5 C 14.94 g/m*3 19.5 C 8.1 km/h
417 19-07-2019 10:40:00 19.6 C 15.02 g/m*3 19.6 C 4.8 km/h
418 19-07-2019 10:45:00 19.7 C 14.94 g/m*3 19.7 C 8.1 km/h
419 19-07-2019 10:50:00 19.8 C 15.2 g/m*3 19.8 C 3.2 km/h
420 19-07-2019 10:55:00 19.9 C 14.95 g/m*3 19.9 C 11.3 km/h
421 19-07-2019 11:00:00 19.9 C 14.95 g/m*3 19.9 C 4.8 km/h
422 19-07-2019 11:05:00 20 C 15.04 g/m*3 20 C 4.8 km/h
423 19-07-2019 11:10:00 20 C 14.69 g/m*3 20 C 9.7 km/h
424 19-07-2019 11:15:00 20.1 C 14.78 g/m*3 20.1 C 8.1 km/h
425 19-07-2019 11:20:00 20.3 C 14.95 g/m*3 20.3 C 8.1 km/h
Sensor: Nr:Datum:Temp:Abs-Feuchte:Windchill:Wind:
Aussen-T/F 426 19-07-2019 11:25:00 20.6 C 15.03 g/m*3 20.6 C 6.4 km/h
427 19-07-2019 11:30:00 20.8 C 15.03 g/m*3 20.8 C 8.1 km/h
428 19-07-2019 11:35:00 20.9 C 15.12 g/m*3 20.9 C 9.7 km/h
429 19-07-2019 11:40:00 20.9 C 14.75 g/m*3 20.9 C 8.1 km/h
430 19-07-2019 11:45:00 20.8 C 14.67 g/m*3 20.8 C 8.1 km/h
431 19-07-2019 11:50:00 20.7 C 14.76 g/m*3 20.7 C 1.6 km/h
432 19-07-2019 11:55:00 20.7 C 14.58 g/m*3 20.7 C 3.2 km/h
433 19-07-2019 12:00:00 20.4 C 14.68 g/m*3 20.4 C 8.1 km/h
434 19-07-2019 12:05:00 20.2 C 14.69 g/m*3 20.2 C 6.4 km/h
435 19-07-2019 12:10:00 20.1 C 14.95 g/m*3 20.1 C 0 km/h
436 19-07-2019 12:15:00 20.1 C 15.3 g/m*3 20.1 C 0 km/h
437 19-07-2019 12:20:00 19.9 C 15.12 g/m*3 19.9 C 1.6 km/h
438 19-07-2019 12:25:00 19.8 C 14.86 g/m*3 19.8 C 1.6 km/h
439 19-07-2019 12:30:00 19.7 C 14.94 g/m*3 19.7 C 1.6 km/h
440 19-07-2019 12:35:00 19.7 C 14.77 g/m*3 19.7 C 3.2 km/h
441 19-07-2019 12:40:00 19.8 C 14.86 g/m*3 19.8 C 3.2 km/h
442 19-07-2019 12:45:00 20.1 C 15.12 g/m*3 20.1 C 1.6 km/h
443 19-07-2019 12:50:00 20.3 C 14.95 g/m*3 20.3 C 4.8 km/h
444 19-07-2019 12:55:00 20.4 C 14.86 g/m*3 20.4 C 3.2 km/h
445 19-07-2019 13:00:00 20.6 C 15.21 g/m*3 20.6 C 0 km/h
446 19-07-2019 13:05:00 20.7 C 15.3 g/m*3 20.7 C 1.6 km/h
447 19-07-2019 13:10:00 20.9 C 15.12 g/m*3 20.9 C 8.1 km/h
448 19-07-2019 13:15:00 21.2 C 14.46 g/m*3 21.2 C 8.1 km/h
449 19-07-2019 13:20:00 21.6 C 14.41 g/m*3 21.6 C 8.1 km/h
450 19-07-2019 13:25:00 22.1 C 14.64 g/m*3 22.1 C 9.7 km/h
Sensor: Nr:Datum:Temp:Abs-Feuchte:Windchill:Wind:
Aussen-T/F 451 19-07-2019 13:30:00 22.5 C 14.78 g/m*3 22.5 C 11.3 km/h
452 19-07-2019 13:35:00 22.8 C 14.22 g/m*3 22.8 C 9.7 km/h
453 19-07-2019 13:40:00 22.9 C 14.1 g/m*3 22.9 C 6.4 km/h
454 19-07-2019 13:45:00 22.9 C 13.69 g/m*3 22.9 C 9.7 km/h
455 19-07-2019 13:50:00 22.8 C 13.61 g/m*3 22.8 C 8.1 km/h
456 19-07-2019 13:55:00 22.7 C 13.94 g/m*3 22.7 C 9.7 km/h
457 19-07-2019 14:00:00 22.7 C 14.34 g/m*3 22.7 C 6.4 km/h
458 19-07-2019 14:05:00 22.7 C 13.94 g/m*3 22.7 C 4.8 km/h
459 19-07-2019 14:10:00 22.7 C 13.94 g/m*3 22.7 C 6.4 km/h
460 19-07-2019 14:15:00 22.8 C 14.43 g/m*3 22.8 C 0 km/h
461 19-07-2019 14:20:00 23 C 12.74 g/m*3 23 C 14.5 km/h
462 19-07-2019 14:25:00 23.4 C 13.04 g/m*3 23.4 C 12.9 km/h
463 19-07-2019 14:30:00 23.8 C 12.05 g/m*3 23.8 C 12.9 km/h
464 19-07-2019 14:35:00 23.9 C 12.11 g/m*3 23.9 C 12.9 km/h
465 19-07-2019 14:40:00 24.2 C 12.54 g/m*3 24.2 C 12.9 km/h
466 19-07-2019 14:45:00 24.4 C 11.35 g/m*3 24.4 C 17.7 km/h
467 19-07-2019 14:50:00 24.3 C 11.95 g/m*3 24.3 C 14.5 km/h
468 19-07-2019 14:55:00 24.4 C 11.79 g/m*3 24.4 C 12.9 km/h
469 19-07-2019 15:00:00 24.5 C 12.09 g/m*3 24.5 C 12.9 km/h
470 19-07-2019 15:05:00 24.6 C 11.48 g/m*3 24.6 C 9.7 km/h
471 19-07-2019 15:10:00 24.6 C 12.15 g/m*3 24.6 C 11.3 km/h
472 19-07-2019 15:15:00 24.8 C 12.29 g/m*3 24.8 C 11.3 km/h
473 19-07-2019 15:20:00 25 C 12.43 g/m*3 25 C 12.9 km/h
474 19-07-2019 15:25:00 24.9 C 12.13 g/m*3 24.9 C 8.1 km/h
475 19-07-2019 15:30:00 24.9 C 11.67 g/m*3 24.9 C 8.1 km/h
Sensor: Nr:Datum:Temp:Abs-Feuchte:Windchill:Wind:
Aussen-T/F 476 19-07-2019 15:35:00 25.1 C 12.04 g/m*3 25.1 C 16.1 km/h
477 19-07-2019 15:40:00 25.2 C 12.57 g/m*3 25.2 C 8.1 km/h
478 19-07-2019 15:45:00 25.1 C 12.27 g/m*3 25.1 C 8.1 km/h
479 19-07-2019 15:50:00 24.9 C 12.13 g/m*3 24.9 C 12.9 km/h
480 19-07-2019 15:55:00 24.9 C 11.67 g/m*3 24.9 C 9.7 km/h
481 19-07-2019 16:00:00 24.9 C 11.9 g/m*3 24.9 C 12.9 km/h
482 19-07-2019 16:05:00 24.9 C 11.45 g/m*3 24.9 C 11.3 km/h
483 19-07-2019 16:10:00 24.9 C 11.67 g/m*3 24.9 C 9.7 km/h
484 19-07-2019 16:15:00 24.9 C 11.45 g/m*3 24.9 C 11.3 km/h
485 19-07-2019 16:20:00 25 C 11.97 g/m*3 25 C 8.1 km/h
486 19-07-2019 16:25:00 25 C 11.74 g/m*3 25 C 9.7 km/h
487 19-07-2019 16:30:00 25.2 C 11.64 g/m*3 25.2 C 8.1 km/h
488 19-07-2019 16:35:00 25.4 C 11.77 g/m*3 25.4 C 11.3 km/h
489 19-07-2019 16:40:00 25.7 C 11.97 g/m*3 25.7 C 11.3 km/h
490 19-07-2019 16:45:00 25.8 C 12.04 g/m*3 25.8 C 9.7 km/h
491 19-07-2019 16:50:00 25.6 C 12.14 g/m*3 25.6 C 8.1 km/h
492 19-07-2019 16:55:00 25.3 C 11.71 g/m*3 25.3 C 11.3 km/h
493 19-07-2019 17:00:00 25.5 C 12.07 g/m*3 25.5 C 4.8 km/h
494 19-07-2019 17:05:00 25.9 C 12.35 g/m*3 25.9 C 6.4 km/h
495 19-07-2019 17:10:00 26 C 12.42 g/m*3 26 C 8.1 km/h
496 19-07-2019 17:15:00 26.1 C 12 g/m*3 26.1 C 8.1 km/h
497 19-07-2019 17:20:00 26.3 C 11.88 g/m*3 26.3 C 9.7 km/h
498 19-07-2019 17:25:00 26.5 C 11.51 g/m*3 26.5 C 14.5 km/h
499 19-07-2019 17:30:00 26.2 C 11.57 g/m*3 26.2 C 11.3 km/h
500 19-07-2019 17:35:00 26 C 11.93 g/m*3 26 C 8.1 km/h
Sensor: Nr:Datum:Temp:Abs-Feuchte:Windchill:Wind:
Aussen-T/F 501 19-07-2019 17:40:00 25.8 C 11.56 g/m*3 25.8 C 6.4 km/h
502 19-07-2019 17:45:00 25.6 C 12.14 g/m*3 25.6 C 9.7 km/h
503 19-07-2019 17:50:00 25.4 C 12.48 g/m*3 25.4 C 8.1 km/h
504 19-07-2019 17:55:00 25.7 C 12.21 g/m*3 25.7 C 3.2 km/h
505 19-07-2019 18:00:00 25.9 C 12.1 g/m*3 25.9 C 6.4 km/h
506 19-07-2019 18:05:00 25.9 C 12.1 g/m*3 25.9 C 9.7 km/h
507 19-07-2019 18:10:00 25.7 C 11.73 g/m*3 25.7 C 6.4 km/h
508 19-07-2019 18:15:00 25.7 C 11.73 g/m*3 25.7 C 6.4 km/h
509 19-07-2019 18:20:00 25.6 C 11.9 g/m*3 25.6 C 6.4 km/h
510 19-07-2019 18:25:00 25.4 C 11.54 g/m*3 25.4 C 6.4 km/h
511 19-07-2019 18:30:00 25.3 C 11.71 g/m*3 25.3 C 9.7 km/h
512 19-07-2019 18:35:00 25.3 C 11.71 g/m*3 25.3 C 9.7 km/h
513 19-07-2019 18:40:00 25.2 C 12.57 g/m*3 25.2 C 6.4 km/h
514 19-07-2019 18:45:00 25.2 C 12.11 g/m*3 25.2 C 3.2 km/h
515 19-07-2019 18:50:00 25.1 C 13.43 g/m*3 25.1 C 1.6 km/h
516 19-07-2019 18:55:00 24.9 C 11.9 g/m*3 24.9 C 4.8 km/h
517 19-07-2019 19:00:00 24.8 C 12.06 g/m*3 24.8 C 1.6 km/h
518 19-07-2019 19:05:00 24.9 C 13.51 g/m*3 24.9 C 1.6 km/h
519 19-07-2019 19:10:00 24.9 C 13.73 g/m*3 24.9 C 3.2 km/h
520 19-07-2019 19:15:00 25.1 C 12.04 g/m*3 25.1 C 6.4 km/h
521 19-07-2019 19:20:00 25.2 C 14.67 g/m*3 25.2 C 0 km/h
522 19-07-2019 19:25:00 25.1 C 13.89 g/m*3 25.1 C 1.6 km/h
523 19-07-2019 19:30:00 24.9 C 14.42 g/m*3 24.9 C 3.2 km/h
524 19-07-2019 19:35:00 24.8 C 14.34 g/m*3 24.8 C 0 km/h
525 19-07-2019 19:40:00 24.7 C 14.03 g/m*3 24.7 C 0 km/h
Sensor: Nr:Datum:Temp:Abs-Feuchte:Windchill:Wind:
Aussen-T/F 526 19-07-2019 19:45:00 24.5 C 13.43 g/m*3 24.5 C 1.6 km/h
527 19-07-2019 19:50:00 24.3 C 13.72 g/m*3 24.3 C 0 km/h
528 19-07-2019 19:55:00 24.2 C 14.3 g/m*3 24.2 C 0 km/h
529 19-07-2019 20:00:00 24.1 C 14 g/m*3 24.1 C 0 km/h
530 19-07-2019 20:05:00 23.9 C 13.85 g/m*3 23.9 C 0 km/h
531 19-07-2019 20:10:00 23.8 C 13.55 g/m*3 23.8 C 1.6 km/h
532 19-07-2019 20:15:00 23.7 C 13.48 g/m*3 23.7 C 6.4 km/h
533 19-07-2019 20:20:00 23.7 C 13.9 g/m*3 23.7 C 0 km/h
534 19-07-2019 20:25:00 23.5 C 13.32 g/m*3 23.5 C 1.6 km/h
535 19-07-2019 20:30:00 23.3 C 13.17 g/m*3 23.3 C 0 km/h
536 19-07-2019 20:35:00 23.1 C 13.02 g/m*3 23.1 C 0 km/h
537 19-07-2019 20:40:00 22.8 C 13 g/m*3 22.8 C 0 km/h
538 19-07-2019 20:45:00 22.6 C 13.26 g/m*3 22.6 C 0 km/h
539 19-07-2019 20:50:00 22.4 C 13.11 g/m*3 22.4 C 0 km/h
540 19-07-2019 20:55:00 22.2 C 13.15 g/m*3 22.2 C 0 km/h
541 19-07-2019 21:00:00 22 C 13 g/m*3 22 C 0 km/h
542 19-07-2019 21:05:00 21.8 C 13.05 g/m*3 21.8 C 0 km/h
543 19-07-2019 21:10:00 21.6 C 13.09 g/m*3 21.6 C 0 km/h
544 19-07-2019 21:15:00 21.3 C 13.05 g/m*3 21.3 C 0 km/h
545 19-07-2019 21:20:00 21.1 C 12.9 g/m*3 21.1 C 0 km/h
546 19-07-2019 21:25:00 20.9 C 13.11 g/m*3 20.9 C 0 km/h
547 19-07-2019 21:30:00 20.8 C 13.04 g/m*3 20.8 C 0 km/h
548 19-07-2019 21:35:00 20.7 C 13.14 g/m*3 20.7 C 0 km/h
549 19-07-2019 21:40:00 20.4 C 12.91 g/m*3 20.4 C 0 km/h
550 19-07-2019 21:45:00 20.3 C 13.01 g/m*3 20.3 C 0 km/h
Sensor: Nr:Datum:Temp:Abs-Feuchte:Windchill:Wind:
Aussen-T/F 551 19-07-2019 21:50:00 20.1 C 13.04 g/m*3 20.1 C 0 km/h
552 19-07-2019 21:55:00 19.9 C 13.06 g/m*3 19.9 C 0 km/h
553 19-07-2019 22:00:00 19.8 C 12.98 g/m*3 19.8 C 0 km/h
554 19-07-2019 22:05:00 19.6 C 13 g/m*3 19.6 C 0 km/h
555 19-07-2019 22:10:00 19.5 C 13.09 g/m*3 19.5 C 0 km/h
556 19-07-2019 22:15:00 19.3 C 12.94 g/m*3 19.3 C 0 km/h
557 19-07-2019 22:20:00 19.2 C 13.03 g/m*3 19.2 C 0 km/h
558 19-07-2019 22:25:00 19.2 C 13.03 g/m*3 19.2 C 0 km/h
559 19-07-2019 22:30:00 19.1 C 13.11 g/m*3 19.1 C 0 km/h
560 19-07-2019 22:35:00 19.1 C 13.11 g/m*3 19.1 C 0 km/h
561 19-07-2019 22:40:00 19 C 13.04 g/m*3 19 C 0 km/h
562 19-07-2019 22:45:00 18.9 C 12.96 g/m*3 18.9 C 0 km/h
563 19-07-2019 22:50:00 18.9 C 13.12 g/m*3 18.9 C 0 km/h
564 19-07-2019 22:55:00 18.9 C 13.12 g/m*3 18.9 C 0 km/h
565 19-07-2019 23:00:00 18.8 C 13.05 g/m*3 18.8 C 0 km/h
566 19-07-2019 23:05:00 18.8 C 13.21 g/m*3 18.8 C 0 km/h
567 19-07-2019 23:10:00 18.8 C 13.21 g/m*3 18.8 C 0 km/h
568 19-07-2019 23:15:00 18.7 C 13.13 g/m*3 18.7 C 0 km/h
569 19-07-2019 23:20:00 18.7 C 13.13 g/m*3 18.7 C 0 km/h
570 19-07-2019 23:25:00 18.6 C 13.21 g/m*3 18.6 C 0 km/h
571 19-07-2019 23:30:00 18.5 C 13.13 g/m*3 18.5 C 0 km/h
572 19-07-2019 23:35:00 18.4 C 13.05 g/m*3 18.4 C 0 km/h
573 19-07-2019 23:40:00 18.4 C 13.21 g/m*3 18.4 C 0 km/h
574 19-07-2019 23:45:00 18.3 C 13.13 g/m*3 18.3 C 0 km/h
575 19-07-2019 23:50:00 18.2 C 13.06 g/m*3 18.2 C 0 km/h
Sensor: Nr:Datum:Temp:Abs-Feuchte:Windchill:Wind:
Aussen-T/F 576 19-07-2019 23:55:00 18.1 C 13.13 g/m*3 18.1 C 0 km/h
577 20-07-2019 00:00:00 17.9 C 12.98 g/m*3 17.9 C 0 km/h
578 20-07-2019 00:05:00 17.8 C 13.05 g/m*3 17.8 C 0 km/h
579 20-07-2019 00:10:00 17.7 C 12.82 g/m*3 17.7 C 0 km/h
580 20-07-2019 00:15:00 17.6 C 12.75 g/m*3 17.6 C 0 km/h
581 20-07-2019 00:20:00 17.5 C 12.82 g/m*3 17.5 C 0 km/h
582 20-07-2019 00:25:00 17.4 C 12.75 g/m*3 17.4 C 0 km/h
583 20-07-2019 00:30:00 17.3 C 12.67 g/m*3 17.3 C 0 km/h
584 20-07-2019 00:35:00 17.2 C 12.74 g/m*3 17.2 C 0 km/h
585 20-07-2019 00:40:00 17.2 C 12.74 g/m*3 17.2 C 0 km/h
586 20-07-2019 00:45:00 17.1 C 12.66 g/m*3 17.1 C 0 km/h
587 20-07-2019 00:50:00 17.1 C 12.66 g/m*3 17.1 C 0 km/h
588 20-07-2019 00:55:00 16.9 C 12.51 g/m*3 16.9 C 0 km/h
589 20-07-2019 01:00:00 17 C 12.59 g/m*3 17 C 0 km/h
590 20-07-2019 01:05:00 16.9 C 12.51 g/m*3 16.9 C 0 km/h
591 20-07-2019 01:10:00 16.9 C 12.51 g/m*3 16.9 C 0 km/h
592 20-07-2019 01:15:00 16.8 C 12.58 g/m*3 16.8 C 0 km/h
593 20-07-2019 01:20:00 16.7 C 12.51 g/m*3 16.7 C 0 km/h
594 20-07-2019 01:25:00 16.6 C 12.43 g/m*3 16.6 C 0 km/h
595 20-07-2019 01:30:00 16.5 C 12.5 g/m*3 16.5 C 0 km/h
596 20-07-2019 01:35:00 16.4 C 12.42 g/m*3 16.4 C 0 km/h
597 20-07-2019 01:40:00 16.4 C 12.42 g/m*3 16.4 C 0 km/h
598 20-07-2019 01:45:00 16.4 C 12.42 g/m*3 16.4 C 0 km/h
599 20-07-2019 01:50:00 16.3 C 12.35 g/m*3 16.3 C 0 km/h
600 20-07-2019 01:55:00 16.3 C 12.35 g/m*3 16.3 C 0 km/h
Sensor: Nr:Datum:Temp:Abs-Feuchte:Windchill:Wind:
Aussen-T/F 601 20-07-2019 02:00:00 16.2 C 12.41 g/m*3 16.2 C 0 km/h
602 20-07-2019 02:05:00 16.2 C 12.41 g/m*3 16.2 C 0 km/h
603 20-07-2019 02:10:00 16.1 C 12.34 g/m*3 16.1 C 0 km/h
604 20-07-2019 02:15:00 15.9 C 12.19 g/m*3 15.9 C 0 km/h
605 20-07-2019 02:20:00 15.9 C 12.19 g/m*3 15.9 C 0 km/h
606 20-07-2019 02:25:00 15.8 C 12.11 g/m*3 15.8 C 0 km/h
607 20-07-2019 02:30:00 15.7 C 12.04 g/m*3 15.7 C 0 km/h
608 20-07-2019 02:35:00 15.6 C 12.1 g/m*3 15.6 C 0 km/h
609 20-07-2019 02:40:00 15.5 C 12.03 g/m*3 15.5 C 0 km/h
610 20-07-2019 02:45:00 15.4 C 11.96 g/m*3 15.4 C 0 km/h
611 20-07-2019 02:50:00 15.3 C 11.88 g/m*3 15.3 C 0 km/h
612 20-07-2019 02:55:00 15.3 C 12.01 g/m*3 15.3 C 0 km/h
613 20-07-2019 03:00:00 15.3 C 12.01 g/m*3 15.3 C 0 km/h
614 20-07-2019 03:05:00 15.2 C 11.94 g/m*3 15.2 C 0 km/h
615 20-07-2019 03:10:00 15.2 C 11.94 g/m*3 15.2 C 0 km/h
616 20-07-2019 03:15:00 15.2 C 11.94 g/m*3 15.2 C 0 km/h
617 20-07-2019 03:20:00 15.1 C 11.87 g/m*3 15.1 C 0 km/h
618 20-07-2019 03:25:00 15.1 C 11.87 g/m*3 15.1 C 0 km/h
619 20-07-2019 03:30:00 15 C 11.93 g/m*3 15 C 0 km/h
620 20-07-2019 03:35:00 14.9 C 11.73 g/m*3 14.9 C 0 km/h
621 20-07-2019 03:40:00 14.9 C 11.85 g/m*3 14.9 C 0 km/h
622 20-07-2019 03:45:00 14.8 C 11.78 g/m*3 14.8 C 0 km/h
623 20-07-2019 03:50:00 14.8 C 11.78 g/m*3 14.8 C 0 km/h
624 20-07-2019 03:55:00 14.8 C 11.78 g/m*3 14.8 C 0 km/h
625 20-07-2019 04:00:00 14.8 C 11.78 g/m*3 14.8 C 0 km/h
Sensor: Nr:Datum:Temp:Abs-Feuchte:Windchill:Wind:
Aussen-T/F 626 20-07-2019 04:05:00 14.7 C 11.71 g/m*3 14.7 C 0 km/h
627 20-07-2019 04:10:00 14.7 C 11.71 g/m*3 14.7 C 0 km/h
628 20-07-2019 04:15:00 14.7 C 11.71 g/m*3 14.7 C 0 km/h
629 20-07-2019 04:20:00 14.6 C 11.64 g/m*3 14.6 C 0 km/h
630 20-07-2019 04:25:00 14.6 C 11.64 g/m*3 14.6 C 0 km/h
631 20-07-2019 04:30:00 14.6 C 11.64 g/m*3 14.6 C 0 km/h
632 20-07-2019 04:35:00 14.5 C 11.69 g/m*3 14.5 C 0 km/h
633 20-07-2019 04:40:00 14.4 C 11.62 g/m*3 14.4 C 0 km/h
634 20-07-2019 04:45:00 14.4 C 11.62 g/m*3 14.4 C 0 km/h
635 20-07-2019 04:50:00 14.4 C 11.62 g/m*3 14.4 C 0 km/h
636 20-07-2019 04:55:00 14.3 C 11.55 g/m*3 14.3 C 0 km/h
637 20-07-2019 05:00:00 14.3 C 11.55 g/m*3 14.3 C 0 km/h
638 20-07-2019 05:05:00 14.3 C 11.55 g/m*3 14.3 C 0 km/h
639 20-07-2019 05:10:00 14.3 C 11.55 g/m*3 14.3 C 0 km/h
640 20-07-2019 05:15:00 14.2 C 11.48 g/m*3 14.2 C 0 km/h
641 20-07-2019 05:20:00 14.2 C 11.48 g/m*3 14.2 C 0 km/h
642 20-07-2019 05:25:00 14.2 C 11.6 g/m*3 14.2 C 0 km/h
643 20-07-2019 05:30:00 14.2 C 11.48 g/m*3 14.2 C 0 km/h
644 20-07-2019 05:35:00 14.2 C 11.48 g/m*3 14.2 C 0 km/h
645 20-07-2019 05:40:00 14.1 C 11.41 g/m*3 14.1 C 0 km/h
646 20-07-2019 05:45:00 14.1 C 11.41 g/m*3 14.1 C 0 km/h
647 20-07-2019 05:50:00 14.1 C 11.41 g/m*3 14.1 C 0 km/h
648 20-07-2019 05:55:00 14 C 11.34 g/m*3 14 C 0 km/h
649 20-07-2019 06:00:00 14 C 11.34 g/m*3 14 C 0 km/h
650 20-07-2019 06:05:00 13.9 C 11.39 g/m*3 13.9 C 0 km/h
Sensor: Nr:Datum:Temp:Abs-Feuchte:Windchill:Wind:
Aussen-T/F 651 20-07-2019 06:10:00 13.9 C 11.39 g/m*3 13.9 C 0 km/h
652 20-07-2019 06:15:00 13.9 C 11.39 g/m*3 13.9 C 0 km/h
653 20-07-2019 06:20:00 13.9 C 11.39 g/m*3 13.9 C 0 km/h
654 20-07-2019 06:25:00 13.9 C 11.39 g/m*3 13.9 C 0 km/h
655 20-07-2019 06:30:00 13.9 C 11.39 g/m*3 13.9 C 0 km/h
656 20-07-2019 06:35:00 13.9 C 11.39 g/m*3 13.9 C 0 km/h
657 20-07-2019 06:40:00 13.9 C 11.39 g/m*3 13.9 C 0 km/h
658 20-07-2019 06:45:00 14.1 C 11.53 g/m*3 14.1 C 0 km/h
659 20-07-2019 06:50:00 14.1 C 11.53 g/m*3 14.1 C 0 km/h
660 20-07-2019 06:55:00 14.2 C 11.6 g/m*3 14.2 C 0 km/h
661 20-07-2019 07:00:00 14.2 C 11.6 g/m*3 14.2 C 0 km/h
662 20-07-2019 07:05:00 14.2 C 11.6 g/m*3 14.2 C 0 km/h
663 20-07-2019 07:10:00 14.3 C 11.67 g/m*3 14.3 C 0 km/h
664 20-07-2019 07:15:00 14.4 C 11.87 g/m*3 14.4 C 0 km/h
665 20-07-2019 07:20:00 14.4 C 11.87 g/m*3 14.4 C 0 km/h
666 20-07-2019 07:25:00 14.5 C 11.94 g/m*3 14.5 C 0 km/h
667 20-07-2019 07:30:00 14.6 C 12.01 g/m*3 14.6 C 0 km/h
668 20-07-2019 07:35:00 14.7 C 12.09 g/m*3 14.7 C 0 km/h
669 20-07-2019 07:40:00 14.8 C 12.16 g/m*3 14.8 C 0 km/h
670 20-07-2019 07:45:00 14.8 C 12.16 g/m*3 14.8 C 0 km/h
671 20-07-2019 07:50:00 14.9 C 12.24 g/m*3 14.9 C 0 km/h
672 20-07-2019 07:55:00 15 C 12.31 g/m*3 15 C 0 km/h
673 20-07-2019 08:00:00 15.1 C 12.39 g/m*3 15.1 C 0 km/h
674 20-07-2019 08:05:00 15.3 C 12.54 g/m*3 15.3 C 0 km/h
675 20-07-2019 08:10:00 15.4 C 12.61 g/m*3 15.4 C 0 km/h
Sensor: Nr:Datum:Temp:Abs-Feuchte:Windchill:Wind:
Aussen-T/F 676 20-07-2019 08:15:00 15.5 C 12.69 g/m*3 15.5 C 0 km/h
677 20-07-2019 08:20:00 15.7 C 12.84 g/m*3 15.7 C 0 km/h
678 20-07-2019 08:25:00 15.8 C 12.92 g/m*3 15.8 C 0 km/h
679 20-07-2019 08:30:00 15.9 C 13 g/m*3 15.9 C 0 km/h
680 20-07-2019 08:35:00 16.1 C 13.16 g/m*3 16.1 C 0 km/h
681 20-07-2019 08:40:00 16.2 C 13.24 g/m*3 16.2 C 0 km/h
682 20-07-2019 08:45:00 16.3 C 13.32 g/m*3 16.3 C 0 km/h
683 20-07-2019 08:50:00 16.5 C 13.48 g/m*3 16.5 C 0 km/h
684 20-07-2019 08:55:00 16.6 C 13.56 g/m*3 16.6 C 0 km/h
685 20-07-2019 09:00:00 16.8 C 13.73 g/m*3 16.8 C 0 km/h
686 20-07-2019 09:05:00 16.9 C 13.81 g/m*3 16.9 C 0 km/h
687 20-07-2019 09:10:00 17 C 13.89 g/m*3 17 C 0 km/h
688 20-07-2019 09:15:00 17.2 C 14.06 g/m*3 17.2 C 0 km/h
689 20-07-2019 09:20:00 17.3 C 14.14 g/m*3 17.3 C 0 km/h
690 20-07-2019 09:25:00 17.6 C 14.25 g/m*3 17.6 C 0 km/h
691 20-07-2019 09:30:00 17.8 C 14.42 g/m*3 17.8 C 0 km/h
692 20-07-2019 09:35:00 17.9 C 14.5 g/m*3 17.9 C 0 km/h
693 20-07-2019 09:40:00 18.2 C 14.61 g/m*3 18.2 C 0 km/h
694 20-07-2019 09:45:00 18.4 C 14.78 g/m*3 18.4 C 0 km/h
695 20-07-2019 09:50:00 18.7 C 14.89 g/m*3 18.7 C 0 km/h
696 20-07-2019 09:55:00 19 C 14.99 g/m*3 19 C 0 km/h
697 20-07-2019 10:00:00 19.3 C 15.09 g/m*3 19.3 C 0 km/h
698 20-07-2019 10:05:00 19.8 C 15.54 g/m*3 19.8 C 0 km/h
699 20-07-2019 10:10:00 20.2 C 15.56 g/m*3 20.2 C 0 km/h
700 20-07-2019 10:15:00 20.7 C 16.02 g/m*3 20.7 C 0 km/h
Sensor: Nr:Datum:Temp:Abs-Feuchte:Windchill:Wind:
Aussen-T/F 701 20-07-2019 10:20:00 21.1 C 16.21 g/m*3 21.1 C 0 km/h
702 20-07-2019 10:25:00 21.4 C 16.5 g/m*3 21.4 C 0 km/h
703 20-07-2019 10:30:00 21.8 C 16.88 g/m*3 21.8 C 0 km/h
704 20-07-2019 10:35:00 22 C 16.89 g/m*3 22 C 0 km/h
705 20-07-2019 10:40:00 22.3 C 17.18 g/m*3 22.3 C 0 km/h
706 20-07-2019 10:45:00 22.5 C 17.18 g/m*3 22.5 C 0 km/h
707 20-07-2019 10:50:00 22.7 C 16.77 g/m*3 22.7 C 0 km/h
708 20-07-2019 10:55:00 23 C 16.44 g/m*3 23 C 0 km/h
709 20-07-2019 11:00:00 23.3 C 15.68 g/m*3 23.3 C 0 km/h
710 20-07-2019 11:05:00 23.7 C 15.61 g/m*3 23.7 C 0 km/h
711 20-07-2019 11:10:00 24.2 C 16.06 g/m*3 24.2 C 0 km/h
712 20-07-2019 11:15:00 24.7 C 15.62 g/m*3 24.7 C 0 km/h
713 20-07-2019 11:20:00 25.3 C 15.69 g/m*3 25.3 C 4.8 km/h
714 20-07-2019 11:25:00 25.7 C 15.32 g/m*3 25.7 C 0 km/h
715 20-07-2019 11:30:00 26.3 C 15.35 g/m*3 26.3 C 12.9 km/h
716 20-07-2019 11:35:00 26.8 C 14.25 g/m*3 26.8 C 19.3 km/h
717 20-07-2019 11:40:00 27.2 C 14.31 g/m*3 27.2 C 19.3 km/h
718 20-07-2019 11:45:00 27.3 C 14.13 g/m*3 27.3 C 16.1 km/h
719 20-07-2019 11:50:00 27.4 C 14.73 g/m*3 27.4 C 9.7 km/h
720 20-07-2019 11:55:00 27.7 C 14.71 g/m*3 27.7 C 9.7 km/h
721 20-07-2019 12:00:00 27.7 C 13.64 g/m*3 27.7 C 16.1 km/h
722 20-07-2019 12:05:00 27.7 C 13.91 g/m*3 27.7 C 11.3 km/h
723 20-07-2019 12:10:00 27.8 C 14.26 g/m*3 27.8 C 8.1 km/h
724 20-07-2019 12:15:00 27.8 C 13.99 g/m*3 27.8 C 17.7 km/h
725 20-07-2019 12:20:00 27.8 C 13.72 g/m*3 27.8 C 9.7 km/h
Sensor: Nr:Datum:Temp:Abs-Feuchte:Windchill:Wind:
Aussen-T/F 726 20-07-2019 12:25:00 27.8 C 13.72 g/m*3 27.8 C 12.9 km/h
727 20-07-2019 12:30:00 27.8 C 13.72 g/m*3 27.8 C 16.1 km/h
728 20-07-2019 12:35:00 27.8 C 13.45 g/m*3 27.8 C 14.5 km/h
729 20-07-2019 12:40:00 27.7 C 14.18 g/m*3 27.7 C 11.3 km/h
730 20-07-2019 12:45:00 27.8 C 13.72 g/m*3 27.8 C 8.1 km/h
731 20-07-2019 12:50:00 27.8 C 13.99 g/m*3 27.8 C 11.3 km/h
732 20-07-2019 12:55:00 27.8 C 13.45 g/m*3 27.8 C 11.3 km/h
733 20-07-2019 13:00:00 27.9 C 13.79 g/m*3 27.9 C 9.7 km/h
734 20-07-2019 13:05:00 27.9 C 13.79 g/m*3 27.9 C 9.7 km/h
735 20-07-2019 13:10:00 28.1 C 13.95 g/m*3 28.1 C 11.3 km/h
736 20-07-2019 13:15:00 28.1 C 13.67 g/m*3 28.1 C 11.3 km/h
737 20-07-2019 13:20:00 28 C 13.87 g/m*3 28 C 8.1 km/h
738 20-07-2019 13:25:00 27.9 C 14.06 g/m*3 27.9 C 6.4 km/h
739 20-07-2019 13:30:00 28 C 13.87 g/m*3 28 C 8.1 km/h
740 20-07-2019 13:35:00 28.1 C 13.95 g/m*3 28.1 C 4.8 km/h
741 20-07-2019 13:40:00 28.3 C 14.1 g/m*3 28.3 C 6.4 km/h
742 20-07-2019 13:45:00 28.4 C 13.62 g/m*3 28.4 C 8.1 km/h
743 20-07-2019 13:50:00 28.6 C 14.05 g/m*3 28.6 C 6.4 km/h
744 20-07-2019 13:55:00 28.8 C 13.64 g/m*3 28.8 C 12.9 km/h
745 20-07-2019 14:00:00 29.1 C 14.15 g/m*3 29.1 C 9.7 km/h
746 20-07-2019 14:05:00 29.4 C 14.09 g/m*3 29.4 C 12.9 km/h
747 20-07-2019 14:10:00 29.7 C 13.72 g/m*3 29.7 C 17.7 km/h
748 20-07-2019 14:15:00 29.7 C 13.72 g/m*3 29.7 C 17.7 km/h
749 20-07-2019 14:20:00 29.7 C 13.43 g/m*3 29.7 C 12.9 km/h
750 20-07-2019 14:25:00 29.7 C 13.72 g/m*3 29.7 C 14.5 km/h
Sensor: Nr:Datum:Temp:Abs-Feuchte:Windchill:Wind:
Aussen-T/F 751 20-07-2019 14:30:00 29.9 C 13.57 g/m*3 29.9 C 16.1 km/h
752 20-07-2019 14:35:00 30.1 C 13.42 g/m*3 30.1 C 11.3 km/h
753 20-07-2019 14:40:00 30.4 C 13.63 g/m*3 30.4 C 12.9 km/h
754 20-07-2019 14:45:00 30.6 C 14.09 g/m*3 30.6 C 16.1 km/h
755 20-07-2019 14:50:00 31 C 14.4 g/m*3 31 C 14.5 km/h
756 20-07-2019 14:55:00 31.2 C 13.59 g/m*3 31.2 C 11.3 km/h
757 20-07-2019 15:00:00 31.2 C 13.91 g/m*3 31.2 C 12.9 km/h
758 20-07-2019 15:05:00 31.1 C 13.84 g/m*3 31.1 C 14.5 km/h
759 20-07-2019 15:10:00 31.1 C 14.16 g/m*3 31.1 C 16.1 km/h
760 20-07-2019 15:15:00 31.2 C 14.23 g/m*3 31.2 C 12.9 km/h
761 20-07-2019 15:20:00 31.1 C 13.51 g/m*3 31.1 C 12.9 km/h
762 20-07-2019 15:25:00 31 C 14.08 g/m*3 31 C 6.4 km/h
763 20-07-2019 15:30:00 30.9 C 13.37 g/m*3 30.9 C 11.3 km/h
764 20-07-2019 15:35:00 30.8 C 13.93 g/m*3 30.8 C 11.3 km/h
765 20-07-2019 15:40:00 30.6 C 13.78 g/m*3 30.6 C 9.7 km/h
766 20-07-2019 15:45:00 30.3 C 13.56 g/m*3 30.3 C 8.1 km/h
767 20-07-2019 15:50:00 30.2 C 14.1 g/m*3 30.2 C 0 km/h
768 20-07-2019 15:55:00 30.1 C 13.72 g/m*3 30.1 C 8.1 km/h
769 20-07-2019 16:00:00 30.2 C 13.79 g/m*3 30.2 C 6.4 km/h
770 20-07-2019 16:05:00 30.4 C 13.94 g/m*3 30.4 C 11.3 km/h
771 20-07-2019 16:10:00 30.4 C 14.87 g/m*3 30.4 C 14.5 km/h
772 20-07-2019 16:15:00 30.3 C 14.18 g/m*3 30.3 C 3.2 km/h
773 20-07-2019 16:20:00 29.6 C 16.62 g/m*3 29.6 C 14.5 km/h
774 20-07-2019 16:25:00 28.6 C 19.67 g/m*3 28.6 C 3.2 km/h
775 20-07-2019 16:30:00 27.9 C 20.55 g/m*3 27.9 C 1.6 km/h
Sensor: Nr:Datum:Temp:Abs-Feuchte:Windchill:Wind:
Aussen-T/F 776 20-07-2019 16:35:00 27.9 C 21.37 g/m*3 27.9 C 1.6 km/h
777 20-07-2019 16:40:00 28.1 C 21.88 g/m*3 28.1 C 1.6 km/h
778 20-07-2019 16:45:00 28.2 C 21.72 g/m*3 28.2 C 0 km/h
779 20-07-2019 16:50:00 28.1 C 20.23 g/m*3 28.1 C 1.6 km/h
780 20-07-2019 16:55:00 27.6 C 19.95 g/m*3 27.6 C 1.6 km/h
781 20-07-2019 17:00:00 27.1 C 19.67 g/m*3 27.1 C 3.2 km/h
782 20-07-2019 17:05:00 26.8 C 19.6 g/m*3 26.8 C 11.3 km/h
783 20-07-2019 17:10:00 27.2 C 19.78 g/m*3 27.2 C 16.1 km/h
784 20-07-2019 17:15:00 27.7 C 16.85 g/m*3 27.7 C 17.7 km/h
785 20-07-2019 17:20:00 28.7 C 15.26 g/m*3 28.7 C 12.9 km/h
786 20-07-2019 17:25:00 29.2 C 18.58 g/m*3 29.2 C 8.1 km/h
787 20-07-2019 17:30:00 28.9 C 14.85 g/m*3 28.9 C 14.5 km/h
788 20-07-2019 17:35:00 28.9 C 15.14 g/m*3 28.9 C 11.3 km/h
789 20-07-2019 17:40:00 29.1 C 17.33 g/m*3 29.1 C 9.7 km/h
790 20-07-2019 17:45:00 29 C 14.65 g/m*3 29 C 14.5 km/h
791 20-07-2019 17:50:00 28.8 C 13.92 g/m*3 28.8 C 17.7 km/h
792 20-07-2019 17:55:00 28.8 C 15.91 g/m*3 28.8 C 16.1 km/h
793 20-07-2019 18:00:00 28.9 C 14.28 g/m*3 28.9 C 11.3 km/h
794 20-07-2019 18:05:00 29 C 14.94 g/m*3 29 C 16.1 km/h
795 20-07-2019 18:10:00 28.9 C 14.28 g/m*3 28.9 C 6.4 km/h
796 20-07-2019 18:15:00 28.8 C 13.92 g/m*3 28.8 C 9.7 km/h
797 20-07-2019 18:20:00 28.8 C 13.92 g/m*3 28.8 C 17.7 km/h
798 20-07-2019 18:25:00 28.8 C 13.64 g/m*3 28.8 C 6.4 km/h
799 20-07-2019 18:30:00 28.9 C 13.71 g/m*3 28.9 C 16.1 km/h
800 20-07-2019 18:35:00 28.9 C 13.71 g/m*3 28.9 C 8.1 km/h
Sensor: Nr:Datum:Temp:Abs-Feuchte:Windchill:Wind:
Aussen-T/F 801 20-07-2019 18:40:00 28.9 C 14.85 g/m*3 28.9 C 11.3 km/h
802 20-07-2019 18:45:00 28.9 C 13.71 g/m*3 28.9 C 8.1 km/h
803 20-07-2019 18:50:00 29.1 C 14.73 g/m*3 29.1 C 6.4 km/h
804 20-07-2019 18:55:00 29.2 C 13.65 g/m*3 29.2 C 9.7 km/h
805 20-07-2019 19:00:00 29.3 C 13.43 g/m*3 29.3 C 17.7 km/h
806 20-07-2019 19:05:00 29.3 C 12.85 g/m*3 29.3 C 14.5 km/h
807 20-07-2019 19:10:00 29.2 C 13.65 g/m*3 29.2 C 14.5 km/h
808 20-07-2019 19:15:00 29.3 C 13.14 g/m*3 29.3 C 9.7 km/h
809 20-07-2019 19:20:00 29.3 C 14.01 g/m*3 29.3 C 8.1 km/h
810 20-07-2019 19:25:00 29.3 C 12.85 g/m*3 29.3 C 25.7 km/h
811 20-07-2019 19:30:00 28.1 C 14.77 g/m*3 28.1 C 25.7 km/h
812 20-07-2019 19:35:00 26.8 C 14.76 g/m*3 26.8 C 11.3 km/h
813 20-07-2019 19:40:00 25.7 C 14.6 g/m*3 25.7 C 12.9 km/h
814 20-07-2019 19:45:00 25 C 14.73 g/m*3 25 C 17.7 km/h
815 20-07-2019 19:50:00 24.6 C 14.85 g/m*3 24.6 C 11.3 km/h
816 20-07-2019 19:55:00 24.2 C 14.52 g/m*3 24.2 C 12.9 km/h
817 20-07-2019 20:00:00 24.1 C 14.66 g/m*3 24.1 C 9.7 km/h
818 20-07-2019 20:05:00 23.9 C 14.71 g/m*3 23.9 C 6.4 km/h
819 20-07-2019 20:10:00 23.8 C 14.63 g/m*3 23.8 C 11.3 km/h
820 20-07-2019 20:15:00 23.7 C 14.54 g/m*3 23.7 C 6.4 km/h
821 20-07-2019 20:20:00 23.6 C 14.68 g/m*3 23.6 C 1.6 km/h
822 20-07-2019 20:25:00 23.4 C 14.51 g/m*3 23.4 C 3.2 km/h
823 20-07-2019 20:30:00 23.3 C 14.43 g/m*3 23.3 C 1.6 km/h
824 20-07-2019 20:35:00 23.2 C 14.34 g/m*3 23.2 C 0 km/h
825 20-07-2019 20:40:00 23.1 C 14.47 g/m*3 23.1 C 0 km/h
Sensor: Nr:Datum:Temp:Abs-Feuchte:Windchill:Wind:
Aussen-T/F 826 20-07-2019 20:45:00 23.1 C 14.88 g/m*3 23.1 C 0 km/h
827 20-07-2019 20:50:00 23 C 15 g/m*3 23 C 0 km/h
828 20-07-2019 20:55:00 22.9 C 14.92 g/m*3 22.9 C 0 km/h
829 20-07-2019 21:00:00 22.7 C 14.95 g/m*3 22.7 C 0 km/h
830 20-07-2019 21:05:00 22.5 C 14.78 g/m*3 22.5 C 0 km/h
831 20-07-2019 21:10:00 22.3 C 14.61 g/m*3 22.3 C 0 km/h
832 20-07-2019 21:15:00 22.1 C 14.64 g/m*3 22.1 C 0 km/h
833 20-07-2019 21:20:00 21.8 C 14.39 g/m*3 21.8 C 0 km/h
834 20-07-2019 21:25:00 21.7 C 14.5 g/m*3 21.7 C 0 km/h
835 20-07-2019 21:30:00 21.6 C 14.41 g/m*3 21.6 C 0 km/h
836 20-07-2019 21:35:00 21.4 C 14.44 g/m*3 21.4 C 0 km/h
837 20-07-2019 21:40:00 21.3 C 14.54 g/m*3 21.3 C 0 km/h
838 20-07-2019 21:45:00 21.2 C 14.46 g/m*3 21.2 C 0 km/h
839 20-07-2019 21:50:00 21.1 C 14.37 g/m*3 21.1 C 0 km/h
840 20-07-2019 21:55:00 21 C 14.29 g/m*3 21 C 0 km/h
841 20-07-2019 22:00:00 20.9 C 14.21 g/m*3 20.9 C 0 km/h
842 20-07-2019 22:05:00 20.9 C 14.21 g/m*3 20.9 C 0 km/h
843 20-07-2019 22:10:00 20.8 C 14.12 g/m*3 20.8 C 0 km/h
844 20-07-2019 22:15:00 20.8 C 14.3 g/m*3 20.8 C 0 km/h
845 20-07-2019 22:20:00 20.7 C 14.4 g/m*3 20.7 C 0 km/h
846 20-07-2019 22:25:00 20.7 C 14.58 g/m*3 20.7 C 0 km/h
847 20-07-2019 22:30:00 20.6 C 14.5 g/m*3 20.6 C 0 km/h
848 20-07-2019 22:35:00 20.5 C 14.41 g/m*3 20.5 C 0 km/h
849 20-07-2019 22:40:00 20.3 C 14.25 g/m*3 20.3 C 0 km/h
850 20-07-2019 22:45:00 20.3 C 14.25 g/m*3 20.3 C 0 km/h
Sensor: Nr:Datum:Temp:Abs-Feuchte:Windchill:Wind:
Aussen-T/F 851 20-07-2019 22:50:00 20.2 C 14.16 g/m*3 20.2 C 0 km/h
852 20-07-2019 22:55:00 20.1 C 14.25 g/m*3 20.1 C 0 km/h
853 20-07-2019 23:00:00 20.1 C 14.25 g/m*3 20.1 C 0 km/h
854 20-07-2019 23:05:00 20.1 C 14.43 g/m*3 20.1 C 0 km/h
855 20-07-2019 23:10:00 19.9 C 14.09 g/m*3 19.9 C 0 km/h
856 20-07-2019 23:15:00 19.9 C 14.26 g/m*3 19.9 C 0 km/h
857 20-07-2019 23:20:00 19.8 C 14.18 g/m*3 19.8 C 0 km/h
858 20-07-2019 23:25:00 19.7 C 14.09 g/m*3 19.7 C 0 km/h
859 20-07-2019 23:30:00 19.7 C 14.09 g/m*3 19.7 C 0 km/h
860 20-07-2019 23:35:00 19.6 C 14.18 g/m*3 19.6 C 0 km/h
861 20-07-2019 23:40:00 19.6 C 14.35 g/m*3 19.6 C 0 km/h
862 20-07-2019 23:45:00 19.6 C 14.35 g/m*3 19.6 C 0 km/h
863 20-07-2019 23:50:00 19.5 C 14.27 g/m*3 19.5 C 0 km/h
864 20-07-2019 23:55:00 19.5 C 14.27 g/m*3 19.5 C 0 km/h
865 21-07-2019 00:00:00 19.4 C 14.18 g/m*3 19.4 C 0 km/h
866 21-07-2019 00:05:00 19.4 C 14.18 g/m*3 19.4 C 0 km/h
867 21-07-2019 00:10:00 19.3 C 14.1 g/m*3 19.3 C 0 km/h
868 21-07-2019 00:15:00 19.2 C 14.02 g/m*3 19.2 C 0 km/h
869 21-07-2019 00:20:00 19.2 C 14.02 g/m*3 19.2 C 0 km/h
870 21-07-2019 00:25:00 19.1 C 14.1 g/m*3 19.1 C 0 km/h
871 21-07-2019 00:30:00 19 C 14.01 g/m*3 19 C 0 km/h
872 21-07-2019 00:35:00 19 C 14.01 g/m*3 19 C 0 km/h
873 21-07-2019 00:40:00 18.9 C 13.93 g/m*3 18.9 C 0 km/h
874 21-07-2019 00:45:00 18.9 C 13.93 g/m*3 18.9 C 0 km/h
875 21-07-2019 00:50:00 18.8 C 13.85 g/m*3 18.8 C 0 km/h
Sensor: Nr:Datum:Temp:Abs-Feuchte:Windchill:Wind:
Aussen-T/F 876 21-07-2019 00:55:00 18.8 C 14.01 g/m*3 18.8 C 0 km/h
877 21-07-2019 01:00:00 18.7 C 13.93 g/m*3 18.7 C 0 km/h
878 21-07-2019 01:05:00 18.7 C 13.93 g/m*3 18.7 C 0 km/h
879 21-07-2019 01:10:00 18.7 C 14.09 g/m*3 18.7 C 0 km/h
880 21-07-2019 01:15:00 18.7 C 13.93 g/m*3 18.7 C 0 km/h
881 21-07-2019 01:20:00 18.7 C 14.09 g/m*3 18.7 C 0 km/h
882 21-07-2019 01:25:00 18.6 C 14.01 g/m*3 18.6 C 0 km/h
883 21-07-2019 01:30:00 18.6 C 14.01 g/m*3 18.6 C 0 km/h
884 21-07-2019 01:35:00 18.4 C 13.84 g/m*3 18.4 C 0 km/h
885 21-07-2019 01:40:00 18.4 C 13.84 g/m*3 18.4 C 0 km/h
886 21-07-2019 01:45:00 18.4 C 13.84 g/m*3 18.4 C 0 km/h
887 21-07-2019 01:50:00 18.5 C 14.08 g/m*3 18.5 C 0 km/h
888 21-07-2019 01:55:00 18.6 C 14.17 g/m*3 18.6 C 0 km/h
889 21-07-2019 02:00:00 18.7 C 14.25 g/m*3 18.7 C 0 km/h
890 21-07-2019 02:05:00 18.8 C 14.17 g/m*3 18.8 C 0 km/h
891 21-07-2019 02:10:00 18.9 C 14.26 g/m*3 18.9 C 0 km/h
892 21-07-2019 02:15:00 19 C 14.34 g/m*3 19 C 0 km/h
893 21-07-2019 02:20:00 19 C 14.18 g/m*3 19 C 0 km/h
894 21-07-2019 02:25:00 19 C 14.18 g/m*3 19 C 0 km/h
895 21-07-2019 02:30:00 18.9 C 14.09 g/m*3 18.9 C 0 km/h
896 21-07-2019 02:35:00 18.9 C 14.09 g/m*3 18.9 C 0 km/h
897 21-07-2019 02:40:00 18.9 C 14.26 g/m*3 18.9 C 0 km/h
898 21-07-2019 02:45:00 18.8 C 14.17 g/m*3 18.8 C 0 km/h
899 21-07-2019 02:50:00 18.8 C 14.17 g/m*3 18.8 C 0 km/h
900 21-07-2019 02:55:00 18.8 C 14.17 g/m*3 18.8 C 0 km/h
Sensor: Nr:Datum:Temp:Abs-Feuchte:Windchill:Wind:
Aussen-T/F 901 21-07-2019 03:00:00 18.8 C 14.17 g/m*3 18.8 C 0 km/h
902 21-07-2019 03:05:00 18.7 C 14.09 g/m*3 18.7 C 0 km/h
903 21-07-2019 03:10:00 18.7 C 14.09 g/m*3 18.7 C 0 km/h
904 21-07-2019 03:15:00 18.7 C 14.25 g/m*3 18.7 C 0 km/h
905 21-07-2019 03:20:00 18.7 C 14.25 g/m*3 18.7 C 0 km/h
906 21-07-2019 03:25:00 18.7 C 14.25 g/m*3 18.7 C 0 km/h
907 21-07-2019 03:30:00 18.7 C 14.09 g/m*3 18.7 C 0 km/h
908 21-07-2019 03:35:00 18.7 C 14.25 g/m*3 18.7 C 0 km/h
909 21-07-2019 03:40:00 18.6 C 14.17 g/m*3 18.6 C 0 km/h
910 21-07-2019 03:45:00 18.6 C 14.17 g/m*3 18.6 C 0 km/h
911 21-07-2019 03:50:00 18.5 C 14.08 g/m*3 18.5 C 0 km/h
912 21-07-2019 03:55:00 18.4 C 14 g/m*3 18.4 C 0 km/h
913 21-07-2019 04:00:00 18.3 C 13.92 g/m*3 18.3 C 0 km/h
914 21-07-2019 04:05:00 18.2 C 13.83 g/m*3 18.2 C 0 km/h
915 21-07-2019 04:10:00 18.2 C 13.83 g/m*3 18.2 C 0 km/h
916 21-07-2019 04:15:00 18.1 C 13.75 g/m*3 18.1 C 0 km/h
917 21-07-2019 04:20:00 18 C 13.67 g/m*3 18 C 0 km/h
918 21-07-2019 04:25:00 17.9 C 13.59 g/m*3 17.9 C 0 km/h
919 21-07-2019 04:30:00 17.9 C 13.59 g/m*3 17.9 C 0 km/h
920 21-07-2019 04:35:00 17.9 C 13.74 g/m*3 17.9 C 0 km/h
921 21-07-2019 04:40:00 17.8 C 13.51 g/m*3 17.8 C 0 km/h
922 21-07-2019 04:45:00 17.7 C 13.58 g/m*3 17.7 C 0 km/h
923 21-07-2019 04:50:00 17.7 C 13.58 g/m*3 17.7 C 0 km/h
924 21-07-2019 04:55:00 17.7 C 13.58 g/m*3 17.7 C 0 km/h
925 21-07-2019 05:00:00 17.6 C 13.5 g/m*3 17.6 C 0 km/h
Sensor: Nr:Datum:Temp:Abs-Feuchte:Windchill:Wind:
Aussen-T/F 926 21-07-2019 05:05:00 17.5 C 13.42 g/m*3 17.5 C 0 km/h
927 21-07-2019 05:10:00 17.4 C 13.49 g/m*3 17.4 C 0 km/h
928 21-07-2019 05:15:00 17.4 C 13.49 g/m*3 17.4 C 0 km/h
929 21-07-2019 05:20:00 17.4 C 13.49 g/m*3 17.4 C 0 km/h
930 21-07-2019 05:25:00 17.4 C 13.49 g/m*3 17.4 C 0 km/h
931 21-07-2019 05:30:00 17.4 C 13.49 g/m*3 17.4 C 0 km/h
932 21-07-2019 05:35:00 17.4 C 13.49 g/m*3 17.4 C 0 km/h
933 21-07-2019 05:40:00 17.4 C 13.63 g/m*3 17.4 C 0 km/h
934 21-07-2019 05:45:00 17.5 C 13.72 g/m*3 17.5 C 0 km/h
935 21-07-2019 05:50:00 17.6 C 13.8 g/m*3 17.6 C 0 km/h
936 21-07-2019 05:55:00 17.6 C 13.8 g/m*3 17.6 C 0 km/h
937 21-07-2019 06:00:00 17.6 C 13.8 g/m*3 17.6 C 0 km/h
938 21-07-2019 06:05:00 17.6 C 13.8 g/m*3 17.6 C 0 km/h
939 21-07-2019 06:10:00 17.6 C 13.8 g/m*3 17.6 C 0 km/h
940 21-07-2019 06:15:00 17.7 C 13.88 g/m*3 17.7 C 0 km/h
941 21-07-2019 06:20:00 17.7 C 13.88 g/m*3 17.7 C 0 km/h
942 21-07-2019 06:25:00 17.7 C 13.88 g/m*3 17.7 C 0 km/h
943 21-07-2019 06:30:00 17.7 C 13.88 g/m*3 17.7 C 0 km/h
944 21-07-2019 06:35:00 17.8 C 13.96 g/m*3 17.8 C 0 km/h
945 21-07-2019 06:40:00 17.8 C 13.81 g/m*3 17.8 C 0 km/h
946 21-07-2019 06:45:00 17.8 C 13.81 g/m*3 17.8 C 0 km/h
947 21-07-2019 06:50:00 17.9 C 13.89 g/m*3 17.9 C 0 km/h
948 21-07-2019 06:55:00 17.9 C 13.89 g/m*3 17.9 C 0 km/h
949 21-07-2019 07:00:00 17.9 C 13.74 g/m*3 17.9 C 0 km/h
950 21-07-2019 07:05:00 18.1 C 13.91 g/m*3 18.1 C 0 km/h
Sensor: Nr:Datum:Temp:Abs-Feuchte:Windchill:Wind:
Aussen-T/F 951 21-07-2019 07:10:00 18.2 C 13.99 g/m*3 18.2 C 0 km/h
952 21-07-2019 07:15:00 18.3 C 14.07 g/m*3 18.3 C 0 km/h
953 21-07-2019 07:20:00 18.4 C 14.16 g/m*3 18.4 C 0 km/h
954 21-07-2019 07:25:00 18.5 C 14.24 g/m*3 18.5 C 0 km/h
955 21-07-2019 07:30:00 18.6 C 14.17 g/m*3 18.6 C 0 km/h
956 21-07-2019 07:35:00 18.7 C 14.25 g/m*3 18.7 C 0 km/h
957 21-07-2019 07:40:00 18.7 C 14.25 g/m*3 18.7 C 0 km/h
958 21-07-2019 07:45:00 18.8 C 14.17 g/m*3 18.8 C 0 km/h
959 21-07-2019 07:50:00 18.9 C 14.42 g/m*3 18.9 C 0 km/h
960 21-07-2019 07:55:00 18.9 C 13.93 g/m*3 18.9 C 0 km/h
961 21-07-2019 08:00:00 19 C 13.69 g/m*3 19 C 0 km/h
962 21-07-2019 08:05:00 19.1 C 13.44 g/m*3 19.1 C 0 km/h
963 21-07-2019 08:10:00 19.2 C 13.36 g/m*3 19.2 C 6.4 km/h
964 21-07-2019 08:15:00 19.3 C 13.44 g/m*3 19.3 C 1.6 km/h
965 21-07-2019 08:20:00 19.3 C 13.44 g/m*3 19.3 C 0 km/h
966 21-07-2019 08:25:00 19.3 C 13.1 g/m*3 19.3 C 6.4 km/h
967 21-07-2019 08:30:00 19.3 C 13.27 g/m*3 19.3 C 3.2 km/h
968 21-07-2019 08:35:00 19.4 C 13.18 g/m*3 19.4 C 0 km/h
969 21-07-2019 08:40:00 19.4 C 13.18 g/m*3 19.4 C 0 km/h
970 21-07-2019 08:45:00 19.5 C 13.26 g/m*3 19.5 C 4.8 km/h
971 21-07-2019 08:50:00 19.6 C 13.51 g/m*3 19.6 C 0 km/h
972 21-07-2019 08:55:00 19.7 C 13.58 g/m*3 19.7 C 6.4 km/h
973 21-07-2019 09:00:00 19.8 C 13.49 g/m*3 19.8 C 6.4 km/h
974 21-07-2019 09:05:00 19.8 C 13.32 g/m*3 19.8 C 4.8 km/h
975 21-07-2019 09:10:00 20.1 C 13.56 g/m*3 20.1 C 4.8 km/h
Sensor: Nr:Datum:Temp:Abs-Feuchte:Windchill:Wind:
Aussen-T/F 976 21-07-2019 09:15:00 20.1 C 13.21 g/m*3 20.1 C 8.1 km/h
977 21-07-2019 09:20:00 20.2 C 12.94 g/m*3 20.2 C 8.1 km/h
978 21-07-2019 09:25:00 20.3 C 12.84 g/m*3 20.3 C 8.1 km/h
979 21-07-2019 09:30:00 20.4 C 12.91 g/m*3 20.4 C 9.7 km/h
980 21-07-2019 09:35:00 20.4 C 12.91 g/m*3 20.4 C 9.7 km/h
981 21-07-2019 09:40:00 20.5 C 12.63 g/m*3 20.5 C 8.1 km/h
982 21-07-2019 09:45:00 20.6 C 12.89 g/m*3 20.6 C 6.4 km/h
983 21-07-2019 09:50:00 20.7 C 12.6 g/m*3 20.7 C 8.1 km/h
984 21-07-2019 09:55:00 20.8 C 12.86 g/m*3 20.8 C 8.1 km/h
985 21-07-2019 10:00:00 21 C 12.82 g/m*3 21 C 9.7 km/h
986 21-07-2019 10:05:00 21.1 C 12.71 g/m*3 21.1 C 9.7 km/h
987 21-07-2019 10:10:00 21.2 C 12.79 g/m*3 21.2 C 8.1 km/h
988 21-07-2019 10:15:00 21.3 C 12.68 g/m*3 21.3 C 8.1 km/h
989 21-07-2019 10:20:00 21.5 C 12.82 g/m*3 21.5 C 6.4 km/h
990 21-07-2019 10:25:00 21.7 C 12.97 g/m*3 21.7 C 4.8 km/h
991 21-07-2019 10:30:00 21.9 C 12.93 g/m*3 21.9 C 4.8 km/h
992 21-07-2019 10:35:00 22.1 C 12.69 g/m*3 22.1 C 6.4 km/h
993 21-07-2019 10:40:00 22.3 C 12.64 g/m*3 22.3 C 8.1 km/h
994 21-07-2019 10:45:00 22.6 C 12.86 g/m*3 22.6 C 6.4 km/h
995 21-07-2019 10:50:00 22.8 C 12.8 g/m*3 22.8 C 8.1 km/h
996 21-07-2019 10:55:00 22.8 C 12.19 g/m*3 22.8 C 6.4 km/h
997 21-07-2019 11:00:00 22.9 C 12.26 g/m*3 22.9 C 3.2 km/h
998 21-07-2019 11:05:00 23.1 C 12.2 g/m*3 23.1 C 6.4 km/h
999 21-07-2019 11:10:00 23.4 C 11.78 g/m*3 23.4 C 12.9 km/h
1000 21-07-2019 11:15:00 23.6 C 11.48 g/m*3 23.6 C 12.9 km/h
Sensor: Nr:Datum:Temp:Abs-Feuchte:Windchill:Wind:
Aussen-T/F 1001 21-07-2019 11:20:00 23.7 C 11.55 g/m*3 23.7 C 11.3 km/h
1002 21-07-2019 11:25:00 23.8 C 11.4 g/m*3 23.8 C 16.1 km/h
1003 21-07-2019 11:30:00 24 C 11.75 g/m*3 24 C 16.1 km/h
1004 21-07-2019 11:35:00 24.1 C 11.38 g/m*3 24.1 C 14.5 km/h
1005 21-07-2019 11:40:00 24.2 C 11.22 g/m*3 24.2 C 11.3 km/h
1006 21-07-2019 11:45:00 24.2 C 11.22 g/m*3 24.2 C 12.9 km/h
1007 21-07-2019 11:50:00 24.2 C 11.22 g/m*3 24.2 C 9.7 km/h
1008 21-07-2019 11:55:00 24.3 C 11.29 g/m*3 24.3 C 9.7 km/h
1009 21-07-2019 12:00:00 24.4 C 10.9 g/m*3 24.4 C 16.1 km/h
1010 21-07-2019 12:05:00 24.6 C 11.25 g/m*3 24.6 C 11.3 km/h
1011 21-07-2019 12:10:00 24.8 C 11.61 g/m*3 24.8 C 9.7 km/h
1012 21-07-2019 12:15:00 24.9 C 11.22 g/m*3 24.9 C 24.1 km/h
1013 21-07-2019 12:20:00 25.1 C 11.34 g/m*3 25.1 C 8.1 km/h
1014 21-07-2019 12:25:00 25.2 C 11.87 g/m*3 25.2 C 11.3 km/h
1015 21-07-2019 12:30:00 25.3 C 12.17 g/m*3 25.3 C 9.7 km/h
1016 21-07-2019 12:35:00 25.1 C 11.81 g/m*3 25.1 C 8.1 km/h
1017 21-07-2019 12:40:00 25.1 C 12.04 g/m*3 25.1 C 6.4 km/h
1018 21-07-2019 12:45:00 25.1 C 12.27 g/m*3 25.1 C 11.3 km/h
1019 21-07-2019 12:50:00 25.1 C 12.27 g/m*3 25.1 C 12.9 km/h
1020 21-07-2019 12:55:00 24.9 C 12.13 g/m*3 24.9 C 9.7 km/h
1021 21-07-2019 13:00:00 24.9 C 12.13 g/m*3 24.9 C 8.1 km/h
1022 21-07-2019 13:05:00 24.9 C 11.9 g/m*3 24.9 C 9.7 km/h
1023 21-07-2019 13:10:00 24.8 C 12.06 g/m*3 24.8 C 8.1 km/h
1024 21-07-2019 13:15:00 24.8 C 12.06 g/m*3 24.8 C 11.3 km/h
1025 21-07-2019 13:20:00 24.8 C 12.29 g/m*3 24.8 C 11.3 km/h
Sensor: Nr:Datum:Temp:Abs-Feuchte:Windchill:Wind:
Aussen-T/F 1026 21-07-2019 13:25:00 24.8 C 12.29 g/m*3 24.8 C 11.3 km/h
1027 21-07-2019 13:30:00 24.8 C 12.29 g/m*3 24.8 C 8.1 km/h
1028 21-07-2019 13:35:00 24.9 C 12.36 g/m*3 24.9 C 6.4 km/h
1029 21-07-2019 13:40:00 25 C 12.66 g/m*3 25 C 4.8 km/h
1030 21-07-2019 13:45:00 25.2 C 12.11 g/m*3 25.2 C 12.9 km/h
1031 21-07-2019 13:50:00 25.3 C 12.41 g/m*3 25.3 C 8.1 km/h
1032 21-07-2019 13:55:00 25.3 C 12.17 g/m*3 25.3 C 9.7 km/h
1033 21-07-2019 14:00:00 25.4 C 12.24 g/m*3 25.4 C 9.7 km/h
1034 21-07-2019 14:05:00 25.6 C 13.09 g/m*3 25.6 C 9.7 km/h
1035 21-07-2019 14:10:00 25.8 C 12.52 g/m*3 25.8 C 9.7 km/h
1036 21-07-2019 14:15:00 25.9 C 12.59 g/m*3 25.9 C 11.3 km/h
1037 21-07-2019 14:20:00 26 C 12.9 g/m*3 26 C 11.3 km/h
1038 21-07-2019 14:25:00 26.2 C 12.31 g/m*3 26.2 C 11.3 km/h
1039 21-07-2019 14:30:00 26.2 C 11.82 g/m*3 26.2 C 8.1 km/h
1040 21-07-2019 14:35:00 26.2 C 12.31 g/m*3 26.2 C 8.1 km/h
1041 21-07-2019 14:40:00 26.2 C 12.31 g/m*3 26.2 C 12.9 km/h
1042 21-07-2019 14:45:00 26.2 C 12.56 g/m*3 26.2 C 9.7 km/h
1043 21-07-2019 14:50:00 26.2 C 12.56 g/m*3 26.2 C 6.4 km/h
1044 21-07-2019 14:55:00 26.3 C 12.13 g/m*3 26.3 C 9.7 km/h
1045 21-07-2019 15:00:00 26.4 C 12.45 g/m*3 26.4 C 16.1 km/h
1046 21-07-2019 15:05:00 26.7 C 12.4 g/m*3 26.7 C 4.8 km/h
1047 21-07-2019 15:10:00 26.7 C 12.4 g/m*3 26.7 C 11.3 km/h
1048 21-07-2019 15:15:00 26.8 C 12.22 g/m*3 26.8 C 16.1 km/h
1049 21-07-2019 15:20:00 26.9 C 12.29 g/m*3 26.9 C 11.3 km/h
1050 21-07-2019 15:25:00 27.2 C 12.75 g/m*3 27.2 C 8.1 km/h
Sensor: Nr:Datum:Temp:Abs-Feuchte:Windchill:Wind:
Aussen-T/F 1051 21-07-2019 15:30:00 27.1 C 12.16 g/m*3 27.1 C 16.1 km/h
1052 21-07-2019 15:35:00 26.8 C 12.22 g/m*3 26.8 C 11.3 km/h
1053 21-07-2019 15:40:00 26.7 C 12.15 g/m*3 26.7 C 8.1 km/h
1054 21-07-2019 15:45:00 26.8 C 12.47 g/m*3 26.8 C 11.3 km/h
1055 21-07-2019 15:50:00 26.9 C 12.29 g/m*3 26.9 C 11.3 km/h
1056 21-07-2019 15:55:00 27.1 C 12.16 g/m*3 27.1 C 12.9 km/h
1057 21-07-2019 16:00:00 27.3 C 12.04 g/m*3 27.3 C 9.7 km/h
1058 21-07-2019 16:05:00 27.5 C 12.43 g/m*3 27.5 C 6.4 km/h
1059 21-07-2019 16:10:00 27.6 C 12.5 g/m*3 27.6 C 14.5 km/h
1060 21-07-2019 16:15:00 27.6 C 12.24 g/m*3 27.6 C 17.7 km/h
1061 21-07-2019 16:20:00 27.6 C 12.24 g/m*3 27.6 C 8.1 km/h
1062 21-07-2019 16:25:00 27.8 C 12.64 g/m*3 27.8 C 8.1 km/h
1063 21-07-2019 16:30:00 27.9 C 12.17 g/m*3 27.9 C 8.1 km/h
1064 21-07-2019 16:35:00 27.8 C 12.1 g/m*3 27.8 C 11.3 km/h
1065 21-07-2019 16:40:00 27.9 C 12.17 g/m*3 27.9 C 11.3 km/h
1066 21-07-2019 16:45:00 28 C 12.51 g/m*3 28 C 8.1 km/h
1067 21-07-2019 16:50:00 28.1 C 12.58 g/m*3 28.1 C 8.1 km/h
1068 21-07-2019 16:55:00 28.1 C 12.3 g/m*3 28.1 C 9.7 km/h
1069 21-07-2019 17:00:00 27.9 C 12.17 g/m*3 27.9 C 11.3 km/h
1070 21-07-2019 17:05:00 27.8 C 12.64 g/m*3 27.8 C 9.7 km/h
1071 21-07-2019 17:10:00 27.7 C 12.3 g/m*3 27.7 C 11.3 km/h
1072 21-07-2019 17:15:00 27.3 C 12.3 g/m*3 27.3 C 11.3 km/h
1073 21-07-2019 17:20:00 27.3 C 12.56 g/m*3 27.3 C 9.7 km/h
1074 21-07-2019 17:25:00 27.3 C 12.56 g/m*3 27.3 C 9.7 km/h
1075 21-07-2019 17:30:00 27.3 C 12.56 g/m*3 27.3 C 11.3 km/h
Sensor: Nr:Datum:Temp:Abs-Feuchte:Windchill:Wind:
Aussen-T/F 1076 21-07-2019 17:35:00 26.9 C 12.8 g/m*3 26.9 C 8.1 km/h
1077 21-07-2019 17:40:00 26.8 C 12.47 g/m*3 26.8 C 12.9 km/h
1078 21-07-2019 17:45:00 26.8 C 12.47 g/m*3 26.8 C 11.3 km/h
1079 21-07-2019 17:50:00 27 C 12.1 g/m*3 27 C 12.9 km/h
1080 21-07-2019 17:55:00 27.2 C 12.23 g/m*3 27.2 C 14.5 km/h
1081 21-07-2019 18:00:00 27.2 C 12.75 g/m*3 27.2 C 9.7 km/h
1082 21-07-2019 18:05:00 27.2 C 12.49 g/m*3 27.2 C 8.1 km/h
1083 21-07-2019 18:10:00 26.9 C 12.29 g/m*3 26.9 C 11.3 km/h
1084 21-07-2019 18:15:00 26.7 C 12.15 g/m*3 26.7 C 14.5 km/h
1085 21-07-2019 18:20:00 26.4 C 11.95 g/m*3 26.4 C 8.1 km/h
1086 21-07-2019 18:25:00 26.3 C 12.38 g/m*3 26.3 C 12.9 km/h
1087 21-07-2019 18:30:00 26.2 C 12.31 g/m*3 26.2 C 12.9 km/h
1088 21-07-2019 18:35:00 26.2 C 12.31 g/m*3 26.2 C 8.1 km/h
1089 21-07-2019 18:40:00 26.1 C 12.24 g/m*3 26.1 C 8.1 km/h
1090 21-07-2019 18:45:00 26 C 12.17 g/m*3 26 C 6.4 km/h
1091 21-07-2019 18:50:00 26 C 12.17 g/m*3 26 C 8.1 km/h
1092 21-07-2019 18:55:00 26.1 C 12.24 g/m*3 26.1 C 4.8 km/h
1093 21-07-2019 19:00:00 26.3 C 12.38 g/m*3 26.3 C 8.1 km/h
1094 21-07-2019 19:05:00 26.2 C 12.31 g/m*3 26.2 C 6.4 km/h
1095 21-07-2019 19:10:00 26.1 C 12.49 g/m*3 26.1 C 4.8 km/h
1096 21-07-2019 19:15:00 25.9 C 12.1 g/m*3 25.9 C 6.4 km/h
1097 21-07-2019 19:20:00 25.7 C 12.45 g/m*3 25.7 C 8.1 km/h
1098 21-07-2019 19:25:00 25.4 C 12.24 g/m*3 25.4 C 8.1 km/h
1099 21-07-2019 19:30:00 25.2 C 12.34 g/m*3 25.2 C 9.7 km/h
1100 21-07-2019 19:35:00 25.1 C 12.27 g/m*3 25.1 C 8.1 km/h
Sensor: Nr:Datum:Temp:Abs-Feuchte:Windchill:Wind:
Aussen-T/F 1101 21-07-2019 19:40:00 24.9 C 12.13 g/m*3 24.9 C 6.4 km/h
1102 21-07-2019 19:45:00 24.8 C 12.29 g/m*3 24.8 C 11.3 km/h
1103 21-07-2019 19:50:00 24.7 C 12.22 g/m*3 24.7 C 11.3 km/h
1104 21-07-2019 19:55:00 24.6 C 12.15 g/m*3 24.6 C 9.7 km/h
1105 21-07-2019 20:00:00 24.5 C 12.09 g/m*3 24.5 C 6.4 km/h
1106 21-07-2019 20:05:00 24.5 C 12.09 g/m*3 24.5 C 9.7 km/h
1107 21-07-2019 20:10:00 24.4 C 12.24 g/m*3 24.4 C 8.1 km/h
1108 21-07-2019 20:15:00 24.4 C 12.46 g/m*3 24.4 C 9.7 km/h
1109 21-07-2019 20:20:00 24.3 C 12.17 g/m*3 24.3 C 4.8 km/h
1110 21-07-2019 20:25:00 24.3 C 12.39 g/m*3 24.3 C 8.1 km/h
1111 21-07-2019 20:30:00 24.4 C 12.46 g/m*3 24.4 C 6.4 km/h
1112 21-07-2019 20:35:00 24.5 C 12.31 g/m*3 24.5 C 8.1 km/h
1113 21-07-2019 20:40:00 24.4 C 12.02 g/m*3 24.4 C 6.4 km/h
1114 21-07-2019 20:45:00 24.4 C 12.24 g/m*3 24.4 C 9.7 km/h
1115 21-07-2019 20:50:00 24.4 C 12.02 g/m*3 24.4 C 6.4 km/h
1116 21-07-2019 20:55:00 24.3 C 11.95 g/m*3 24.3 C 6.4 km/h
1117 21-07-2019 21:00:00 24.2 C 11.88 g/m*3 24.2 C 4.8 km/h
1118 21-07-2019 21:05:00 24.1 C 12.03 g/m*3 24.1 C 4.8 km/h
1119 21-07-2019 21:10:00 23.9 C 12.55 g/m*3 23.9 C 1.6 km/h
1120 21-07-2019 21:15:00 23.7 C 12.62 g/m*3 23.7 C 0 km/h
1121 21-07-2019 21:20:00 23.3 C 12.55 g/m*3 23.3 C 0 km/h
1122 21-07-2019 21:25:00 22.8 C 12.4 g/m*3 22.8 C 0 km/h
1123 21-07-2019 21:30:00 22.4 C 12.31 g/m*3 22.4 C 0 km/h
1124 21-07-2019 21:35:00 22.1 C 12.3 g/m*3 22.1 C 0 km/h
1125 21-07-2019 21:40:00 21.7 C 12.21 g/m*3 21.7 C 0 km/h
Sensor: Nr:Datum:Temp:Abs-Feuchte:Windchill:Wind:
Aussen-T/F 1126 21-07-2019 21:45:00 21.4 C 12.19 g/m*3 21.4 C 0 km/h
1127 21-07-2019 21:50:00 21.2 C 12.23 g/m*3 21.2 C 0 km/h
1128 21-07-2019 21:55:00 20.9 C 12.2 g/m*3 20.9 C 0 km/h
1129 21-07-2019 22:00:00 20.7 C 12.24 g/m*3 20.7 C 0 km/h
1130 21-07-2019 22:05:00 20.5 C 12.28 g/m*3 20.5 C 0 km/h
1131 21-07-2019 22:10:00 20.3 C 12.31 g/m*3 20.3 C 0 km/h
1132 21-07-2019 22:15:00 20.2 C 12.41 g/m*3 20.2 C 0 km/h
1133 21-07-2019 22:20:00 19.9 C 12.2 g/m*3 19.9 C 0 km/h
1134 21-07-2019 22:25:00 19.8 C 12.13 g/m*3 19.8 C 0 km/h
1135 21-07-2019 22:30:00 19.7 C 12.23 g/m*3 19.7 C 0 km/h
1136 21-07-2019 22:35:00 19.6 C 12.15 g/m*3 19.6 C 0 km/h
1137 21-07-2019 22:40:00 19.6 C 12.15 g/m*3 19.6 C 0 km/h
1138 21-07-2019 22:45:00 19.4 C 12.18 g/m*3 19.4 C 0 km/h
1139 21-07-2019 22:50:00 19.3 C 12.27 g/m*3 19.3 C 0 km/h
1140 21-07-2019 22:55:00 19.2 C 12.37 g/m*3 19.2 C 0 km/h
1141 21-07-2019 23:00:00 19.1 C 12.46 g/m*3 19.1 C 0 km/h
1142 21-07-2019 23:05:00 18.9 C 12.31 g/m*3 18.9 C 0 km/h
1143 21-07-2019 23:10:00 18.8 C 12.4 g/m*3 18.8 C 0 km/h
1144 21-07-2019 23:15:00 18.7 C 12.33 g/m*3 18.7 C 0 km/h
1145 21-07-2019 23:20:00 18.6 C 12.41 g/m*3 18.6 C 0 km/h
1146 21-07-2019 23:25:00 18.3 C 12.2 g/m*3 18.3 C 0 km/h
1147 21-07-2019 23:30:00 18.2 C 12.28 g/m*3 18.2 C 0 km/h
1148 21-07-2019 23:35:00 18.1 C 12.21 g/m*3 18.1 C 0 km/h
1149 21-07-2019 23:40:00 18.1 C 12.21 g/m*3 18.1 C 0 km/h
1150 21-07-2019 23:45:00 17.9 C 12.06 g/m*3 17.9 C 0 km/h
Sensor: Nr:Datum:Temp:Abs-Feuchte:Windchill:Wind:
Aussen-T/F 1151 21-07-2019 23:50:00 17.8 C 12.14 g/m*3 17.8 C 0 km/h
1152 21-07-2019 23:55:00 17.7 C 12.07 g/m*3 17.7 C 0 km/h
1153 22-07-2019 00:00:00 17.6 C 12 g/m*3 17.6 C 0 km/h
1154 22-07-2019 00:05:00 17.5 C 11.93 g/m*3 17.5 C 0 km/h
1155 22-07-2019 00:10:00 17.4 C 11.86 g/m*3 17.4 C 0 km/h
1156 22-07-2019 00:15:00 17.3 C 11.79 g/m*3 17.3 C 0 km/h
1157 22-07-2019 00:20:00 17.1 C 11.79 g/m*3 17.1 C 0 km/h
1158 22-07-2019 00:25:00 17.1 C 11.79 g/m*3 17.1 C 0 km/h
1159 22-07-2019 00:30:00 16.9 C 11.65 g/m*3 16.9 C 0 km/h
1160 22-07-2019 00:35:00 16.9 C 11.79 g/m*3 16.9 C 0 km/h
1161 22-07-2019 00:40:00 16.9 C 11.79 g/m*3 16.9 C 0 km/h
1162 22-07-2019 00:45:00 16.8 C 11.72 g/m*3 16.8 C 0 km/h
1163 22-07-2019 00:50:00 16.7 C 11.65 g/m*3 16.7 C 0 km/h
1164 22-07-2019 00:55:00 16.7 C 11.65 g/m*3 16.7 C 0 km/h
1165 22-07-2019 01:00:00 16.5 C 11.51 g/m*3 16.5 C 0 km/h
1166 22-07-2019 01:05:00 16.4 C 11.58 g/m*3 16.4 C 0 km/h
1167 22-07-2019 01:10:00 16.4 C 11.58 g/m*3 16.4 C 0 km/h
1168 22-07-2019 01:15:00 16.3 C 11.65 g/m*3 16.3 C 0 km/h
1169 22-07-2019 01:20:00 16.3 C 11.65 g/m*3 16.3 C 0 km/h
1170 22-07-2019 01:25:00 16.2 C 11.58 g/m*3 16.2 C 0 km/h
1171 22-07-2019 01:30:00 16.2 C 11.58 g/m*3 16.2 C 0 km/h
1172 22-07-2019 01:35:00 16.1 C 11.65 g/m*3 16.1 C 0 km/h
1173 22-07-2019 01:40:00 16 C 11.58 g/m*3 16 C 0 km/h
1174 22-07-2019 01:45:00 15.9 C 11.51 g/m*3 15.9 C 0 km/h
1175 22-07-2019 01:50:00 15.8 C 11.44 g/m*3 15.8 C 0 km/h
Sensor: Nr:Datum:Temp:Abs-Feuchte:Windchill:Wind:
Aussen-T/F 1176 22-07-2019 01:55:00 15.8 C 11.58 g/m*3 15.8 C 0 km/h
1177 22-07-2019 02:00:00 15.7 C 11.51 g/m*3 15.7 C 0 km/h
1178 22-07-2019 02:05:00 15.7 C 11.64 g/m*3 15.7 C 0 km/h
1179 22-07-2019 02:10:00 15.7 C 11.64 g/m*3 15.7 C 0 km/h
1180 22-07-2019 02:15:00 15.7 C 11.64 g/m*3 15.7 C 0 km/h
1181 22-07-2019 02:20:00 15.7 C 11.64 g/m*3 15.7 C 0 km/h
1182 22-07-2019 02:25:00 15.7 C 11.64 g/m*3 15.7 C 0 km/h
1183 22-07-2019 02:30:00 15.6 C 11.7 g/m*3 15.6 C 0 km/h
1184 22-07-2019 02:35:00 15.6 C 11.7 g/m*3 15.6 C 0 km/h
1185 22-07-2019 02:40:00 15.6 C 11.7 g/m*3 15.6 C 0 km/h
1186 22-07-2019 02:45:00 15.6 C 11.7 g/m*3 15.6 C 0 km/h
1187 22-07-2019 02:50:00 15.6 C 11.7 g/m*3 15.6 C 0 km/h
1188 22-07-2019 02:55:00 15.5 C 11.63 g/m*3 15.5 C 0 km/h
1189 22-07-2019 03:00:00 15.5 C 11.63 g/m*3 15.5 C 0 km/h
1190 22-07-2019 03:05:00 15.5 C 11.63 g/m*3 15.5 C 0 km/h
1191 22-07-2019 03:10:00 15.5 C 11.63 g/m*3 15.5 C 0 km/h
1192 22-07-2019 03:15:00 15.4 C 11.56 g/m*3 15.4 C 0 km/h
1193 22-07-2019 03:20:00 15.4 C 11.56 g/m*3 15.4 C 0 km/h
1194 22-07-2019 03:25:00 15.4 C 11.56 g/m*3 15.4 C 0 km/h
1195 22-07-2019 03:30:00 15.3 C 11.49 g/m*3 15.3 C 0 km/h
1196 22-07-2019 03:35:00 15.3 C 11.49 g/m*3 15.3 C 0 km/h
1197 22-07-2019 03:40:00 15.2 C 11.55 g/m*3 15.2 C 0 km/h
1198 22-07-2019 03:45:00 15.2 C 11.55 g/m*3 15.2 C 0 km/h
1199 22-07-2019 03:50:00 15.2 C 11.55 g/m*3 15.2 C 0 km/h
1200 22-07-2019 03:55:00 15.1 C 11.48 g/m*3 15.1 C 0 km/h
Sensor: Nr:Datum:Temp:Abs-Feuchte:Windchill:Wind:
Aussen-T/F 1201 22-07-2019 04:00:00 15.1 C 11.48 g/m*3 15.1 C 0 km/h
1202 22-07-2019 04:05:00 15 C 11.41 g/m*3 15 C 0 km/h
1203 22-07-2019 04:10:00 14.9 C 11.34 g/m*3 14.9 C 0 km/h
1204 22-07-2019 04:15:00 14.8 C 11.27 g/m*3 14.8 C 0 km/h
1205 22-07-2019 04:20:00 14.8 C 11.27 g/m*3 14.8 C 0 km/h
1206 22-07-2019 04:25:00 14.7 C 11.21 g/m*3 14.7 C 0 km/h
1207 22-07-2019 04:30:00 14.7 C 11.33 g/m*3 14.7 C 0 km/h
1208 22-07-2019 04:35:00 14.6 C 11.26 g/m*3 14.6 C 0 km/h
1209 22-07-2019 04:40:00 14.6 C 11.26 g/m*3 14.6 C 0 km/h
1210 22-07-2019 04:45:00 14.6 C 11.26 g/m*3 14.6 C 0 km/h
1211 22-07-2019 04:50:00 14.6 C 11.26 g/m*3 14.6 C 0 km/h
1212 22-07-2019 04:55:00 14.5 C 11.19 g/m*3 14.5 C 0 km/h
1213 22-07-2019 05:00:00 14.4 C 11.13 g/m*3 14.4 C 0 km/h
1214 22-07-2019 05:05:00 14.4 C 11.13 g/m*3 14.4 C 0 km/h
1215 22-07-2019 05:10:00 14.4 C 11.25 g/m*3 14.4 C 0 km/h
1216 22-07-2019 05:15:00 14.3 C 11.18 g/m*3 14.3 C 0 km/h
1217 22-07-2019 05:20:00 14.4 C 11.25 g/m*3 14.4 C 0 km/h
1218 22-07-2019 05:25:00 14.3 C 11.18 g/m*3 14.3 C 0 km/h
1219 22-07-2019 05:30:00 14.3 C 11.18 g/m*3 14.3 C 0 km/h
1220 22-07-2019 05:35:00 14.3 C 11.18 g/m*3 14.3 C 0 km/h
1221 22-07-2019 05:40:00 14.2 C 11.11 g/m*3 14.2 C 0 km/h
1222 22-07-2019 05:45:00 14.2 C 11.11 g/m*3 14.2 C 0 km/h
1223 22-07-2019 05:50:00 14.2 C 11.11 g/m*3 14.2 C 0 km/h
1224 22-07-2019 05:55:00 14.2 C 11.23 g/m*3 14.2 C 0 km/h
1225 22-07-2019 06:00:00 14.2 C 11.23 g/m*3 14.2 C 0 km/h
Sensor: Nr:Datum:Temp:Abs-Feuchte:Windchill:Wind:
Aussen-T/F 1226 22-07-2019 06:05:00 14.2 C 11.23 g/m*3 14.2 C 0 km/h
1227 22-07-2019 06:10:00 14.3 C 11.3 g/m*3 14.3 C 0 km/h
1228 22-07-2019 06:15:00 14.3 C 11.3 g/m*3 14.3 C 0 km/h
1229 22-07-2019 06:20:00 14.2 C 11.11 g/m*3 14.2 C 0 km/h
1230 22-07-2019 06:25:00 14.1 C 11.04 g/m*3 14.1 C 0 km/h
1231 22-07-2019 06:30:00 14.1 C 11.17 g/m*3 14.1 C 0 km/h
1232 22-07-2019 06:35:00 14.1 C 11.17 g/m*3 14.1 C 0 km/h
1233 22-07-2019 06:40:00 14.1 C 11.17 g/m*3 14.1 C 0 km/h
1234 22-07-2019 06:45:00 14.1 C 11.17 g/m*3 14.1 C 0 km/h
1235 22-07-2019 06:50:00 14.2 C 11.23 g/m*3 14.2 C 0 km/h
1236 22-07-2019 06:55:00 14.2 C 11.23 g/m*3 14.2 C 0 km/h
1237 22-07-2019 07:00:00 14.3 C 11.43 g/m*3 14.3 C 0 km/h
1238 22-07-2019 07:05:00 14.3 C 11.43 g/m*3 14.3 C 0 km/h
1239 22-07-2019 07:10:00 14.3 C 11.43 g/m*3 14.3 C 0 km/h
1240 22-07-2019 07:15:00 14.4 C 11.5 g/m*3 14.4 C 0 km/h
1241 22-07-2019 07:20:00 14.5 C 11.57 g/m*3 14.5 C 0 km/h
1242 22-07-2019 07:25:00 14.7 C 11.71 g/m*3 14.7 C 0 km/h
1243 22-07-2019 07:30:00 14.8 C 11.78 g/m*3 14.8 C 0 km/h
1244 22-07-2019 07:35:00 14.9 C 11.85 g/m*3 14.9 C 0 km/h
1245 22-07-2019 07:40:00 14.9 C 11.85 g/m*3 14.9 C 0 km/h
1246 22-07-2019 07:45:00 15.1 C 11.87 g/m*3 15.1 C 0 km/h
1247 22-07-2019 07:50:00 15.2 C 11.94 g/m*3 15.2 C 0 km/h
1248 22-07-2019 07:55:00 15.3 C 12.01 g/m*3 15.3 C 0 km/h
1249 22-07-2019 08:00:00 15.4 C 12.09 g/m*3 15.4 C 0 km/h
1250 22-07-2019 08:05:00 15.5 C 12.16 g/m*3 15.5 C 0 km/h
Sensor: Nr:Datum:Temp:Abs-Feuchte:Windchill:Wind:
Aussen-T/F 1251 22-07-2019 08:10:00 15.6 C 12.23 g/m*3 15.6 C 0 km/h
1252 22-07-2019 08:15:00 15.7 C 12.18 g/m*3 15.7 C 0 km/h
1253 22-07-2019 08:20:00 16 C 12.4 g/m*3 16 C 0 km/h
1254 22-07-2019 08:25:00 16.2 C 12.27 g/m*3 16.2 C 0 km/h
1255 22-07-2019 08:30:00 16.4 C 12.28 g/m*3 16.4 C 0 km/h
1256 22-07-2019 08:35:00 16.6 C 12.43 g/m*3 16.6 C 0 km/h
1257 22-07-2019 08:40:00 16.8 C 12.44 g/m*3 16.8 C 0 km/h
1258 22-07-2019 08:45:00 16.9 C 12.51 g/m*3 16.9 C 0 km/h
1259 22-07-2019 08:50:00 17.1 C 12.66 g/m*3 17.1 C 0 km/h
1260 22-07-2019 08:55:00 17.2 C 12.74 g/m*3 17.2 C 0 km/h
1261 22-07-2019 09:00:00 17.3 C 12.82 g/m*3 17.3 C 0 km/h
1262 22-07-2019 09:05:00 17.4 C 12.75 g/m*3 17.4 C 0 km/h
1263 22-07-2019 09:10:00 17.6 C 12.75 g/m*3 17.6 C 0 km/h
1264 22-07-2019 09:15:00 17.7 C 12.98 g/m*3 17.7 C 0 km/h
1265 22-07-2019 09:20:00 17.9 C 12.98 g/m*3 17.9 C 0 km/h
1266 22-07-2019 09:25:00 18.1 C 12.82 g/m*3 18.1 C 0 km/h
1267 22-07-2019 09:30:00 18.3 C 12.98 g/m*3 18.3 C 0 km/h
1268 22-07-2019 09:35:00 18.6 C 13.05 g/m*3 18.6 C 0 km/h
1269 22-07-2019 09:40:00 18.8 C 13.37 g/m*3 18.8 C 0 km/h
1270 22-07-2019 09:45:00 18.8 C 13.21 g/m*3 18.8 C 0 km/h
1271 22-07-2019 09:50:00 18.9 C 13.45 g/m*3 18.9 C 0 km/h
1272 22-07-2019 09:55:00 19.1 C 13.44 g/m*3 19.1 C 0 km/h
1273 22-07-2019 10:00:00 19.3 C 13.6 g/m*3 19.3 C 0 km/h
1274 22-07-2019 10:05:00 19.5 C 13.59 g/m*3 19.5 C 0 km/h
1275 22-07-2019 10:10:00 19.7 C 13.41 g/m*3 19.7 C 0 km/h
Sensor: Nr:Datum:Temp:Abs-Feuchte:Windchill:Wind:
Aussen-T/F 1276 22-07-2019 10:15:00 19.8 C 13.15 g/m*3 19.8 C 0 km/h
1277 22-07-2019 10:20:00 20.2 C 13.29 g/m*3 20.2 C 0 km/h
1278 22-07-2019 10:25:00 20.6 C 13.6 g/m*3 20.6 C 0 km/h
1279 22-07-2019 10:30:00 20.8 C 13.58 g/m*3 20.8 C 0 km/h
1280 22-07-2019 10:35:00 21.2 C 13.34 g/m*3 21.2 C 0 km/h
1281 22-07-2019 10:40:00 21.6 C 13.47 g/m*3 21.6 C 0 km/h
1282 22-07-2019 10:45:00 22 C 13.97 g/m*3 22 C 0 km/h
1283 22-07-2019 10:50:00 22.3 C 13.23 g/m*3 22.3 C 0 km/h
1284 22-07-2019 10:55:00 22.7 C 12.73 g/m*3 22.7 C 0 km/h
1285 22-07-2019 11:00:00 23.1 C 12.4 g/m*3 23.1 C 0 km/h
1286 22-07-2019 11:05:00 23.3 C 12.75 g/m*3 23.3 C 0 km/h
1287 22-07-2019 11:10:00 23.4 C 12.62 g/m*3 23.4 C 3.2 km/h
1288 22-07-2019 11:15:00 23.6 C 12.97 g/m*3 23.6 C 6.4 km/h
1289 22-07-2019 11:20:00 23.7 C 12.62 g/m*3 23.7 C 4.8 km/h
1290 22-07-2019 11:25:00 23.8 C 12.69 g/m*3 23.8 C 4.8 km/h
1291 22-07-2019 11:30:00 24.1 C 12.69 g/m*3 24.1 C 8.1 km/h
1292 22-07-2019 11:35:00 24.3 C 12.61 g/m*3 24.3 C 9.7 km/h
1293 22-07-2019 11:40:00 24.4 C 12.46 g/m*3 24.4 C 6.4 km/h
1294 22-07-2019 11:45:00 24.6 C 12.6 g/m*3 24.6 C 6.4 km/h
1295 22-07-2019 11:50:00 24.8 C 12.52 g/m*3 24.8 C 4.8 km/h
1296 22-07-2019 11:55:00 25 C 12.43 g/m*3 25 C 8.1 km/h
1297 22-07-2019 12:00:00 25.1 C 12.5 g/m*3 25.1 C 11.3 km/h
1298 22-07-2019 12:05:00 25.3 C 12.41 g/m*3 25.3 C 11.3 km/h
1299 22-07-2019 12:10:00 25.3 C 12.41 g/m*3 25.3 C 11.3 km/h
1300 22-07-2019 12:15:00 25.3 C 12.41 g/m*3 25.3 C 11.3 km/h
Sensor: Nr:Datum:Temp:Abs-Feuchte:Windchill:Wind:
Aussen-T/F 1301 22-07-2019 12:20:00 25.4 C 12.48 g/m*3 25.4 C 6.4 km/h
1302 22-07-2019 12:25:00 25.4 C 12.48 g/m*3 25.4 C 4.8 km/h
1303 22-07-2019 12:30:00 25.5 C 12.55 g/m*3 25.5 C 6.4 km/h
1304 22-07-2019 12:35:00 25.7 C 12.69 g/m*3 25.7 C 6.4 km/h
1305 22-07-2019 12:40:00 25.9 C 12.59 g/m*3 25.9 C 8.1 km/h
1306 22-07-2019 12:45:00 25.9 C 12.59 g/m*3 25.9 C 8.1 km/h
1307 22-07-2019 12:50:00 25.9 C 12.35 g/m*3 25.9 C 12.9 km/h
1308 22-07-2019 12:55:00 26 C 12.42 g/m*3 26 C 11.3 km/h
1309 22-07-2019 13:00:00 26 C 12.42 g/m*3 26 C 9.7 km/h
1310 22-07-2019 13:05:00 26 C 12.42 g/m*3 26 C 3.2 km/h
1311 22-07-2019 13:10:00 26.1 C 12.49 g/m*3 26.1 C 8.1 km/h
1312 22-07-2019 13:15:00 26.2 C 12.56 g/m*3 26.2 C 9.7 km/h
1313 22-07-2019 13:20:00 26.2 C 12.31 g/m*3 26.2 C 8.1 km/h
1314 22-07-2019 13:25:00 26.3 C 12.63 g/m*3 26.3 C 8.1 km/h
1315 22-07-2019 13:30:00 26.3 C 12.63 g/m*3 26.3 C 9.7 km/h
1316 22-07-2019 13:35:00 26.4 C 12.45 g/m*3 26.4 C 8.1 km/h
1317 22-07-2019 13:40:00 26.6 C 12.59 g/m*3 26.6 C 6.4 km/h
1318 22-07-2019 13:45:00 26.7 C 12.66 g/m*3 26.7 C 6.4 km/h
1319 22-07-2019 13:50:00 27 C 12.61 g/m*3 27 C 6.4 km/h
1320 22-07-2019 13:55:00 27.2 C 12.23 g/m*3 27.2 C 11.3 km/h
1321 22-07-2019 14:00:00 27.2 C 12.49 g/m*3 27.2 C 1.6 km/h
1322 22-07-2019 14:05:00 27.3 C 12.3 g/m*3 27.3 C 8.1 km/h
1323 22-07-2019 14:10:00 27.4 C 12.1 g/m*3 27.4 C 9.7 km/h
1324 22-07-2019 14:15:00 27.7 C 12.3 g/m*3 27.7 C 8.1 km/h
1325 22-07-2019 14:20:00 27.7 C 12.04 g/m*3 27.7 C 6.4 km/h
Sensor: Nr:Datum:Temp:Abs-Feuchte:Windchill:Wind:
Aussen-T/F 1326 22-07-2019 14:25:00 27.7 C 12.04 g/m*3 27.7 C 6.4 km/h
1327 22-07-2019 14:30:00 27.7 C 12.04 g/m*3 27.7 C 1.6 km/h
1328 22-07-2019 14:35:00 27.8 C 12.64 g/m*3 27.8 C 6.4 km/h
1329 22-07-2019 14:40:00 28.1 C 12.58 g/m*3 28.1 C 8.1 km/h
1330 22-07-2019 14:45:00 28.3 C 12.44 g/m*3 28.3 C 9.7 km/h
1331 22-07-2019 14:50:00 28.2 C 12.37 g/m*3 28.2 C 8.1 km/h
1332 22-07-2019 14:55:00 28.2 C 12.1 g/m*3 28.2 C 9.7 km/h
1333 22-07-2019 15:00:00 28.3 C 12.44 g/m*3 28.3 C 11.3 km/h
1334 22-07-2019 15:05:00 28.4 C 12.51 g/m*3 28.4 C 11.3 km/h
1335 22-07-2019 15:10:00 28.6 C 12.65 g/m*3 28.6 C 11.3 km/h
1336 22-07-2019 15:15:00 28.8 C 12.5 g/m*3 28.8 C 11.3 km/h
1337 22-07-2019 15:20:00 28.9 C 12.57 g/m*3 28.9 C 8.1 km/h
1338 22-07-2019 15:25:00 29.1 C 12.13 g/m*3 29.1 C 11.3 km/h
1339 22-07-2019 15:30:00 29.2 C 12.2 g/m*3 29.2 C 11.3 km/h
1340 22-07-2019 15:35:00 29.1 C 12.13 g/m*3 29.1 C 8.1 km/h
1341 22-07-2019 15:40:00 29.2 C 12.78 g/m*3 29.2 C 8.1 km/h
1342 22-07-2019 15:45:00 29.4 C 12.33 g/m*3 29.4 C 8.1 km/h
1343 22-07-2019 15:50:00 29.7 C 12.23 g/m*3 29.7 C 8.1 km/h
1344 22-07-2019 15:55:00 29.9 C 12.37 g/m*3 29.9 C 6.4 km/h
1345 22-07-2019 16:00:00 30.2 C 12.57 g/m*3 30.2 C 4.8 km/h
1346 22-07-2019 16:05:00 30.4 C 12.08 g/m*3 30.4 C 11.3 km/h
1347 22-07-2019 16:10:00 30.7 C 12.6 g/m*3 30.7 C 12.9 km/h
1348 22-07-2019 16:15:00 30.8 C 12.35 g/m*3 30.8 C 8.1 km/h
1349 22-07-2019 16:20:00 30.9 C 12.1 g/m*3 30.9 C 12.9 km/h
1350 22-07-2019 16:25:00 30.8 C 12.35 g/m*3 30.8 C 14.5 km/h
Sensor: Nr:Datum:Temp:Abs-Feuchte:Windchill:Wind:
Aussen-T/F 1351 22-07-2019 16:30:00 30.9 C 12.1 g/m*3 30.9 C 12.9 km/h
1352 22-07-2019 16:35:00 30.8 C 12.03 g/m*3 30.8 C 11.3 km/h
1353 22-07-2019 16:40:00 30.7 C 12.28 g/m*3 30.7 C 9.7 km/h
1354 22-07-2019 16:45:00 31 C 12.48 g/m*3 31 C 11.3 km/h
1355 22-07-2019 16:50:00 31.2 C 12.29 g/m*3 31.2 C 9.7 km/h
1356 22-07-2019 16:55:00 31.3 C 12.03 g/m*3 31.3 C 9.7 km/h
1357 22-07-2019 17:00:00 31.4 C 12.42 g/m*3 31.4 C 9.7 km/h
1358 22-07-2019 17:05:00 31.6 C 12.23 g/m*3 31.6 C 4.8 km/h
1359 22-07-2019 17:10:00 31.3 C 12.03 g/m*3 31.3 C 12.9 km/h
1360 22-07-2019 17:15:00 31.2 C 11.97 g/m*3 31.2 C 8.1 km/h
1361 22-07-2019 17:20:00 31.2 C 11.97 g/m*3 31.2 C 6.4 km/h
1362 22-07-2019 17:25:00 31.3 C 12.03 g/m*3 31.3 C 8.1 km/h
1363 22-07-2019 17:30:00 31.3 C 12.03 g/m*3 31.3 C 8.1 km/h
1364 22-07-2019 17:35:00 31.4 C 12.1 g/m*3 31.4 C 11.3 km/h
1365 22-07-2019 17:40:00 31.7 C 12.29 g/m*3 31.7 C 9.7 km/h
1366 22-07-2019 17:45:00 31.8 C 12.02 g/m*3 31.8 C 4.8 km/h
1367 22-07-2019 17:50:00 31.9 C 12.09 g/m*3 31.9 C 4.8 km/h
1368 22-07-2019 17:55:00 32.1 C 12.22 g/m*3 32.1 C 4.8 km/h
1369 22-07-2019 18:00:00 32.1 C 11.88 g/m*3 32.1 C 9.7 km/h
1370 22-07-2019 18:05:00 32 C 12.15 g/m*3 32 C 9.7 km/h
1371 22-07-2019 18:10:00 32 C 12.15 g/m*3 32 C 11.3 km/h
1372 22-07-2019 18:15:00 32.1 C 12.22 g/m*3 32.1 C 6.4 km/h
1373 22-07-2019 18:20:00 32.1 C 12.22 g/m*3 32.1 C 9.7 km/h
1374 22-07-2019 18:25:00 32.2 C 12.28 g/m*3 32.2 C 4.8 km/h
1375 22-07-2019 18:30:00 32.3 C 12.01 g/m*3 32.3 C 3.2 km/h
Sensor: Nr:Datum:Temp:Abs-Feuchte:Windchill:Wind:
Aussen-T/F 1376 22-07-2019 18:35:00 32.3 C 12.01 g/m*3 32.3 C 3.2 km/h
1377 22-07-2019 18:40:00 32.6 C 12.2 g/m*3 32.6 C 1.6 km/h
1378 22-07-2019 18:45:00 32.7 C 12.26 g/m*3 32.7 C 3.2 km/h
1379 22-07-2019 18:50:00 32.8 C 11.98 g/m*3 32.8 C 6.4 km/h
1380 22-07-2019 18:55:00 32.6 C 12.2 g/m*3 32.6 C 9.7 km/h
1381 22-07-2019 19:00:00 32.3 C 12.35 g/m*3 32.3 C 6.4 km/h
1382 22-07-2019 19:05:00 32.3 C 12.01 g/m*3 32.3 C 6.4 km/h
1383 22-07-2019 19:10:00 32.2 C 11.6 g/m*3 32.2 C 8.1 km/h
1384 22-07-2019 19:15:00 32 C 11.82 g/m*3 32 C 6.4 km/h
1385 22-07-2019 19:20:00 31.9 C 11.75 g/m*3 31.9 C 3.2 km/h
1386 22-07-2019 19:25:00 31.9 C 12.09 g/m*3 31.9 C 6.4 km/h
1387 22-07-2019 19:30:00 31.7 C 11.96 g/m*3 31.7 C 11.3 km/h
1388 22-07-2019 19:35:00 31.2 C 11.97 g/m*3 31.2 C 9.7 km/h
1389 22-07-2019 19:40:00 30.8 C 11.71 g/m*3 30.8 C 8.1 km/h
1390 22-07-2019 19:45:00 30.7 C 11.97 g/m*3 30.7 C 6.4 km/h
1391 22-07-2019 19:50:00 30.4 C 11.77 g/m*3 30.4 C 6.4 km/h
1392 22-07-2019 19:55:00 30.3 C 12.02 g/m*3 30.3 C 9.7 km/h
1393 22-07-2019 20:00:00 30.2 C 12.26 g/m*3 30.2 C 6.4 km/h
1394 22-07-2019 20:05:00 30.1 C 12.2 g/m*3 30.1 C 4.8 km/h
1395 22-07-2019 20:10:00 30 C 12.13 g/m*3 30 C 4.8 km/h
1396 22-07-2019 20:15:00 29.9 C 12.06 g/m*3 29.9 C 8.1 km/h
1397 22-07-2019 20:20:00 29.8 C 12 g/m*3 29.8 C 6.4 km/h
1398 22-07-2019 20:25:00 29.7 C 12.53 g/m*3 29.7 C 8.1 km/h
1399 22-07-2019 20:30:00 29.4 C 12.33 g/m*3 29.4 C 9.7 km/h
1400 22-07-2019 20:35:00 29.3 C 12.55 g/m*3 29.3 C 4.8 km/h
Sensor: Nr:Datum:Temp:Abs-Feuchte:Windchill:Wind:
Aussen-T/F 1401 22-07-2019 20:40:00 29.1 C 12.71 g/m*3 29.1 C 11.3 km/h
1402 22-07-2019 20:45:00 28.8 C 12.79 g/m*3 28.8 C 6.4 km/h
1403 22-07-2019 20:50:00 28.6 C 13.49 g/m*3 28.6 C 3.2 km/h
1404 22-07-2019 20:55:00 28.2 C 14.02 g/m*3 28.2 C 4.8 km/h
1405 22-07-2019 21:00:00 27.9 C 13.79 g/m*3 27.9 C 0 km/h
1406 22-07-2019 21:05:00 27.4 C 13.68 g/m*3 27.4 C 0 km/h
1407 22-07-2019 21:10:00 26.9 C 13.56 g/m*3 26.9 C 0 km/h
1408 22-07-2019 21:15:00 26.4 C 13.69 g/m*3 26.4 C 0 km/h
1409 22-07-2019 21:20:00 26 C 13.63 g/m*3 26 C 0 km/h
1410 22-07-2019 21:25:00 25.6 C 13.57 g/m*3 25.6 C 0 km/h
1411 22-07-2019 21:30:00 25.2 C 13.27 g/m*3 25.2 C 0 km/h
1412 22-07-2019 21:35:00 24.8 C 13.2 g/m*3 24.8 C 0 km/h
1413 22-07-2019 21:40:00 24.6 C 13.05 g/m*3 24.6 C 0 km/h
1414 22-07-2019 21:45:00 24.3 C 13.28 g/m*3 24.3 C 0 km/h
1415 22-07-2019 21:50:00 24.1 C 13.13 g/m*3 24.1 C 0 km/h
1416 22-07-2019 21:55:00 23.9 C 13.2 g/m*3 23.9 C 0 km/h
1417 22-07-2019 22:00:00 23.7 C 13.05 g/m*3 23.7 C 0 km/h
1418 22-07-2019 22:05:00 23.6 C 12.97 g/m*3 23.6 C 0 km/h
1419 22-07-2019 22:10:00 23.4 C 13.04 g/m*3 23.4 C 0 km/h
1420 22-07-2019 22:15:00 23.3 C 12.96 g/m*3 23.3 C 0 km/h
1421 22-07-2019 22:20:00 23.1 C 12.82 g/m*3 23.1 C 0 km/h
1422 22-07-2019 22:25:00 22.9 C 12.88 g/m*3 22.9 C 0 km/h
1423 22-07-2019 22:30:00 22.8 C 13 g/m*3 22.8 C 0 km/h
1424 22-07-2019 22:35:00 22.6 C 13.06 g/m*3 22.6 C 0 km/h
1425 22-07-2019 22:40:00 22.4 C 13.11 g/m*3 22.4 C 0 km/h
Sensor: Nr:Datum:Temp:Abs-Feuchte:Windchill:Wind:
Aussen-T/F 1426 22-07-2019 22:45:00 22.3 C 13.03 g/m*3 22.3 C 0 km/h
1427 22-07-2019 22:50:00 22.1 C 12.88 g/m*3 22.1 C 0 km/h
1428 22-07-2019 22:55:00 22 C 12.81 g/m*3 22 C 0 km/h
1429 22-07-2019 23:00:00 21.9 C 12.93 g/m*3 21.9 C 0 km/h
1430 22-07-2019 23:05:00 21.7 C 12.97 g/m*3 21.7 C 0 km/h
1431 22-07-2019 23:10:00 21.4 C 12.94 g/m*3 21.4 C 0 km/h
1432 22-07-2019 23:15:00 21.2 C 12.97 g/m*3 21.2 C 0 km/h
1433 22-07-2019 23:20:00 21.1 C 12.9 g/m*3 21.1 C 0 km/h
1434 22-07-2019 23:25:00 21 C 13.01 g/m*3 21 C 0 km/h
1435 22-07-2019 23:30:00 20.8 C 13.04 g/m*3 20.8 C 0 km/h
1436 22-07-2019 23:35:00 20.7 C 12.96 g/m*3 20.7 C 0 km/h
1437 22-07-2019 23:40:00 20.5 C 12.81 g/m*3 20.5 C 0 km/h
1438 22-07-2019 23:45:00 20.4 C 12.91 g/m*3 20.4 C 0 km/h
1439 22-07-2019 23:50:00 20.3 C 13.01 g/m*3 20.3 C 0 km/h
1440 22-07-2019 23:55:00 20.1 C 12.86 g/m*3 20.1 C 0 km/h
1441 23-07-2019 00:00:00 20 C 12.96 g/m*3 20 C 0 km/h
1442 23-07-2019 00:05:00 19.8 C 12.81 g/m*3 19.8 C 0 km/h
1443 23-07-2019 00:10:00 19.8 C 12.81 g/m*3 19.8 C 0 km/h
1444 23-07-2019 00:15:00 19.6 C 12.66 g/m*3 19.6 C 0 km/h
1445 23-07-2019 00:20:00 19.5 C 12.75 g/m*3 19.5 C 0 km/h
1446 23-07-2019 00:25:00 19.4 C 12.68 g/m*3 19.4 C 0 km/h
1447 23-07-2019 00:30:00 19.3 C 12.61 g/m*3 19.3 C 0 km/h
1448 23-07-2019 00:35:00 19.2 C 12.7 g/m*3 19.2 C 0 km/h
1449 23-07-2019 00:40:00 19.2 C 12.7 g/m*3 19.2 C 0 km/h
1450 23-07-2019 00:45:00 19.1 C 12.62 g/m*3 19.1 C 0 km/h
Sensor: Nr:Datum:Temp:Abs-Feuchte:Windchill:Wind:
Aussen-T/F 1451 23-07-2019 00:50:00 19 C 12.71 g/m*3 19 C 0 km/h
1452 23-07-2019 00:55:00 18.9 C 12.64 g/m*3 18.9 C 0 km/h
1453 23-07-2019 01:00:00 18.8 C 12.56 g/m*3 18.8 C 0 km/h
1454 23-07-2019 01:05:00 18.8 C 12.56 g/m*3 18.8 C 0 km/h
1455 23-07-2019 01:10:00 18.7 C 12.65 g/m*3 18.7 C 0 km/h
1456 23-07-2019 01:15:00 18.6 C 12.57 g/m*3 18.6 C 0 km/h
1457 23-07-2019 01:20:00 18.5 C 12.66 g/m*3 18.5 C 0 km/h
1458 23-07-2019 01:25:00 18.4 C 12.58 g/m*3 18.4 C 0 km/h
1459 23-07-2019 01:30:00 18.3 C 12.51 g/m*3 18.3 C 0 km/h
1460 23-07-2019 01:35:00 18.2 C 12.43 g/m*3 18.2 C 0 km/h
1461 23-07-2019 01:40:00 18.2 C 12.59 g/m*3 18.2 C 0 km/h
1462 23-07-2019 01:45:00 18.1 C 12.52 g/m*3 18.1 C 0 km/h
1463 23-07-2019 01:50:00 18 C 12.44 g/m*3 18 C 0 km/h
1464 23-07-2019 01:55:00 17.9 C 12.37 g/m*3 17.9 C 0 km/h
1465 23-07-2019 02:00:00 17.9 C 12.37 g/m*3 17.9 C 0 km/h
1466 23-07-2019 02:05:00 17.8 C 12.45 g/m*3 17.8 C 0 km/h
1467 23-07-2019 02:10:00 17.8 C 12.45 g/m*3 17.8 C 0 km/h
1468 23-07-2019 02:15:00 17.7 C 12.37 g/m*3 17.7 C 0 km/h
1469 23-07-2019 02:20:00 17.7 C 12.37 g/m*3 17.7 C 0 km/h
1470 23-07-2019 02:25:00 17.6 C 12.3 g/m*3 17.6 C 0 km/h
1471 23-07-2019 02:30:00 17.5 C 12.37 g/m*3 17.5 C 0 km/h
1472 23-07-2019 02:35:00 17.4 C 12.3 g/m*3 17.4 C 0 km/h
1473 23-07-2019 02:40:00 17.4 C 12.3 g/m*3 17.4 C 0 km/h
1474 23-07-2019 02:45:00 17.3 C 12.23 g/m*3 17.3 C 0 km/h
1475 23-07-2019 02:50:00 17.3 C 12.23 g/m*3 17.3 C 0 km/h
Sensor: Nr:Datum:Temp:Abs-Feuchte:Windchill:Wind:
Aussen-T/F 1476 23-07-2019 02:55:00 17.3 C 12.37 g/m*3 17.3 C 0 km/h
1477 23-07-2019 03:00:00 17.2 C 12.3 g/m*3 17.2 C 0 km/h
1478 23-07-2019 03:05:00 17.1 C 12.23 g/m*3 17.1 C 0 km/h
1479 23-07-2019 03:10:00 16.9 C 12.08 g/m*3 16.9 C 0 km/h
1480 23-07-2019 03:15:00 16.9 C 12.23 g/m*3 16.9 C 0 km/h
1481 23-07-2019 03:20:00 16.9 C 12.23 g/m*3 16.9 C 0 km/h
1482 23-07-2019 03:25:00 16.9 C 12.23 g/m*3 16.9 C 0 km/h
1483 23-07-2019 03:30:00 16.8 C 12.15 g/m*3 16.8 C 0 km/h
1484 23-07-2019 03:35:00 16.8 C 12.15 g/m*3 16.8 C 0 km/h
1485 23-07-2019 03:40:00 16.7 C 12.22 g/m*3 16.7 C 0 km/h
1486 23-07-2019 03:45:00 16.7 C 12.22 g/m*3 16.7 C 0 km/h
1487 23-07-2019 03:50:00 16.6 C 12.15 g/m*3 16.6 C 0 km/h
1488 23-07-2019 03:55:00 16.6 C 12.15 g/m*3 16.6 C 0 km/h
1489 23-07-2019 04:00:00 16.6 C 12.15 g/m*3 16.6 C 0 km/h
1490 23-07-2019 04:05:00 16.5 C 12.22 g/m*3 16.5 C 0 km/h
1491 23-07-2019 04:10:00 16.4 C 12.14 g/m*3 16.4 C 0 km/h
1492 23-07-2019 04:15:00 16.4 C 12.14 g/m*3 16.4 C 0 km/h
1493 23-07-2019 04:20:00 16.3 C 12.07 g/m*3 16.3 C 0 km/h
1494 23-07-2019 04:25:00 16.3 C 12.07 g/m*3 16.3 C 0 km/h
1495 23-07-2019 04:30:00 16.2 C 12.14 g/m*3 16.2 C 0 km/h
1496 23-07-2019 04:35:00 16.2 C 12.14 g/m*3 16.2 C 0 km/h
1497 23-07-2019 04:40:00 16.2 C 12.14 g/m*3 16.2 C 0 km/h
1498 23-07-2019 04:45:00 16.2 C 12.14 g/m*3 16.2 C 0 km/h
1499 23-07-2019 04:50:00 16.1 C 12.06 g/m*3 16.1 C 0 km/h
1500 23-07-2019 04:55:00 16.1 C 12.06 g/m*3 16.1 C 0 km/h
Sensor: Nr:Datum:Temp:Abs-Feuchte:Windchill:Wind:
Aussen-T/F 1501 23-07-2019 05:00:00 16.1 C 12.06 g/m*3 16.1 C 0 km/h
1502 23-07-2019 05:05:00 16 C 12.13 g/m*3 16 C 0 km/h
1503 23-07-2019 05:10:00 16 C 12.13 g/m*3 16 C 0 km/h
1504 23-07-2019 05:15:00 15.9 C 12.05 g/m*3 15.9 C 0 km/h
1505 23-07-2019 05:20:00 15.9 C 12.05 g/m*3 15.9 C 0 km/h
1506 23-07-2019 05:25:00 15.8 C 11.98 g/m*3 15.8 C 0 km/h
1507 23-07-2019 05:30:00 15.8 C 11.98 g/m*3 15.8 C 0 km/h
1508 23-07-2019 05:35:00 15.8 C 11.98 g/m*3 15.8 C 0 km/h
1509 23-07-2019 05:40:00 15.7 C 11.91 g/m*3 15.7 C 0 km/h
1510 23-07-2019 05:45:00 15.7 C 11.91 g/m*3 15.7 C 0 km/h
1511 23-07-2019 05:50:00 15.6 C 11.97 g/m*3 15.6 C 0 km/h
1512 23-07-2019 05:55:00 15.6 C 11.97 g/m*3 15.6 C 0 km/h
1513 23-07-2019 06:00:00 15.6 C 11.97 g/m*3 15.6 C 0 km/h
1514 23-07-2019 06:05:00 15.6 C 11.97 g/m*3 15.6 C 0 km/h
1515 23-07-2019 06:10:00 15.6 C 12.1 g/m*3 15.6 C 0 km/h
1516 23-07-2019 06:15:00 15.6 C 12.1 g/m*3 15.6 C 0 km/h
1517 23-07-2019 06:20:00 15.6 C 12.1 g/m*3 15.6 C 0 km/h
1518 23-07-2019 06:25:00 15.6 C 12.1 g/m*3 15.6 C 0 km/h
1519 23-07-2019 06:30:00 15.7 C 12.18 g/m*3 15.7 C 0 km/h
1520 23-07-2019 06:35:00 15.7 C 12.18 g/m*3 15.7 C 0 km/h
1521 23-07-2019 06:40:00 15.7 C 12.18 g/m*3 15.7 C 0 km/h
1522 23-07-2019 06:45:00 15.7 C 12.18 g/m*3 15.7 C 0 km/h
1523 23-07-2019 06:50:00 15.7 C 12.18 g/m*3 15.7 C 0 km/h
1524 23-07-2019 06:55:00 15.8 C 12.25 g/m*3 15.8 C 0 km/h
1525 23-07-2019 07:00:00 15.8 C 12.25 g/m*3 15.8 C 0 km/h
Sensor: Nr:Datum:Temp:Abs-Feuchte:Windchill:Wind:
Aussen-T/F 1526 23-07-2019 07:05:00 15.9 C 12.32 g/m*3 15.9 C 0 km/h
1527 23-07-2019 07:10:00 16 C 12.4 g/m*3 16 C 0 km/h
1528 23-07-2019 07:15:00 16.1 C 12.47 g/m*3 16.1 C 0 km/h
1529 23-07-2019 07:20:00 16.1 C 12.47 g/m*3 16.1 C 0 km/h
1530 23-07-2019 07:25:00 16.1 C 12.47 g/m*3 16.1 C 0 km/h
1531 23-07-2019 07:30:00 16.1 C 12.47 g/m*3 16.1 C 0 km/h
1532 23-07-2019 07:35:00 16.2 C 12.55 g/m*3 16.2 C 0 km/h
1533 23-07-2019 07:40:00 16.2 C 12.55 g/m*3 16.2 C 0 km/h
1534 23-07-2019 07:45:00 16.2 C 12.55 g/m*3 16.2 C 0 km/h
1535 23-07-2019 07:50:00 16.3 C 12.62 g/m*3 16.3 C 0 km/h
1536 23-07-2019 07:55:00 16.3 C 12.62 g/m*3 16.3 C 0 km/h
1537 23-07-2019 08:00:00 16.4 C 12.7 g/m*3 16.4 C 0 km/h
1538 23-07-2019 08:05:00 16.4 C 12.7 g/m*3 16.4 C 0 km/h
1539 23-07-2019 08:10:00 16.5 C 12.78 g/m*3 16.5 C 0 km/h
1540 23-07-2019 08:15:00 16.6 C 12.86 g/m*3 16.6 C 0 km/h
1541 23-07-2019 08:20:00 16.7 C 12.93 g/m*3 16.7 C 0 km/h
1542 23-07-2019 08:25:00 16.7 C 12.93 g/m*3 16.7 C 0 km/h
1543 23-07-2019 08:30:00 16.8 C 13.01 g/m*3 16.8 C 0 km/h
1544 23-07-2019 08:35:00 16.9 C 12.94 g/m*3 16.9 C 0 km/h
1545 23-07-2019 08:40:00 17.1 C 13.1 g/m*3 17.1 C 0 km/h
1546 23-07-2019 08:45:00 17.2 C 13.18 g/m*3 17.2 C 0 km/h
1547 23-07-2019 08:50:00 17.3 C 13.26 g/m*3 17.3 C 0 km/h
1548 23-07-2019 08:55:00 17.4 C 13.34 g/m*3 17.4 C 0 km/h
1549 23-07-2019 09:00:00 17.6 C 13.5 g/m*3 17.6 C 0 km/h
1550 23-07-2019 09:05:00 17.7 C 13.43 g/m*3 17.7 C 0 km/h
Sensor: Nr:Datum:Temp:Abs-Feuchte:Windchill:Wind:
Aussen-T/F 1551 23-07-2019 09:10:00 17.8 C 13.51 g/m*3 17.8 C 0 km/h
1552 23-07-2019 09:15:00 18.1 C 13.75 g/m*3 18.1 C 0 km/h
1553 23-07-2019 09:20:00 18.3 C 13.76 g/m*3 18.3 C 0 km/h
1554 23-07-2019 09:25:00 18.6 C 14.01 g/m*3 18.6 C 0 km/h
1555 23-07-2019 09:30:00 18.8 C 14.01 g/m*3 18.8 C 0 km/h
1556 23-07-2019 09:35:00 19 C 14.18 g/m*3 19 C 0 km/h
1557 23-07-2019 09:40:00 19.2 C 14.18 g/m*3 19.2 C 0 km/h
1558 23-07-2019 09:45:00 19.5 C 14.27 g/m*3 19.5 C 0 km/h
1559 23-07-2019 09:50:00 19.8 C 14.35 g/m*3 19.8 C 0 km/h
1560 23-07-2019 09:55:00 20.1 C 14.43 g/m*3 20.1 C 0 km/h
1561 23-07-2019 10:00:00 20.4 C 14.68 g/m*3 20.4 C 0 km/h
1562 23-07-2019 10:05:00 20.7 C 14.58 g/m*3 20.7 C 0 km/h
1563 23-07-2019 10:10:00 21.1 C 14.74 g/m*3 21.1 C 0 km/h
1564 23-07-2019 10:15:00 21.3 C 14.73 g/m*3 21.3 C 0 km/h
1565 23-07-2019 10:20:00 21.6 C 14.98 g/m*3 21.6 C 0 km/h
1566 23-07-2019 10:25:00 21.9 C 14.86 g/m*3 21.9 C 0 km/h
1567 23-07-2019 10:30:00 22.3 C 15.2 g/m*3 22.3 C 0 km/h
1568 23-07-2019 10:35:00 22.7 C 15.36 g/m*3 22.7 C 0 km/h
1569 23-07-2019 10:40:00 23.2 C 15.18 g/m*3 23.2 C 0 km/h
1570 23-07-2019 10:45:00 23.8 C 14.2 g/m*3 23.8 C 8.1 km/h
1571 23-07-2019 10:50:00 24.8 C 15.02 g/m*3 24.8 C 8.1 km/h
1572 23-07-2019 10:55:00 25.3 C 14.75 g/m*3 25.3 C 3.2 km/h
1573 23-07-2019 11:00:00 25.6 C 14.52 g/m*3 25.6 C 3.2 km/h
1574 23-07-2019 11:05:00 25.9 C 14.04 g/m*3 25.9 C 4.8 km/h
1575 23-07-2019 11:10:00 26.4 C 14.19 g/m*3 26.4 C 6.4 km/h
Sensor: Nr:Datum:Temp:Abs-Feuchte:Windchill:Wind:
Aussen-T/F 1576 23-07-2019 11:15:00 26.9 C 14.59 g/m*3 26.9 C 6.4 km/h
1577 23-07-2019 11:20:00 27.1 C 14.75 g/m*3 27.1 C 3.2 km/h
1578 23-07-2019 11:25:00 27.1 C 13.72 g/m*3 27.1 C 4.8 km/h
1579 23-07-2019 11:30:00 27.4 C 13.94 g/m*3 27.4 C 6.4 km/h
1580 23-07-2019 11:35:00 27.8 C 13.72 g/m*3 27.8 C 9.7 km/h
1581 23-07-2019 11:40:00 28.1 C 13.4 g/m*3 28.1 C 9.7 km/h
1582 23-07-2019 11:45:00 28.4 C 13.34 g/m*3 28.4 C 9.7 km/h
1583 23-07-2019 11:50:00 28.7 C 13.28 g/m*3 28.7 C 11.3 km/h
1584 23-07-2019 11:55:00 28.8 C 13.92 g/m*3 28.8 C 11.3 km/h
1585 23-07-2019 12:00:00 28.9 C 13.43 g/m*3 28.9 C 9.7 km/h
1586 23-07-2019 12:05:00 29.1 C 13 g/m*3 29.1 C 11.3 km/h
1587 23-07-2019 12:10:00 29.2 C 13.36 g/m*3 29.2 C 11.3 km/h
1588 23-07-2019 12:15:00 29.3 C 13.14 g/m*3 29.3 C 8.1 km/h
1589 23-07-2019 12:20:00 29.4 C 13.5 g/m*3 29.4 C 6.4 km/h
1590 23-07-2019 12:25:00 29.5 C 12.99 g/m*3 29.5 C 12.9 km/h
1591 23-07-2019 12:30:00 29.6 C 13.06 g/m*3 29.6 C 8.1 km/h
1592 23-07-2019 12:35:00 29.8 C 12.6 g/m*3 29.8 C 9.7 km/h
1593 23-07-2019 12:40:00 29.9 C 12.97 g/m*3 29.9 C 14.5 km/h
1594 23-07-2019 12:45:00 30 C 12.74 g/m*3 30 C 16.1 km/h
1595 23-07-2019 12:50:00 30.2 C 13.18 g/m*3 30.2 C 16.1 km/h
1596 23-07-2019 12:55:00 30.2 C 12.57 g/m*3 30.2 C 14.5 km/h
1597 23-07-2019 13:00:00 30.3 C 12.64 g/m*3 30.3 C 11.3 km/h
1598 23-07-2019 13:05:00 30.3 C 12.94 g/m*3 30.3 C 9.7 km/h
1599 23-07-2019 13:10:00 30.4 C 12.7 g/m*3 30.4 C 11.3 km/h
1600 23-07-2019 13:15:00 30.6 C 12.53 g/m*3 30.6 C 9.7 km/h
Sensor: Nr:Datum:Temp:Abs-Feuchte:Windchill:Wind:
Aussen-T/F 1601 23-07-2019 13:20:00 30.6 C 12.53 g/m*3 30.6 C 4.8 km/h
1602 23-07-2019 13:25:00 30.7 C 12.6 g/m*3 30.7 C 8.1 km/h
1603 23-07-2019 13:30:00 30.8 C 12.66 g/m*3 30.8 C 9.7 km/h
1604 23-07-2019 13:35:00 30.9 C 12.41 g/m*3 30.9 C 20.9 km/h
1605 23-07-2019 13:40:00 31.1 C 12.23 g/m*3 31.1 C 20.9 km/h
1606 23-07-2019 13:45:00 31.2 C 12.94 g/m*3 31.2 C 6.4 km/h
1607 23-07-2019 13:50:00 31.2 C 12.94 g/m*3 31.2 C 6.4 km/h
1608 23-07-2019 13:55:00 31.3 C 12.36 g/m*3 31.3 C 4.8 km/h
1609 23-07-2019 14:00:00 31.3 C 12.68 g/m*3 31.3 C 1.6 km/h
1610 23-07-2019 14:05:00 31.4 C 12.42 g/m*3 31.4 C 4.8 km/h
1611 23-07-2019 14:10:00 31.7 C 12.96 g/m*3 31.7 C 11.3 km/h
1612 23-07-2019 14:15:00 31.9 C 12.76 g/m*3 31.9 C 11.3 km/h
1613 23-07-2019 14:20:00 32.1 C 12.9 g/m*3 32.1 C 9.7 km/h
1614 23-07-2019 14:25:00 32.2 C 12.62 g/m*3 32.2 C 9.7 km/h
1615 23-07-2019 14:30:00 32.3 C 12.35 g/m*3 32.3 C 14.5 km/h
1616 23-07-2019 14:35:00 32.3 C 12.35 g/m*3 32.3 C 12.9 km/h
1617 23-07-2019 14:40:00 32.4 C 12.41 g/m*3 32.4 C 11.3 km/h
1618 23-07-2019 14:45:00 32.5 C 12.48 g/m*3 32.5 C 6.4 km/h
1619 23-07-2019 14:50:00 32.6 C 12.9 g/m*3 32.6 C 6.4 km/h
1620 23-07-2019 14:55:00 32.7 C 12.61 g/m*3 32.7 C 8.1 km/h
1621 23-07-2019 15:00:00 32.8 C 13.03 g/m*3 32.8 C 8.1 km/h
1622 23-07-2019 15:05:00 33.1 C 13.6 g/m*3 33.1 C 9.7 km/h
1623 23-07-2019 15:10:00 33.2 C 13.31 g/m*3 33.2 C 8.1 km/h
1624 23-07-2019 15:15:00 33.4 C 13.09 g/m*3 33.4 C 12.9 km/h
1625 23-07-2019 15:20:00 33.6 C 13.23 g/m*3 33.6 C 6.4 km/h
Sensor: Nr:Datum:Temp:Abs-Feuchte:Windchill:Wind:
Aussen-T/F 1626 23-07-2019 15:25:00 33.8 C 12.62 g/m*3 33.8 C 9.7 km/h
1627 23-07-2019 15:30:00 33.8 C 12.62 g/m*3 33.8 C 8.1 km/h
1628 23-07-2019 15:35:00 34 C 12.76 g/m*3 34 C 6.4 km/h
1629 23-07-2019 15:40:00 34.4 C 13.03 g/m*3 34.4 C 9.7 km/h
1630 23-07-2019 15:45:00 34.7 C 13.23 g/m*3 34.7 C 11.3 km/h
1631 23-07-2019 15:50:00 34.9 C 12.98 g/m*3 34.9 C 4.8 km/h
1632 23-07-2019 15:55:00 35.2 C 13.58 g/m*3 35.2 C 9.7 km/h
1633 23-07-2019 16:00:00 35.5 C 12.98 g/m*3 35.5 C 4.8 km/h
1634 23-07-2019 16:05:00 35.6 C 13.05 g/m*3 35.6 C 6.4 km/h
1635 23-07-2019 16:10:00 35.6 C 12.23 g/m*3 35.6 C 9.7 km/h
1636 23-07-2019 16:15:00 35.6 C 13.46 g/m*3 35.6 C 3.2 km/h
1637 23-07-2019 16:20:00 35.8 C 12.77 g/m*3 35.8 C 8.1 km/h
1638 23-07-2019 16:25:00 35.9 C 12.84 g/m*3 35.9 C 4.8 km/h
1639 23-07-2019 16:30:00 36.1 C 12.56 g/m*3 36.1 C 6.4 km/h
1640 23-07-2019 16:35:00 36 C 12.91 g/m*3 36 C 6.4 km/h
1641 23-07-2019 16:40:00 35.8 C 12.77 g/m*3 35.8 C 12.9 km/h
1642 23-07-2019 16:45:00 35.8 C 12.36 g/m*3 35.8 C 9.7 km/h
1643 23-07-2019 16:50:00 35.8 C 12.36 g/m*3 35.8 C 6.4 km/h
1644 23-07-2019 16:55:00 36.1 C 12.56 g/m*3 36.1 C 8.1 km/h
1645 23-07-2019 17:00:00 36.1 C 12.14 g/m*3 36.1 C 6.4 km/h
1646 23-07-2019 17:05:00 36.3 C 12.69 g/m*3 36.3 C 4.8 km/h
1647 23-07-2019 17:10:00 36.4 C 12.33 g/m*3 36.4 C 8.1 km/h
1648 23-07-2019 17:15:00 36.3 C 11.84 g/m*3 36.3 C 8.1 km/h
1649 23-07-2019 17:20:00 36.3 C 12.26 g/m*3 36.3 C 4.8 km/h
1650 23-07-2019 17:25:00 36.4 C 12.33 g/m*3 36.4 C 6.4 km/h
Sensor: Nr:Datum:Temp:Abs-Feuchte:Windchill:Wind:
Aussen-T/F 1651 23-07-2019 17:30:00 36.4 C 12.33 g/m*3 36.4 C 11.3 km/h
1652 23-07-2019 17:35:00 36.5 C 11.96 g/m*3 36.5 C 8.1 km/h
1653 23-07-2019 17:40:00 36.6 C 12.02 g/m*3 36.6 C 8.1 km/h
1654 23-07-2019 17:45:00 36.6 C 12.02 g/m*3 36.6 C 9.7 km/h
1655 23-07-2019 17:50:00 36.3 C 11.84 g/m*3 36.3 C 9.7 km/h
1656 23-07-2019 17:55:00 36.4 C 12.33 g/m*3 36.4 C 8.1 km/h
1657 23-07-2019 18:00:00 36.7 C 12.95 g/m*3 36.7 C 8.1 km/h
1658 23-07-2019 18:05:00 36.8 C 12.15 g/m*3 36.8 C 11.3 km/h
1659 23-07-2019 18:10:00 36.8 C 12.15 g/m*3 36.8 C 6.4 km/h
1660 23-07-2019 18:15:00 36.7 C 12.52 g/m*3 36.7 C 8.1 km/h
1661 23-07-2019 18:20:00 37 C 12.27 g/m*3 37 C 3.2 km/h
1662 23-07-2019 18:25:00 36.9 C 11.77 g/m*3 36.9 C 9.7 km/h
1663 23-07-2019 18:30:00 36.8 C 12.15 g/m*3 36.8 C 4.8 km/h
1664 23-07-2019 18:35:00 36.8 C 12.58 g/m*3 36.8 C 6.4 km/h
1665 23-07-2019 18:40:00 36.9 C 12.65 g/m*3 36.9 C 6.4 km/h
1666 23-07-2019 18:45:00 36.9 C 11.77 g/m*3 36.9 C 9.7 km/h
1667 23-07-2019 18:50:00 36.6 C 12.45 g/m*3 36.6 C 6.4 km/h
1668 23-07-2019 18:55:00 36.3 C 12.26 g/m*3 36.3 C 9.7 km/h
1669 23-07-2019 19:00:00 36.2 C 12.2 g/m*3 36.2 C 6.4 km/h
1670 23-07-2019 19:05:00 36.2 C 12.2 g/m*3 36.2 C 4.8 km/h
1671 23-07-2019 19:10:00 36.3 C 12.26 g/m*3 36.3 C 4.8 km/h
1672 23-07-2019 19:15:00 36.3 C 12.69 g/m*3 36.3 C 9.7 km/h
1673 23-07-2019 19:20:00 36.1 C 11.72 g/m*3 36.1 C 8.1 km/h
1674 23-07-2019 19:25:00 35.8 C 12.77 g/m*3 35.8 C 6.4 km/h
1675 23-07-2019 19:30:00 35.6 C 12.23 g/m*3 35.6 C 4.8 km/h
Sensor: Nr:Datum:Temp:Abs-Feuchte:Windchill:Wind:
Aussen-T/F 1676 23-07-2019 19:35:00 35.4 C 12.51 g/m*3 35.4 C 4.8 km/h
1677 23-07-2019 19:40:00 35.2 C 11.98 g/m*3 35.2 C 4.8 km/h
1678 23-07-2019 19:45:00 35 C 13.05 g/m*3 35 C 6.4 km/h
1679 23-07-2019 19:50:00 34.9 C 14.16 g/m*3 34.9 C 4.8 km/h
1680 23-07-2019 19:55:00 34.7 C 13.23 g/m*3 34.7 C 4.8 km/h
1681 23-07-2019 20:00:00 34.5 C 12.71 g/m*3 34.5 C 4.8 km/h
1682 23-07-2019 20:05:00 34.3 C 13.34 g/m*3 34.3 C 3.2 km/h
1683 23-07-2019 20:10:00 34.2 C 14.41 g/m*3 34.2 C 1.6 km/h
1684 23-07-2019 20:15:00 33.9 C 14.56 g/m*3 33.9 C 3.2 km/h
1685 23-07-2019 20:20:00 33.6 C 14.33 g/m*3 33.6 C 3.2 km/h
1686 23-07-2019 20:25:00 33.3 C 14.47 g/m*3 33.3 C 1.6 km/h
1687 23-07-2019 20:30:00 32.8 C 15.85 g/m*3 32.8 C 1.6 km/h
1688 23-07-2019 20:35:00 32.3 C 14.41 g/m*3 32.3 C 0 km/h
1689 23-07-2019 20:40:00 31.7 C 13.95 g/m*3 31.7 C 0 km/h
1690 23-07-2019 20:45:00 31.2 C 14.23 g/m*3 31.2 C 0 km/h
1691 23-07-2019 20:50:00 30.7 C 14.17 g/m*3 30.7 C 1.6 km/h
1692 23-07-2019 20:55:00 30.2 C 14.1 g/m*3 30.2 C 0 km/h
1693 23-07-2019 21:00:00 29.7 C 14.02 g/m*3 29.7 C 0 km/h
1694 23-07-2019 21:05:00 29.4 C 14.09 g/m*3 29.4 C 1.6 km/h
1695 23-07-2019 21:10:00 29.1 C 13.86 g/m*3 29.1 C 1.6 km/h
1696 23-07-2019 21:15:00 28.8 C 13.92 g/m*3 28.8 C 1.6 km/h
1697 23-07-2019 21:20:00 28.4 C 13.9 g/m*3 28.4 C 1.6 km/h
1698 23-07-2019 21:25:00 28.1 C 13.67 g/m*3 28.1 C 1.6 km/h
1699 23-07-2019 21:30:00 27.7 C 13.64 g/m*3 27.7 C 1.6 km/h
1700 23-07-2019 21:35:00 27.4 C 13.68 g/m*3 27.4 C 1.6 km/h
Sensor: Nr:Datum:Temp:Abs-Feuchte:Windchill:Wind:
Aussen-T/F 1701 23-07-2019 21:40:00 27.2 C 13.53 g/m*3 27.2 C 1.6 km/h
1702 23-07-2019 21:45:00 26.9 C 13.31 g/m*3 26.9 C 3.2 km/h
1703 23-07-2019 21:50:00 26.8 C 13.49 g/m*3 26.8 C 1.6 km/h
1704 23-07-2019 21:55:00 26.6 C 13.09 g/m*3 26.6 C 1.6 km/h
1705 23-07-2019 22:00:00 26.5 C 13.27 g/m*3 26.5 C 1.6 km/h
1706 23-07-2019 22:05:00 26.4 C 13.19 g/m*3 26.4 C 1.6 km/h
1707 23-07-2019 22:10:00 26.2 C 13.29 g/m*3 26.2 C 0 km/h
1708 23-07-2019 22:15:00 25.8 C 13.48 g/m*3 25.8 C 0 km/h
1709 23-07-2019 22:20:00 25.6 C 13.57 g/m*3 25.6 C 0 km/h
1710 23-07-2019 22:25:00 25.2 C 13.27 g/m*3 25.2 C 0 km/h
1711 23-07-2019 22:30:00 25 C 13.35 g/m*3 25 C 0 km/h
1712 23-07-2019 22:35:00 24.8 C 13.66 g/m*3 24.8 C 0 km/h
1713 23-07-2019 22:40:00 24.6 C 13.5 g/m*3 24.6 C 0 km/h
1714 23-07-2019 22:45:00 24.3 C 13.5 g/m*3 24.3 C 0 km/h
1715 23-07-2019 22:50:00 24.1 C 13.57 g/m*3 24.1 C 0 km/h
1716 23-07-2019 22:55:00 23.9 C 13.63 g/m*3 23.9 C 0 km/h
1717 23-07-2019 23:00:00 23.7 C 13.48 g/m*3 23.7 C 0 km/h
1718 23-07-2019 23:05:00 23.5 C 13.53 g/m*3 23.5 C 0 km/h
1719 23-07-2019 23:10:00 23.3 C 13.59 g/m*3 23.3 C 0 km/h
1720 23-07-2019 23:15:00 23.2 C 13.51 g/m*3 23.2 C 0 km/h
1721 23-07-2019 23:20:00 23.1 C 13.64 g/m*3 23.1 C 0 km/h
1722 23-07-2019 23:25:00 23 C 13.57 g/m*3 23 C 0 km/h
1723 23-07-2019 23:30:00 22.9 C 13.49 g/m*3 22.9 C 0 km/h
1724 23-07-2019 23:35:00 22.8 C 13.41 g/m*3 22.8 C 0 km/h
1725 23-07-2019 23:40:00 22.7 C 13.54 g/m*3 22.7 C 0 km/h
Sensor: Nr:Datum:Temp:Abs-Feuchte:Windchill:Wind:
Aussen-T/F 1726 23-07-2019 23:45:00 22.5 C 13.58 g/m*3 22.5 C 0 km/h
1727 23-07-2019 23:50:00 22.3 C 13.43 g/m*3 22.3 C 0 km/h
1728 23-07-2019 23:55:00 22.2 C 13.35 g/m*3 22.2 C 0 km/h
1729 24-07-2019 00:00:00 22.1 C 13.47 g/m*3 22.1 C 0 km/h
1730 24-07-2019 00:05:00 21.9 C 13.51 g/m*3 21.9 C 0 km/h
1731 24-07-2019 00:10:00 21.8 C 13.43 g/m*3 21.8 C 0 km/h
1732 24-07-2019 00:15:00 21.7 C 13.35 g/m*3 21.7 C 0 km/h
1733 24-07-2019 00:20:00 21.6 C 13.47 g/m*3 21.6 C 0 km/h
1734 24-07-2019 00:25:00 21.4 C 13.31 g/m*3 21.4 C 0 km/h
1735 24-07-2019 00:30:00 21.4 C 13.5 g/m*3 21.4 C 0 km/h
1736 24-07-2019 00:35:00 21.3 C 13.42 g/m*3 21.3 C 0 km/h
1737 24-07-2019 00:40:00 21.2 C 13.53 g/m*3 21.2 C 0 km/h
1738 24-07-2019 00:45:00 21.1 C 13.45 g/m*3 21.1 C 0 km/h
1739 24-07-2019 00:50:00 20.9 C 13.3 g/m*3 20.9 C 0 km/h
1740 24-07-2019 00:55:00 20.9 C 13.48 g/m*3 20.9 C 0 km/h
1741 24-07-2019 01:00:00 20.8 C 13.4 g/m*3 20.8 C 0 km/h
1742 24-07-2019 01:05:00 20.7 C 13.68 g/m*3 20.7 C 0 km/h
1743 24-07-2019 01:10:00 20.7 C 13.68 g/m*3 20.7 C 0 km/h
1744 24-07-2019 01:15:00 20.6 C 13.6 g/m*3 20.6 C 0 km/h
1745 24-07-2019 01:20:00 20.6 C 13.6 g/m*3 20.6 C 0 km/h
1746 24-07-2019 01:25:00 20.4 C 13.44 g/m*3 20.4 C 0 km/h
1747 24-07-2019 01:30:00 20.3 C 13.54 g/m*3 20.3 C 0 km/h
1748 24-07-2019 01:35:00 20.2 C 13.46 g/m*3 20.2 C 0 km/h
1749 24-07-2019 01:40:00 20.1 C 13.39 g/m*3 20.1 C 0 km/h
1750 24-07-2019 01:45:00 19.9 C 13.23 g/m*3 19.9 C 0 km/h
Sensor: Nr:Datum:Temp:Abs-Feuchte:Windchill:Wind:
Aussen-T/F 1751 24-07-2019 01:50:00 19.8 C 13.15 g/m*3 19.8 C 0 km/h
1752 24-07-2019 01:55:00 19.7 C 13.25 g/m*3 19.7 C 0 km/h
1753 24-07-2019 02:00:00 19.7 C 13.25 g/m*3 19.7 C 0 km/h
1754 24-07-2019 02:05:00 19.6 C 13.17 g/m*3 19.6 C 0 km/h
1755 24-07-2019 02:10:00 19.5 C 13.09 g/m*3 19.5 C 0 km/h
1756 24-07-2019 02:15:00 19.5 C 13.09 g/m*3 19.5 C 0 km/h
1757 24-07-2019 02:20:00 19.4 C 13.01 g/m*3 19.4 C 0 km/h
1758 24-07-2019 02:25:00 19.4 C 13.18 g/m*3 19.4 C 0 km/h
1759 24-07-2019 02:30:00 19.3 C 13.1 g/m*3 19.3 C 0 km/h
1760 24-07-2019 02:35:00 19.2 C 13.03 g/m*3 19.2 C 0 km/h
1761 24-07-2019 02:40:00 19.1 C 13.11 g/m*3 19.1 C 0 km/h
1762 24-07-2019 02:45:00 19.1 C 13.11 g/m*3 19.1 C 0 km/h
1763 24-07-2019 02:50:00 19 C 13.04 g/m*3 19 C 0 km/h
1764 24-07-2019 02:55:00 18.9 C 13.12 g/m*3 18.9 C 0 km/h
1765 24-07-2019 03:00:00 18.9 C 13.12 g/m*3 18.9 C 0 km/h
1766 24-07-2019 03:05:00 19.1 C 13.28 g/m*3 19.1 C 0 km/h
1767 24-07-2019 03:10:00 19.1 C 13.11 g/m*3 19.1 C 0 km/h
1768 24-07-2019 03:15:00 18.9 C 12.96 g/m*3 18.9 C 0 km/h
1769 24-07-2019 03:20:00 18.8 C 12.88 g/m*3 18.8 C 0 km/h
1770 24-07-2019 03:25:00 18.7 C 12.97 g/m*3 18.7 C 0 km/h
1771 24-07-2019 03:30:00 18.6 C 13.05 g/m*3 18.6 C 0 km/h
1772 24-07-2019 03:35:00 18.5 C 13.13 g/m*3 18.5 C 0 km/h
1773 24-07-2019 03:40:00 18.4 C 13.05 g/m*3 18.4 C 0 km/h
1774 24-07-2019 03:45:00 18.3 C 12.98 g/m*3 18.3 C 0 km/h
1775 24-07-2019 03:50:00 18.2 C 12.9 g/m*3 18.2 C 0 km/h
Sensor: Nr:Datum:Temp:Abs-Feuchte:Windchill:Wind:
Aussen-T/F 1776 24-07-2019 03:55:00 18.1 C 12.98 g/m*3 18.1 C 0 km/h
1777 24-07-2019 04:00:00 18.1 C 12.98 g/m*3 18.1 C 0 km/h
1778 24-07-2019 04:05:00 18 C 12.9 g/m*3 18 C 0 km/h
1779 24-07-2019 04:10:00 17.9 C 12.83 g/m*3 17.9 C 0 km/h
1780 24-07-2019 04:15:00 17.9 C 12.83 g/m*3 17.9 C 0 km/h
1781 24-07-2019 04:20:00 17.8 C 12.75 g/m*3 17.8 C 0 km/h
1782 24-07-2019 04:25:00 17.8 C 12.75 g/m*3 17.8 C 0 km/h
1783 24-07-2019 04:30:00 17.8 C 12.9 g/m*3 17.8 C 0 km/h
1784 24-07-2019 04:35:00 17.7 C 12.82 g/m*3 17.7 C 0 km/h
1785 24-07-2019 04:40:00 17.7 C 12.82 g/m*3 17.7 C 0 km/h
1786 24-07-2019 04:45:00 17.6 C 12.75 g/m*3 17.6 C 0 km/h
1787 24-07-2019 04:50:00 17.5 C 12.67 g/m*3 17.5 C 0 km/h
1788 24-07-2019 04:55:00 17.4 C 12.75 g/m*3 17.4 C 0 km/h
1789 24-07-2019 05:00:00 17.4 C 12.75 g/m*3 17.4 C 0 km/h
1790 24-07-2019 05:05:00 17.4 C 12.75 g/m*3 17.4 C 0 km/h
1791 24-07-2019 05:10:00 17.3 C 12.67 g/m*3 17.3 C 0 km/h
1792 24-07-2019 05:15:00 17.3 C 12.82 g/m*3 17.3 C 0 km/h
1793 24-07-2019 05:20:00 17.3 C 12.82 g/m*3 17.3 C 0 km/h
1794 24-07-2019 05:25:00 17.2 C 12.74 g/m*3 17.2 C 0 km/h
1795 24-07-2019 05:30:00 17.2 C 12.74 g/m*3 17.2 C 0 km/h
1796 24-07-2019 05:35:00 17.2 C 12.89 g/m*3 17.2 C 0 km/h
1797 24-07-2019 05:40:00 17.2 C 12.89 g/m*3 17.2 C 0 km/h
1798 24-07-2019 05:45:00 17.1 C 12.81 g/m*3 17.1 C 0 km/h
1799 24-07-2019 05:50:00 17.1 C 12.66 g/m*3 17.1 C 0 km/h
1800 24-07-2019 05:55:00 17.1 C 12.81 g/m*3 17.1 C 0 km/h
Sensor: Nr:Datum:Temp:Abs-Feuchte:Windchill:Wind:
Aussen-T/F 1801 24-07-2019 06:00:00 17.1 C 12.81 g/m*3 17.1 C 0 km/h
1802 24-07-2019 06:05:00 17.1 C 12.81 g/m*3 17.1 C 0 km/h
1803 24-07-2019 06:10:00 17.1 C 12.81 g/m*3 17.1 C 0 km/h
1804 24-07-2019 06:15:00 17.1 C 12.81 g/m*3 17.1 C 0 km/h
1805 24-07-2019 06:20:00 17 C 12.73 g/m*3 17 C 0 km/h
1806 24-07-2019 06:25:00 17.1 C 12.81 g/m*3 17.1 C 0 km/h
1807 24-07-2019 06:30:00 17.1 C 12.81 g/m*3 17.1 C 0 km/h
1808 24-07-2019 06:35:00 17 C 12.73 g/m*3 17 C 0 km/h
1809 24-07-2019 06:40:00 17 C 12.73 g/m*3 17 C 0 km/h
1810 24-07-2019 06:45:00 17.1 C 12.96 g/m*3 17.1 C 0 km/h
1811 24-07-2019 06:50:00 17.1 C 12.96 g/m*3 17.1 C 0 km/h
1812 24-07-2019 06:55:00 17.1 C 12.96 g/m*3 17.1 C 0 km/h
1813 24-07-2019 07:00:00 17.1 C 13.1 g/m*3 17.1 C 0 km/h
1814 24-07-2019 07:05:00 17.1 C 13.1 g/m*3 17.1 C 0 km/h
1815 24-07-2019 07:10:00 17.1 C 13.1 g/m*3 17.1 C 0 km/h
1816 24-07-2019 07:15:00 17.1 C 13.1 g/m*3 17.1 C 0 km/h
1817 24-07-2019 07:20:00 17.2 C 13.18 g/m*3 17.2 C 0 km/h
1818 24-07-2019 07:25:00 17.2 C 13.18 g/m*3 17.2 C 0 km/h
1819 24-07-2019 07:30:00 17.3 C 13.26 g/m*3 17.3 C 0 km/h
1820 24-07-2019 07:35:00 17.3 C 13.26 g/m*3 17.3 C 0 km/h
1821 24-07-2019 07:40:00 17.3 C 13.26 g/m*3 17.3 C 0 km/h
1822 24-07-2019 07:45:00 17.4 C 13.34 g/m*3 17.4 C 0 km/h
1823 24-07-2019 07:50:00 17.5 C 13.42 g/m*3 17.5 C 0 km/h
1824 24-07-2019 07:55:00 17.6 C 13.5 g/m*3 17.6 C 0 km/h
1825 24-07-2019 08:00:00 17.6 C 13.5 g/m*3 17.6 C 0 km/h
Sensor: Nr:Datum:Temp:Abs-Feuchte:Windchill:Wind:
Aussen-T/F 1826 24-07-2019 08:05:00 17.7 C 13.58 g/m*3 17.7 C 0 km/h
1827 24-07-2019 08:10:00 17.8 C 13.66 g/m*3 17.8 C 0 km/h
1828 24-07-2019 08:15:00 18 C 13.67 g/m*3 18 C 0 km/h
1829 24-07-2019 08:20:00 18.2 C 13.83 g/m*3 18.2 C 0 km/h
1830 24-07-2019 08:25:00 18.3 C 13.92 g/m*3 18.3 C 0 km/h
1831 24-07-2019 08:30:00 18.4 C 14 g/m*3 18.4 C 0 km/h
1832 24-07-2019 08:35:00 18.5 C 13.92 g/m*3 18.5 C 0 km/h
1833 24-07-2019 08:40:00 18.6 C 14.01 g/m*3 18.6 C 0 km/h
1834 24-07-2019 08:45:00 18.8 C 14.17 g/m*3 18.8 C 0 km/h
1835 24-07-2019 08:50:00 18.9 C 14.26 g/m*3 18.9 C 0 km/h
1836 24-07-2019 08:55:00 19.1 C 14.43 g/m*3 19.1 C 0 km/h
1837 24-07-2019 09:00:00 19.2 C 14.51 g/m*3 19.2 C 0 km/h
1838 24-07-2019 09:05:00 19.3 C 14.6 g/m*3 19.3 C 0 km/h
1839 24-07-2019 09:10:00 19.5 C 14.77 g/m*3 19.5 C 0 km/h
1840 24-07-2019 09:15:00 19.6 C 14.69 g/m*3 19.6 C 0 km/h
1841 24-07-2019 09:20:00 19.8 C 14.86 g/m*3 19.8 C 0 km/h
1842 24-07-2019 09:25:00 20.1 C 14.95 g/m*3 20.1 C 0 km/h
1843 24-07-2019 09:30:00 20.3 C 15.13 g/m*3 20.3 C 0 km/h
1844 24-07-2019 09:35:00 20.5 C 15.12 g/m*3 20.5 C 0 km/h
1845 24-07-2019 09:40:00 20.7 C 15.12 g/m*3 20.7 C 0 km/h
1846 24-07-2019 09:45:00 20.9 C 15.12 g/m*3 20.9 C 0 km/h
1847 24-07-2019 09:50:00 21.3 C 15.28 g/m*3 21.3 C 0 km/h
1848 24-07-2019 09:55:00 21.6 C 15.17 g/m*3 21.6 C 0 km/h
1849 24-07-2019 10:00:00 21.9 C 15.05 g/m*3 21.9 C 0 km/h
1850 24-07-2019 10:05:00 22.3 C 15.6 g/m*3 22.3 C 0 km/h
Sensor: Nr:Datum:Temp:Abs-Feuchte:Windchill:Wind:
Aussen-T/F 1851 24-07-2019 10:10:00 22.6 C 15.47 g/m*3 22.6 C 0 km/h
1852 24-07-2019 10:15:00 22.8 C 15.24 g/m*3 22.8 C 0 km/h
1853 24-07-2019 10:20:00 23.1 C 15.3 g/m*3 23.1 C 0 km/h
1854 24-07-2019 10:25:00 23.6 C 15.53 g/m*3 23.6 C 0 km/h
1855 24-07-2019 10:30:00 24 C 15.66 g/m*3 24 C 0 km/h
1856 24-07-2019 10:35:00 24.3 C 15.71 g/m*3 24.3 C 0 km/h
1857 24-07-2019 10:40:00 24.6 C 15.53 g/m*3 24.6 C 0 km/h
1858 24-07-2019 10:45:00 24.9 C 15.34 g/m*3 24.9 C 0 km/h
1859 24-07-2019 10:50:00 25.3 C 15.69 g/m*3 25.3 C 0 km/h
1860 24-07-2019 10:55:00 25.6 C 15.95 g/m*3 25.6 C 0 km/h
1861 24-07-2019 11:00:00 25.8 C 16.13 g/m*3 25.8 C 0 km/h
1862 24-07-2019 11:05:00 26 C 15.58 g/m*3 26 C 0 km/h
1863 24-07-2019 11:10:00 26.3 C 16.34 g/m*3 26.3 C 0 km/h
1864 24-07-2019 11:15:00 26.6 C 16.36 g/m*3 26.6 C 0 km/h
1865 24-07-2019 11:20:00 26.8 C 15.27 g/m*3 26.8 C 0 km/h
1866 24-07-2019 11:25:00 27.1 C 15.53 g/m*3 27.1 C 0 km/h
1867 24-07-2019 11:30:00 27.4 C 15.52 g/m*3 27.4 C 0 km/h
1868 24-07-2019 11:35:00 27.9 C 15.69 g/m*3 27.9 C 0 km/h
1869 24-07-2019 11:40:00 28.3 C 15.2 g/m*3 28.3 C 0 km/h
1870 24-07-2019 11:45:00 28.6 C 15.18 g/m*3 28.6 C 0 km/h
1871 24-07-2019 11:50:00 29 C 15.22 g/m*3 29 C 0 km/h
1872 24-07-2019 11:55:00 29.4 C 15.56 g/m*3 29.4 C 0 km/h
1873 24-07-2019 12:00:00 29.8 C 15.9 g/m*3 29.8 C 0 km/h
1874 24-07-2019 12:05:00 30.3 C 14.79 g/m*3 30.3 C 0 km/h
1875 24-07-2019 12:10:00 30.7 C 14.8 g/m*3 30.7 C 0 km/h
Sensor: Nr:Datum:Temp:Abs-Feuchte:Windchill:Wind:
Aussen-T/F 1876 24-07-2019 12:15:00 31.2 C 14.23 g/m*3 31.2 C 0 km/h
1877 24-07-2019 12:20:00 31.7 C 13.95 g/m*3 31.7 C 0 km/h
1878 24-07-2019 12:25:00 32.1 C 14.59 g/m*3 32.1 C 0 km/h
1879 24-07-2019 12:30:00 32.4 C 13.1 g/m*3 32.4 C 0 km/h
1880 24-07-2019 12:35:00 32.8 C 13.03 g/m*3 32.8 C 11.3 km/h
1881 24-07-2019 12:40:00 33 C 13.17 g/m*3 33 C 0 km/h
1882 24-07-2019 12:45:00 33.3 C 13.74 g/m*3 33.3 C 6.4 km/h
1883 24-07-2019 12:50:00 33.5 C 13.52 g/m*3 33.5 C 9.7 km/h
1884 24-07-2019 12:55:00 33.7 C 13.3 g/m*3 33.7 C 8.1 km/h
1885 24-07-2019 13:00:00 33.8 C 12.62 g/m*3 33.8 C 8.1 km/h
1886 24-07-2019 13:05:00 33.9 C 11.57 g/m*3 33.9 C 8.1 km/h
1887 24-07-2019 13:10:00 33.9 C 11.2 g/m*3 33.9 C 4.8 km/h
1888 24-07-2019 13:15:00 33.9 C 11.57 g/m*3 33.9 C 6.4 km/h
1889 24-07-2019 13:20:00 34 C 11.26 g/m*3 34 C 9.7 km/h
1890 24-07-2019 13:25:00 34.1 C 10.94 g/m*3 34.1 C 11.3 km/h
1891 24-07-2019 13:30:00 34.2 C 10.62 g/m*3 34.2 C 9.7 km/h
1892 24-07-2019 13:35:00 34.3 C 11.05 g/m*3 34.3 C 4.8 km/h
1893 24-07-2019 13:40:00 34.3 C 10.29 g/m*3 34.3 C 6.4 km/h
1894 24-07-2019 13:45:00 34.4 C 10.34 g/m*3 34.4 C 8.1 km/h
1895 24-07-2019 13:50:00 34.6 C 10.45 g/m*3 34.6 C 3.2 km/h
1896 24-07-2019 13:55:00 34.7 C 10.12 g/m*3 34.7 C 4.8 km/h
1897 24-07-2019 14:00:00 34.8 C 10.56 g/m*3 34.8 C 6.4 km/h
1898 24-07-2019 14:05:00 34.8 C 10.17 g/m*3 34.8 C 6.4 km/h
1899 24-07-2019 14:10:00 34.9 C 10.62 g/m*3 34.9 C 8.1 km/h
1900 24-07-2019 14:15:00 35 C 10.67 g/m*3 35 C 4.8 km/h
Sensor: Nr:Datum:Temp:Abs-Feuchte:Windchill:Wind:
Aussen-T/F 1901 24-07-2019 14:20:00 35.1 C 10.33 g/m*3 35.1 C 6.4 km/h
1902 24-07-2019 14:25:00 35.3 C 10.84 g/m*3 35.3 C 6.4 km/h
1903 24-07-2019 14:30:00 35.3 C 10.44 g/m*3 35.3 C 6.4 km/h
1904 24-07-2019 14:35:00 35.5 C 10.55 g/m*3 35.5 C 4.8 km/h
1905 24-07-2019 14:40:00 35.6 C 11.42 g/m*3 35.6 C 4.8 km/h
1906 24-07-2019 14:45:00 35.8 C 11.13 g/m*3 35.8 C 4.8 km/h
1907 24-07-2019 14:50:00 35.8 C 11.13 g/m*3 35.8 C 4.8 km/h
1908 24-07-2019 14:55:00 35.9 C 11.6 g/m*3 35.9 C 11.3 km/h
1909 24-07-2019 15:00:00 35.9 C 11.6 g/m*3 35.9 C 4.8 km/h
1910 24-07-2019 15:05:00 36.1 C 12.56 g/m*3 36.1 C 6.4 km/h
1911 24-07-2019 15:10:00 36.2 C 11.78 g/m*3 36.2 C 8.1 km/h
1912 24-07-2019 15:15:00 36.3 C 11.42 g/m*3 36.3 C 9.7 km/h
1913 24-07-2019 15:20:00 36.3 C 10.99 g/m*3 36.3 C 8.1 km/h
1914 24-07-2019 15:25:00 36.4 C 10.63 g/m*3 36.4 C 3.2 km/h
1915 24-07-2019 15:30:00 36.8 C 10.85 g/m*3 36.8 C 4.8 km/h
1916 24-07-2019 15:35:00 37.2 C 10.19 g/m*3 37.2 C 4.8 km/h
1917 24-07-2019 15:40:00 37.4 C 10.74 g/m*3 37.4 C 6.4 km/h
1918 24-07-2019 15:45:00 37.9 C 11.93 g/m*3 37.9 C 4.8 km/h
1919 24-07-2019 15:50:00 38.4 C 11.77 g/m*3 38.4 C 3.2 km/h
1920 24-07-2019 15:55:00 38.8 C 12.01 g/m*3 38.8 C 8.1 km/h
1921 24-07-2019 16:00:00 39.2 C 11.27 g/m*3 39.2 C 6.4 km/h
1922 24-07-2019 16:05:00 39.3 C 10.84 g/m*3 39.3 C 6.4 km/h
1923 24-07-2019 16:10:00 39.4 C 11.39 g/m*3 39.4 C 8.1 km/h
1924 24-07-2019 16:15:00 39.4 C 12.38 g/m*3 39.4 C 11.3 km/h
1925 24-07-2019 16:20:00 39.5 C 12.44 g/m*3 39.5 C 9.7 km/h
Sensor: Nr:Datum:Temp:Abs-Feuchte:Windchill:Wind:
Aussen-T/F 1926 24-07-2019 16:25:00 39.7 C 12.06 g/m*3 39.7 C 6.4 km/h
1927 24-07-2019 16:30:00 39.8 C 11.11 g/m*3 39.8 C 3.2 km/h
1928 24-07-2019 16:35:00 39.7 C 11.06 g/m*3 39.7 C 6.4 km/h
1929 24-07-2019 16:40:00 39.6 C 11 g/m*3 39.6 C 4.8 km/h
1930 24-07-2019 16:45:00 39.7 C 11.56 g/m*3 39.7 C 3.2 km/h
1931 24-07-2019 16:50:00 39.9 C 11.17 g/m*3 39.9 C 6.4 km/h
1932 24-07-2019 16:55:00 39.9 C 12.19 g/m*3 39.9 C 4.8 km/h
1933 24-07-2019 17:00:00 39.9 C 11.68 g/m*3 39.9 C 6.4 km/h
1934 24-07-2019 17:05:00 40.1 C 13.85 g/m*3 40.1 C 4.8 km/h
1935 24-07-2019 17:10:00 39.9 C 10.66 g/m*3 39.9 C 8.1 km/h
1936 24-07-2019 17:15:00 39.9 C 11.68 g/m*3 39.9 C 4.8 km/h
1937 24-07-2019 17:20:00 40 C 11.23 g/m*3 40 C 4.8 km/h
1938 24-07-2019 17:25:00 39.9 C 11.17 g/m*3 39.9 C 8.1 km/h
1939 24-07-2019 17:30:00 39.8 C 11.11 g/m*3 39.8 C 11.3 km/h
1940 24-07-2019 17:35:00 39.5 C 11.45 g/m*3 39.5 C 9.7 km/h
1941 24-07-2019 17:40:00 39.3 C 10.84 g/m*3 39.3 C 12.9 km/h
1942 24-07-2019 17:45:00 39 C 11.16 g/m*3 39 C 14.5 km/h
1943 24-07-2019 17:50:00 38.9 C 11.1 g/m*3 38.9 C 14.5 km/h
1944 24-07-2019 17:55:00 39.1 C 11.71 g/m*3 39.1 C 8.1 km/h
1945 24-07-2019 18:00:00 39.4 C 11.39 g/m*3 39.4 C 6.4 km/h
1946 24-07-2019 18:05:00 39.6 C 12 g/m*3 39.6 C 4.8 km/h
1947 24-07-2019 18:10:00 39.8 C 11.11 g/m*3 39.8 C 6.4 km/h
1948 24-07-2019 18:15:00 39.8 C 11.11 g/m*3 39.8 C 11.3 km/h
1949 24-07-2019 18:20:00 39.4 C 10.89 g/m*3 39.4 C 11.3 km/h
1950 24-07-2019 18:25:00 39.2 C 11.27 g/m*3 39.2 C 12.9 km/h
Sensor: Nr:Datum:Temp:Abs-Feuchte:Windchill:Wind:
Aussen-T/F 1951 24-07-2019 18:30:00 39.2 C 10.78 g/m*3 39.2 C 11.3 km/h
1952 24-07-2019 18:35:00 39.2 C 11.27 g/m*3 39.2 C 9.7 km/h
1953 24-07-2019 18:40:00 39.1 C 11.22 g/m*3 39.1 C 8.1 km/h
1954 24-07-2019 18:45:00 39.1 C 10.73 g/m*3 39.1 C 8.1 km/h
1955 24-07-2019 18:50:00 39.1 C 11.22 g/m*3 39.1 C 11.3 km/h
1956 24-07-2019 18:55:00 38.9 C 11.1 g/m*3 38.9 C 11.3 km/h
1957 24-07-2019 19:00:00 38.8 C 10.57 g/m*3 38.8 C 11.3 km/h
1958 24-07-2019 19:05:00 38.7 C 10.99 g/m*3 38.7 C 11.3 km/h
1959 24-07-2019 19:10:00 38.6 C 12.84 g/m*3 38.6 C 9.7 km/h
1960 24-07-2019 19:15:00 38.7 C 12.43 g/m*3 38.7 C 4.8 km/h
1961 24-07-2019 19:20:00 38.8 C 11.05 g/m*3 38.8 C 8.1 km/h
1962 24-07-2019 19:25:00 38.8 C 13.45 g/m*3 38.8 C 6.4 km/h
1963 24-07-2019 19:30:00 38.7 C 13.86 g/m*3 38.7 C 1.6 km/h
1964 24-07-2019 19:35:00 38.7 C 14.34 g/m*3 38.7 C 1.6 km/h
1965 24-07-2019 19:40:00 38.4 C 14.59 g/m*3 38.4 C 0 km/h
1966 24-07-2019 19:45:00 38.2 C 13.98 g/m*3 38.2 C 0 km/h
1967 24-07-2019 19:50:00 37.9 C 14.23 g/m*3 37.9 C 1.6 km/h
1968 24-07-2019 19:55:00 37.6 C 14.01 g/m*3 37.6 C 1.6 km/h
1969 24-07-2019 20:00:00 37.1 C 14.98 g/m*3 37.1 C 0 km/h
1970 24-07-2019 20:05:00 36.4 C 14.03 g/m*3 36.4 C 0 km/h
1971 24-07-2019 20:10:00 35.6 C 13.87 g/m*3 35.6 C 0 km/h
1972 24-07-2019 20:15:00 34.8 C 13.69 g/m*3 34.8 C 1.6 km/h
1973 24-07-2019 20:20:00 33.9 C 14.18 g/m*3 33.9 C 0 km/h
1974 24-07-2019 20:25:00 33.1 C 14.31 g/m*3 33.1 C 0 km/h
1975 24-07-2019 20:30:00 32.4 C 14.48 g/m*3 32.4 C 0 km/h
Sensor: Nr:Datum:Temp:Abs-Feuchte:Windchill:Wind:
Aussen-T/F 1976 24-07-2019 20:35:00 31.7 C 14.62 g/m*3 31.7 C 1.6 km/h
1977 24-07-2019 20:40:00 31.2 C 14.23 g/m*3 31.2 C 0 km/h
1978 24-07-2019 20:45:00 30.8 C 14.25 g/m*3 30.8 C 0 km/h
1979 24-07-2019 20:50:00 30.4 C 13.94 g/m*3 30.4 C 1.6 km/h
1980 24-07-2019 20:55:00 30.2 C 14.1 g/m*3 30.2 C 0 km/h
1981 24-07-2019 21:00:00 29.9 C 14.18 g/m*3 29.9 C 1.6 km/h
1982 24-07-2019 21:05:00 29.7 C 14.02 g/m*3 29.7 C 0 km/h
1983 24-07-2019 21:10:00 29.4 C 14.09 g/m*3 29.4 C 0 km/h
1984 24-07-2019 21:15:00 29.2 C 13.94 g/m*3 29.2 C 0 km/h
1985 24-07-2019 21:20:00 29 C 14.07 g/m*3 29 C 1.6 km/h
1986 24-07-2019 21:25:00 28.8 C 13.92 g/m*3 28.8 C 1.6 km/h
1987 24-07-2019 21:30:00 28.7 C 13.85 g/m*3 28.7 C 1.6 km/h
1988 24-07-2019 21:35:00 28.5 C 13.97 g/m*3 28.5 C 1.6 km/h
1989 24-07-2019 21:40:00 28.3 C 13.55 g/m*3 28.3 C 1.6 km/h
1990 24-07-2019 21:45:00 28.2 C 13.75 g/m*3 28.2 C 1.6 km/h
1991 24-07-2019 21:50:00 28.1 C 13.67 g/m*3 28.1 C 1.6 km/h
1992 24-07-2019 21:55:00 28.1 C 13.67 g/m*3 28.1 C 1.6 km/h
1993 24-07-2019 22:00:00 27.9 C 13.52 g/m*3 27.9 C 1.6 km/h
1994 24-07-2019 22:05:00 27.8 C 13.72 g/m*3 27.8 C 1.6 km/h
1995 24-07-2019 22:10:00 27.8 C 13.72 g/m*3 27.8 C 1.6 km/h
1996 24-07-2019 22:15:00 27.7 C 13.64 g/m*3 27.7 C 0 km/h
1997 24-07-2019 22:20:00 27.6 C 13.57 g/m*3 27.6 C 1.6 km/h
1998 24-07-2019 22:25:00 27.4 C 13.68 g/m*3 27.4 C 1.6 km/h
1999 24-07-2019 22:30:00 27.3 C 13.61 g/m*3 27.3 C 0 km/h
2000 24-07-2019 22:35:00 27.2 C 13.79 g/m*3 27.2 C 0 km/h
Sensor: Nr:Datum:Temp:Abs-Feuchte:Windchill:Wind:
Aussen-T/F 2001 24-07-2019 22:40:00 27.1 C 13.72 g/m*3 27.1 C 0 km/h
2002 24-07-2019 22:45:00 27 C 13.64 g/m*3 27 C 0 km/h
2003 24-07-2019 22:50:00 26.9 C 13.56 g/m*3 26.9 C 0 km/h
2004 24-07-2019 22:55:00 26.8 C 13.74 g/m*3 26.8 C 0 km/h
2005 24-07-2019 23:00:00 26.8 C 13.74 g/m*3 26.8 C 0 km/h
2006 24-07-2019 23:05:00 26.6 C 13.84 g/m*3 26.6 C 0 km/h
2007 24-07-2019 23:10:00 26.4 C 13.94 g/m*3 26.4 C 0 km/h
2008 24-07-2019 23:15:00 26.2 C 14.03 g/m*3 26.2 C 0 km/h
2009 24-07-2019 23:20:00 25.9 C 14.04 g/m*3 25.9 C 0 km/h
2010 24-07-2019 23:25:00 25.7 C 13.89 g/m*3 25.7 C 0 km/h
2011 24-07-2019 23:30:00 25.4 C 13.65 g/m*3 25.4 C 0 km/h
2012 24-07-2019 23:35:00 25.2 C 13.5 g/m*3 25.2 C 0 km/h
2013 24-07-2019 23:40:00 25 C 13.81 g/m*3 25 C 0 km/h
2014 24-07-2019 23:45:00 24.8 C 13.88 g/m*3 24.8 C 0 km/h
2015 24-07-2019 23:50:00 24.6 C 13.95 g/m*3 24.6 C 0 km/h
2016 24-07-2019 23:55:00 24.4 C 14.02 g/m*3 24.4 C 0 km/h
2017 25-07-2019 00:00:00 24.3 C 13.72 g/m*3 24.3 C 0 km/h
2018 25-07-2019 00:05:00 24 C 13.27 g/m*3 24 C 0 km/h
2019 25-07-2019 00:10:00 23.9 C 13.63 g/m*3 23.9 C 0 km/h
2020 25-07-2019 00:15:00 23.9 C 13.63 g/m*3 23.9 C 0 km/h
2021 25-07-2019 00:20:00 23.8 C 13.55 g/m*3 23.8 C 0 km/h
2022 25-07-2019 00:25:00 23.7 C 13.26 g/m*3 23.7 C 0 km/h
2023 25-07-2019 00:30:00 23.6 C 13.19 g/m*3 23.6 C 0 km/h
2024 25-07-2019 00:35:00 23.6 C 13.61 g/m*3 23.6 C 0 km/h
2025 25-07-2019 00:40:00 23.4 C 13.46 g/m*3 23.4 C 0 km/h
Sensor: Nr:Datum:Temp:Abs-Feuchte:Windchill:Wind:
Aussen-T/F 2026 25-07-2019 00:45:00 23.3 C 13.17 g/m*3 23.3 C 0 km/h
2027 25-07-2019 00:50:00 23.4 C 13.46 g/m*3 23.4 C 0 km/h
2028 25-07-2019 00:55:00 23.3 C 13.8 g/m*3 23.3 C 0 km/h
2029 25-07-2019 01:00:00 23.2 C 13.51 g/m*3 23.2 C 0 km/h
2030 25-07-2019 01:05:00 23.1 C 13.44 g/m*3 23.1 C 0 km/h
2031 25-07-2019 01:10:00 22.9 C 13.49 g/m*3 22.9 C 0 km/h
2032 25-07-2019 01:15:00 22.7 C 13.33 g/m*3 22.7 C 0 km/h
2033 25-07-2019 01:20:00 22.6 C 13.46 g/m*3 22.6 C 0 km/h
2034 25-07-2019 01:25:00 22.4 C 13.11 g/m*3 22.4 C 0 km/h
2035 25-07-2019 01:30:00 22.3 C 13.23 g/m*3 22.3 C 0 km/h
2036 25-07-2019 01:35:00 22.3 C 12.83 g/m*3 22.3 C 0 km/h
2037 25-07-2019 01:40:00 22.3 C 13.43 g/m*3 22.3 C 0 km/h
2038 25-07-2019 01:45:00 22.3 C 13.43 g/m*3 22.3 C 0 km/h
2039 25-07-2019 01:50:00 22.2 C 13.35 g/m*3 22.2 C 0 km/h
2040 25-07-2019 01:55:00 22.1 C 13.27 g/m*3 22.1 C 0 km/h
2041 25-07-2019 02:00:00 22 C 13.39 g/m*3 22 C 0 km/h
2042 25-07-2019 02:05:00 21.9 C 13.51 g/m*3 21.9 C 0 km/h
2043 25-07-2019 02:10:00 21.8 C 13.43 g/m*3 21.8 C 0 km/h
2044 25-07-2019 02:15:00 21.7 C 13.35 g/m*3 21.7 C 0 km/h
2045 25-07-2019 02:20:00 21.7 C 13.35 g/m*3 21.7 C 0 km/h
2046 25-07-2019 02:25:00 21.7 C 13.54 g/m*3 21.7 C 0 km/h
2047 25-07-2019 02:30:00 21.6 C 13.28 g/m*3 21.6 C 0 km/h
2048 25-07-2019 02:35:00 21.5 C 13.2 g/m*3 21.5 C 0 km/h
2049 25-07-2019 02:40:00 21.4 C 13.31 g/m*3 21.4 C 0 km/h
2050 25-07-2019 02:45:00 21.4 C 13.31 g/m*3 21.4 C 0 km/h
Sensor: Nr:Datum:Temp:Abs-Feuchte:Windchill:Wind:
Aussen-T/F 2051 25-07-2019 02:50:00 21.3 C 13.42 g/m*3 21.3 C 0 km/h
2052 25-07-2019 02:55:00 21.2 C 13.34 g/m*3 21.2 C 0 km/h
2053 25-07-2019 03:00:00 21.2 C 13.34 g/m*3 21.2 C 0 km/h
2054 25-07-2019 03:05:00 21.2 C 13.53 g/m*3 21.2 C 0 km/h
2055 25-07-2019 03:10:00 21.2 C 13.53 g/m*3 21.2 C 0 km/h
2056 25-07-2019 03:15:00 21.1 C 13.45 g/m*3 21.1 C 0 km/h
2057 25-07-2019 03:20:00 20.9 C 13.48 g/m*3 20.9 C 0 km/h
2058 25-07-2019 03:25:00 20.8 C 13.4 g/m*3 20.8 C 0 km/h
2059 25-07-2019 03:30:00 20.8 C 13.4 g/m*3 20.8 C 0 km/h
2060 25-07-2019 03:35:00 20.8 C 13.4 g/m*3 20.8 C 0 km/h
2061 25-07-2019 03:40:00 20.8 C 13.4 g/m*3 20.8 C 0 km/h
2062 25-07-2019 03:45:00 20.7 C 13.5 g/m*3 20.7 C 0 km/h
2063 25-07-2019 03:50:00 20.6 C 13.42 g/m*3 20.6 C 0 km/h
2064 25-07-2019 03:55:00 20.6 C 13.6 g/m*3 20.6 C 0 km/h
2065 25-07-2019 04:00:00 20.4 C 13.44 g/m*3 20.4 C 0 km/h
2066 25-07-2019 04:05:00 20.3 C 13.37 g/m*3 20.3 C 0 km/h
2067 25-07-2019 04:10:00 20.2 C 13.46 g/m*3 20.2 C 0 km/h
2068 25-07-2019 04:15:00 20.1 C 13.39 g/m*3 20.1 C 0 km/h
2069 25-07-2019 04:20:00 19.9 C 13.4 g/m*3 19.9 C 0 km/h
2070 25-07-2019 04:25:00 20.1 C 13.56 g/m*3 20.1 C 0 km/h
2071 25-07-2019 04:30:00 20.1 C 13.56 g/m*3 20.1 C 0 km/h
2072 25-07-2019 04:35:00 20.1 C 13.56 g/m*3 20.1 C 0 km/h
2073 25-07-2019 04:40:00 20.1 C 13.56 g/m*3 20.1 C 0 km/h
2074 25-07-2019 04:45:00 19.9 C 13.57 g/m*3 19.9 C 0 km/h
2075 25-07-2019 04:50:00 19.9 C 13.57 g/m*3 19.9 C 0 km/h
Sensor: Nr:Datum:Temp:Abs-Feuchte:Windchill:Wind:
Aussen-T/F 2076 25-07-2019 04:55:00 19.8 C 13.49 g/m*3 19.8 C 0 km/h
2077 25-07-2019 05:00:00 19.7 C 13.41 g/m*3 19.7 C 0 km/h
2078 25-07-2019 05:05:00 19.6 C 13.34 g/m*3 19.6 C 0 km/h
2079 25-07-2019 05:10:00 19.6 C 13.51 g/m*3 19.6 C 0 km/h
2080 25-07-2019 05:15:00 19.4 C 13.35 g/m*3 19.4 C 0 km/h
2081 25-07-2019 05:20:00 19.4 C 13.35 g/m*3 19.4 C 0 km/h
2082 25-07-2019 05:25:00 19.3 C 13.27 g/m*3 19.3 C 0 km/h
2083 25-07-2019 05:30:00 19.3 C 13.27 g/m*3 19.3 C 0 km/h
2084 25-07-2019 05:35:00 19.3 C 13.27 g/m*3 19.3 C 0 km/h
2085 25-07-2019 05:40:00 19.2 C 13.19 g/m*3 19.2 C 0 km/h
2086 25-07-2019 05:45:00 19.2 C 13.19 g/m*3 19.2 C 0 km/h
2087 25-07-2019 05:50:00 19.2 C 13.36 g/m*3 19.2 C 0 km/h
2088 25-07-2019 05:55:00 19.1 C 13.28 g/m*3 19.1 C 0 km/h
2089 25-07-2019 06:00:00 19.1 C 13.44 g/m*3 19.1 C 0 km/h
2090 25-07-2019 06:05:00 19.1 C 13.44 g/m*3 19.1 C 0 km/h
2091 25-07-2019 06:10:00 19.1 C 13.44 g/m*3 19.1 C 0 km/h
2092 25-07-2019 06:15:00 19.2 C 13.52 g/m*3 19.2 C 0 km/h
2093 25-07-2019 06:20:00 19.2 C 13.52 g/m*3 19.2 C 0 km/h
2094 25-07-2019 06:25:00 19.1 C 13.44 g/m*3 19.1 C 0 km/h
2095 25-07-2019 06:30:00 19.2 C 13.52 g/m*3 19.2 C 0 km/h
2096 25-07-2019 06:35:00 19.2 C 13.52 g/m*3 19.2 C 0 km/h
2097 25-07-2019 06:40:00 19.2 C 13.52 g/m*3 19.2 C 0 km/h
2098 25-07-2019 06:45:00 19.3 C 13.77 g/m*3 19.3 C 0 km/h
2099 25-07-2019 06:50:00 19.3 C 13.77 g/m*3 19.3 C 0 km/h
2100 25-07-2019 06:55:00 19.3 C 13.77 g/m*3 19.3 C 0 km/h
Sensor: Nr:Datum:Temp:Abs-Feuchte:Windchill:Wind:
Aussen-T/F 2101 25-07-2019 07:00:00 19.3 C 13.77 g/m*3 19.3 C 0 km/h
2102 25-07-2019 07:05:00 19.3 C 13.77 g/m*3 19.3 C 0 km/h
2103 25-07-2019 07:10:00 19.4 C 14.01 g/m*3 19.4 C 0 km/h
2104 25-07-2019 07:15:00 19.4 C 14.01 g/m*3 19.4 C 0 km/h
2105 25-07-2019 07:20:00 19.4 C 14.01 g/m*3 19.4 C 0 km/h
2106 25-07-2019 07:25:00 19.5 C 14.1 g/m*3 19.5 C 0 km/h
2107 25-07-2019 07:30:00 19.6 C 14.18 g/m*3 19.6 C 0 km/h
2108 25-07-2019 07:35:00 19.6 C 14.18 g/m*3 19.6 C 0 km/h
2109 25-07-2019 07:40:00 19.7 C 14.26 g/m*3 19.7 C 0 km/h
2110 25-07-2019 07:45:00 19.8 C 14.35 g/m*3 19.8 C 0 km/h
2111 25-07-2019 07:50:00 19.8 C 14.35 g/m*3 19.8 C 0 km/h
2112 25-07-2019 07:55:00 19.9 C 14.43 g/m*3 19.9 C 0 km/h
2113 25-07-2019 08:00:00 20 C 14.34 g/m*3 20 C 0 km/h
2114 25-07-2019 08:05:00 20.1 C 14.6 g/m*3 20.1 C 0 km/h
2115 25-07-2019 08:10:00 20.2 C 14.51 g/m*3 20.2 C 0 km/h
2116 25-07-2019 08:15:00 20.3 C 14.42 g/m*3 20.3 C 0 km/h
2117 25-07-2019 08:20:00 20.5 C 14.77 g/m*3 20.5 C 0 km/h
2118 25-07-2019 08:25:00 20.7 C 14.94 g/m*3 20.7 C 0 km/h
2119 25-07-2019 08:30:00 20.8 C 15.03 g/m*3 20.8 C 0 km/h
2120 25-07-2019 08:35:00 20.9 C 14.93 g/m*3 20.9 C 0 km/h
2121 25-07-2019 08:40:00 21.1 C 15.29 g/m*3 21.1 C 0 km/h
2122 25-07-2019 08:45:00 21.2 C 15.38 g/m*3 21.2 C 0 km/h
2123 25-07-2019 08:50:00 21.4 C 15.37 g/m*3 21.4 C 0 km/h
2124 25-07-2019 08:55:00 21.6 C 15.55 g/m*3 21.6 C 0 km/h
2125 25-07-2019 09:00:00 21.7 C 15.45 g/m*3 21.7 C 0 km/h
Sensor: Nr:Datum:Temp:Abs-Feuchte:Windchill:Wind:
Aussen-T/F 2126 25-07-2019 09:05:00 21.8 C 15.16 g/m*3 21.8 C 0 km/h
2127 25-07-2019 09:10:00 22.1 C 15.81 g/m*3 22.1 C 0 km/h
2128 25-07-2019 09:15:00 22.2 C 15.9 g/m*3 22.2 C 0 km/h
2129 25-07-2019 09:20:00 22.3 C 15.4 g/m*3 22.3 C 0 km/h
2130 25-07-2019 09:25:00 22.6 C 15.67 g/m*3 22.6 C 0 km/h
2131 25-07-2019 09:30:00 22.8 C 15.65 g/m*3 22.8 C 0 km/h
2132 25-07-2019 09:35:00 23.1 C 15.92 g/m*3 23.1 C 0 km/h
2133 25-07-2019 09:40:00 23.3 C 15.68 g/m*3 23.3 C 0 km/h
2134 25-07-2019 09:45:00 23.5 C 15.65 g/m*3 23.5 C 0 km/h
2135 25-07-2019 09:50:00 23.7 C 15.4 g/m*3 23.7 C 0 km/h
2136 25-07-2019 09:55:00 24 C 15.23 g/m*3 24 C 0 km/h
2137 25-07-2019 10:00:00 24.3 C 15.49 g/m*3 24.3 C 0 km/h
2138 25-07-2019 10:05:00 24.6 C 15.98 g/m*3 24.6 C 0 km/h
2139 25-07-2019 10:10:00 24.9 C 16.02 g/m*3 24.9 C 0 km/h
2140 25-07-2019 10:15:00 25.1 C 15.97 g/m*3 25.1 C 0 km/h
2141 25-07-2019 10:20:00 25.3 C 15.92 g/m*3 25.3 C 0 km/h
2142 25-07-2019 10:25:00 25.6 C 16.43 g/m*3 25.6 C 0 km/h
2143 25-07-2019 10:30:00 25.9 C 16.22 g/m*3 25.9 C 0 km/h
2144 25-07-2019 10:35:00 26.2 C 16 g/m*3 26.2 C 0 km/h
2145 25-07-2019 10:40:00 26.6 C 15.86 g/m*3 26.6 C 0 km/h
2146 25-07-2019 10:45:00 26.9 C 15.87 g/m*3 26.9 C 0 km/h
2147 25-07-2019 10:50:00 27.2 C 16.39 g/m*3 27.2 C 0 km/h
2148 25-07-2019 10:55:00 27.5 C 16.67 g/m*3 27.5 C 0 km/h
2149 25-07-2019 11:00:00 27.8 C 16.41 g/m*3 27.8 C 0 km/h
2150 25-07-2019 11:05:00 28.2 C 16.5 g/m*3 28.2 C 0 km/h
Sensor: Nr:Datum:Temp:Abs-Feuchte:Windchill:Wind:
Aussen-T/F 2151 25-07-2019 11:10:00 28.6 C 15.74 g/m*3 28.6 C 1.6 km/h
2152 25-07-2019 11:15:00 29.1 C 16.75 g/m*3 29.1 C 0 km/h
2153 25-07-2019 11:20:00 29.4 C 15.85 g/m*3 29.4 C 0 km/h
2154 25-07-2019 11:25:00 29.8 C 16.5 g/m*3 29.8 C 0 km/h
2155 25-07-2019 11:30:00 30.1 C 16.46 g/m*3 30.1 C 3.2 km/h
2156 25-07-2019 11:35:00 30.5 C 16.51 g/m*3 30.5 C 3.2 km/h
2157 25-07-2019 11:40:00 30.8 C 15.83 g/m*3 30.8 C 3.2 km/h
2158 25-07-2019 11:45:00 31.2 C 15.53 g/m*3 31.2 C 1.6 km/h
2159 25-07-2019 11:50:00 31.6 C 15.53 g/m*3 31.6 C 3.2 km/h
2160 25-07-2019 11:55:00 32.1 C 14.93 g/m*3 32.1 C 4.8 km/h
2161 25-07-2019 12:00:00 32.6 C 14.29 g/m*3 32.6 C 4.8 km/h
2162 25-07-2019 12:05:00 33 C 14.24 g/m*3 33 C 3.2 km/h
2163 25-07-2019 12:10:00 33.4 C 13.82 g/m*3 33.4 C 4.8 km/h
2164 25-07-2019 12:15:00 33.8 C 14.11 g/m*3 33.8 C 1.6 km/h
2165 25-07-2019 12:20:00 34.3 C 13.34 g/m*3 34.3 C 11.3 km/h
2166 25-07-2019 12:25:00 34.7 C 13.62 g/m*3 34.7 C 8.1 km/h
2167 25-07-2019 12:30:00 34.9 C 13.76 g/m*3 34.9 C 9.7 km/h
2168 25-07-2019 12:35:00 35.2 C 13.18 g/m*3 35.2 C 11.3 km/h
2169 25-07-2019 12:40:00 35.3 C 13.25 g/m*3 35.3 C 9.7 km/h
2170 25-07-2019 12:45:00 35.5 C 13.39 g/m*3 35.5 C 9.7 km/h
2171 25-07-2019 12:50:00 35.7 C 13.53 g/m*3 35.7 C 9.7 km/h
2172 25-07-2019 12:55:00 35.9 C 12.84 g/m*3 35.9 C 12.9 km/h
2173 25-07-2019 13:00:00 36 C 13.32 g/m*3 36 C 12.9 km/h
2174 25-07-2019 13:05:00 36.1 C 13.39 g/m*3 36.1 C 11.3 km/h
2175 25-07-2019 13:10:00 36.2 C 13.46 g/m*3 36.2 C 11.3 km/h
Sensor: Nr:Datum:Temp:Abs-Feuchte:Windchill:Wind:
Aussen-T/F 2176 25-07-2019 13:15:00 36.3 C 13.53 g/m*3 36.3 C 8.1 km/h
2177 25-07-2019 13:20:00 36.3 C 12.69 g/m*3 36.3 C 8.1 km/h
2178 25-07-2019 13:25:00 36.4 C 13.18 g/m*3 36.4 C 6.4 km/h
2179 25-07-2019 13:30:00 36.4 C 13.18 g/m*3 36.4 C 8.1 km/h
2180 25-07-2019 13:35:00 36.6 C 13.31 g/m*3 36.6 C 8.1 km/h
2181 25-07-2019 13:40:00 36.7 C 13.38 g/m*3 36.7 C 9.7 km/h
2182 25-07-2019 13:45:00 36.8 C 13.02 g/m*3 36.8 C 8.1 km/h
2183 25-07-2019 13:50:00 36.9 C 13.52 g/m*3 36.9 C 8.1 km/h
2184 25-07-2019 13:55:00 36.9 C 12.65 g/m*3 36.9 C 8.1 km/h
2185 25-07-2019 14:00:00 36.9 C 13.08 g/m*3 36.9 C 8.1 km/h
2186 25-07-2019 14:05:00 37.1 C 13.22 g/m*3 37.1 C 4.8 km/h
2187 25-07-2019 14:10:00 37.2 C 12.84 g/m*3 37.2 C 14.5 km/h
2188 25-07-2019 14:15:00 37.3 C 13.35 g/m*3 37.3 C 14.5 km/h
2189 25-07-2019 14:20:00 37.4 C 12.97 g/m*3 37.4 C 8.1 km/h
2190 25-07-2019 14:25:00 37.4 C 12.08 g/m*3 37.4 C 6.4 km/h
2191 25-07-2019 14:30:00 37.4 C 13.42 g/m*3 37.4 C 4.8 km/h
2192 25-07-2019 14:35:00 37.6 C 12.66 g/m*3 37.6 C 6.4 km/h
2193 25-07-2019 14:40:00 37.6 C 13.11 g/m*3 37.6 C 6.4 km/h
2194 25-07-2019 14:45:00 37.7 C 12.27 g/m*3 37.7 C 6.4 km/h
2195 25-07-2019 14:50:00 37.7 C 13.17 g/m*3 37.7 C 6.4 km/h
2196 25-07-2019 14:55:00 37.8 C 12.79 g/m*3 37.8 C 6.4 km/h
2197 25-07-2019 15:00:00 37.9 C 12.85 g/m*3 37.9 C 8.1 km/h
2198 25-07-2019 15:05:00 38.2 C 13.05 g/m*3 38.2 C 6.4 km/h
2199 25-07-2019 15:10:00 38.3 C 13.11 g/m*3 38.3 C 4.8 km/h
2200 25-07-2019 15:15:00 38.5 C 12.77 g/m*3 38.5 C 12.9 km/h
Sensor: Nr:Datum:Temp:Abs-Feuchte:Windchill:Wind:
Aussen-T/F 2201 25-07-2019 15:20:00 38.7 C 12.43 g/m*3 38.7 C 9.7 km/h
2202 25-07-2019 15:25:00 38.8 C 12.49 g/m*3 38.8 C 6.4 km/h
2203 25-07-2019 15:30:00 38.9 C 12.55 g/m*3 38.9 C 12.9 km/h
2204 25-07-2019 15:35:00 38.7 C 12.43 g/m*3 38.7 C 9.7 km/h
2205 25-07-2019 15:40:00 38.8 C 12.49 g/m*3 38.8 C 11.3 km/h
2206 25-07-2019 15:45:00 39.2 C 12.25 g/m*3 39.2 C 11.3 km/h
2207 25-07-2019 15:50:00 39.6 C 13 g/m*3 39.6 C 6.4 km/h
2208 25-07-2019 15:55:00 39.9 C 12.19 g/m*3 39.9 C 8.1 km/h
2209 25-07-2019 16:00:00 40.1 C 11.8 g/m*3 40.1 C 6.4 km/h
2210 25-07-2019 16:05:00 40.2 C 12.37 g/m*3 40.2 C 11.3 km/h
2211 25-07-2019 16:10:00 40.2 C 12.89 g/m*3 40.2 C 8.1 km/h
2212 25-07-2019 16:15:00 40.3 C 11.91 g/m*3 40.3 C 9.7 km/h
2213 25-07-2019 16:20:00 40.4 C 12.49 g/m*3 40.4 C 11.3 km/h
2214 25-07-2019 16:25:00 40.4 C 13.01 g/m*3 40.4 C 11.3 km/h
2215 25-07-2019 16:30:00 40.4 C 11.97 g/m*3 40.4 C 17.7 km/h
2216 25-07-2019 16:35:00 40.3 C 11.91 g/m*3 40.3 C 17.7 km/h
2217 25-07-2019 16:40:00 40 C 11.74 g/m*3 40 C 12.9 km/h
2218 25-07-2019 16:45:00 39.9 C 11.68 g/m*3 39.9 C 16.1 km/h
2219 25-07-2019 16:50:00 39.9 C 12.69 g/m*3 39.9 C 8.1 km/h
2220 25-07-2019 16:55:00 39.7 C 11.56 g/m*3 39.7 C 12.9 km/h
2221 25-07-2019 17:00:00 39.8 C 12.12 g/m*3 39.8 C 9.7 km/h
2222 25-07-2019 17:05:00 39.9 C 12.19 g/m*3 39.9 C 11.3 km/h
2223 25-07-2019 17:10:00 40.3 C 11.91 g/m*3 40.3 C 11.3 km/h
2224 25-07-2019 17:15:00 40.3 C 11.4 g/m*3 40.3 C 12.9 km/h
2225 25-07-2019 17:20:00 40.1 C 11.28 g/m*3 40.1 C 14.5 km/h
Sensor: Nr:Datum:Temp:Abs-Feuchte:Windchill:Wind:
Aussen-T/F 2226 25-07-2019 17:25:00 39.9 C 11.17 g/m*3 39.9 C 17.7 km/h
2227 25-07-2019 17:30:00 39.6 C 11 g/m*3 39.6 C 20.9 km/h
2228 25-07-2019 17:35:00 39.5 C 10.95 g/m*3 39.5 C 20.9 km/h
2229 25-07-2019 17:40:00 39.5 C 10.95 g/m*3 39.5 C 9.7 km/h
2230 25-07-2019 17:45:00 39.5 C 10.95 g/m*3 39.5 C 14.5 km/h
2231 25-07-2019 17:50:00 39.6 C 11.5 g/m*3 39.6 C 9.7 km/h
2232 25-07-2019 17:55:00 39.7 C 11.56 g/m*3 39.7 C 6.4 km/h
2233 25-07-2019 18:00:00 39.6 C 11.5 g/m*3 39.6 C 9.7 km/h
2234 25-07-2019 18:05:00 39.4 C 11.39 g/m*3 39.4 C 8.1 km/h
2235 25-07-2019 18:10:00 39.4 C 10.89 g/m*3 39.4 C 9.7 km/h
2236 25-07-2019 18:15:00 39.4 C 11.39 g/m*3 39.4 C 8.1 km/h
2237 25-07-2019 18:20:00 39.3 C 10.84 g/m*3 39.3 C 17.7 km/h
2238 25-07-2019 18:25:00 39.3 C 11.33 g/m*3 39.3 C 9.7 km/h
2239 25-07-2019 18:30:00 39.2 C 11.27 g/m*3 39.2 C 9.7 km/h
2240 25-07-2019 18:35:00 39.1 C 11.22 g/m*3 39.1 C 8.1 km/h
2241 25-07-2019 18:40:00 38.8 C 11.05 g/m*3 38.8 C 12.9 km/h
2242 25-07-2019 18:45:00 38.6 C 11.41 g/m*3 38.6 C 8.1 km/h
2243 25-07-2019 18:50:00 38.6 C 11.41 g/m*3 38.6 C 11.3 km/h
2244 25-07-2019 18:55:00 38.4 C 13.65 g/m*3 38.4 C 8.1 km/h
2245 25-07-2019 19:00:00 38.3 C 11.71 g/m*3 38.3 C 8.1 km/h
2246 25-07-2019 19:05:00 38.2 C 14.45 g/m*3 38.2 C 1.6 km/h
2247 25-07-2019 19:10:00 38 C 12.92 g/m*3 38 C 9.7 km/h
2248 25-07-2019 19:15:00 37.8 C 15.07 g/m*3 37.8 C 1.6 km/h
2249 25-07-2019 19:20:00 37.4 C 14.32 g/m*3 37.4 C 0 km/h
2250 25-07-2019 19:25:00 37 C 14.46 g/m*3 37 C 0 km/h
Sensor: Nr:Datum:Temp:Abs-Feuchte:Windchill:Wind:
Aussen-T/F 2251 25-07-2019 19:30:00 36.6 C 14.17 g/m*3 36.6 C 0 km/h
2252 25-07-2019 19:35:00 36.2 C 14.72 g/m*3 36.2 C 1.6 km/h
2253 25-07-2019 19:40:00 35.7 C 14.76 g/m*3 35.7 C 0 km/h
2254 25-07-2019 19:45:00 35.3 C 15.66 g/m*3 35.3 C 0 km/h
2255 25-07-2019 19:50:00 34.9 C 14.94 g/m*3 34.9 C 0 km/h
2256 25-07-2019 19:55:00 34.6 C 14.71 g/m*3 34.6 C 0 km/h
2257 25-07-2019 20:00:00 34.3 C 15.63 g/m*3 34.3 C 0 km/h
2258 25-07-2019 20:05:00 33.9 C 15.3 g/m*3 33.9 C 0 km/h
2259 25-07-2019 20:10:00 33.7 C 14.77 g/m*3 33.7 C 0 km/h
2260 25-07-2019 20:15:00 33.4 C 14.54 g/m*3 33.4 C 0 km/h
2261 25-07-2019 20:20:00 33.2 C 15.11 g/m*3 33.2 C 0 km/h
2262 25-07-2019 20:25:00 32.9 C 14.52 g/m*3 32.9 C 0 km/h
2263 25-07-2019 20:30:00 32.7 C 14.72 g/m*3 32.7 C 0 km/h
2264 25-07-2019 20:35:00 32.4 C 14.48 g/m*3 32.4 C 0 km/h
2265 25-07-2019 20:40:00 32.2 C 14.67 g/m*3 32.2 C 0 km/h
2266 25-07-2019 20:45:00 31.9 C 14.44 g/m*3 31.9 C 0 km/h
2267 25-07-2019 20:50:00 31.7 C 14.62 g/m*3 31.7 C 0 km/h
2268 25-07-2019 20:55:00 31.5 C 14.13 g/m*3 31.5 C 0 km/h
2269 25-07-2019 21:00:00 31.3 C 14.31 g/m*3 31.3 C 0 km/h
2270 25-07-2019 21:05:00 31.1 C 14.16 g/m*3 31.1 C 1.6 km/h
2271 25-07-2019 21:10:00 30.9 C 14.32 g/m*3 30.9 C 1.6 km/h
2272 25-07-2019 21:15:00 30.7 C 13.86 g/m*3 30.7 C 1.6 km/h
2273 25-07-2019 21:20:00 30.5 C 13.71 g/m*3 30.5 C 1.6 km/h
2274 25-07-2019 21:25:00 30.3 C 13.87 g/m*3 30.3 C 1.6 km/h
2275 25-07-2019 21:30:00 30.2 C 13.79 g/m*3 30.2 C 1.6 km/h
Sensor: Nr:Datum:Temp:Abs-Feuchte:Windchill:Wind:
Aussen-T/F 2276 25-07-2019 21:35:00 30.1 C 13.72 g/m*3 30.1 C 1.6 km/h
2277 25-07-2019 21:40:00 29.9 C 13.57 g/m*3 29.9 C 1.6 km/h
2278 25-07-2019 21:45:00 29.8 C 13.5 g/m*3 29.8 C 1.6 km/h
2279 25-07-2019 21:50:00 29.7 C 13.43 g/m*3 29.7 C 1.6 km/h
2280 25-07-2019 21:55:00 29.6 C 13.35 g/m*3 29.6 C 1.6 km/h
2281 25-07-2019 22:00:00 29.4 C 13.21 g/m*3 29.4 C 1.6 km/h
2282 25-07-2019 22:05:00 29.3 C 13.43 g/m*3 29.3 C 1.6 km/h
2283 25-07-2019 22:10:00 29.2 C 13.36 g/m*3 29.2 C 1.6 km/h
2284 25-07-2019 22:15:00 29.1 C 13.57 g/m*3 29.1 C 0 km/h
2285 25-07-2019 22:20:00 28.9 C 13.14 g/m*3 28.9 C 1.6 km/h
2286 25-07-2019 22:25:00 28.8 C 13.64 g/m*3 28.8 C 0 km/h
2287 25-07-2019 22:30:00 28.7 C 13.56 g/m*3 28.7 C 1.6 km/h
2288 25-07-2019 22:35:00 28.5 C 13.42 g/m*3 28.5 C 1.6 km/h
2289 25-07-2019 22:40:00 28.4 C 13.34 g/m*3 28.4 C 0 km/h
2290 25-07-2019 22:45:00 28.3 C 13.27 g/m*3 28.3 C 1.6 km/h
2291 25-07-2019 22:50:00 28.3 C 13.55 g/m*3 28.3 C 1.6 km/h
2292 25-07-2019 22:55:00 28.2 C 13.2 g/m*3 28.2 C 0 km/h
2293 25-07-2019 23:00:00 28.1 C 13.4 g/m*3 28.1 C 1.6 km/h
2294 25-07-2019 23:05:00 28 C 13.05 g/m*3 28 C 1.6 km/h
2295 25-07-2019 23:10:00 27.9 C 13.25 g/m*3 27.9 C 1.6 km/h
2296 25-07-2019 23:15:00 27.8 C 12.91 g/m*3 27.8 C 1.6 km/h
2297 25-07-2019 23:20:00 27.8 C 13.18 g/m*3 27.8 C 1.6 km/h
2298 25-07-2019 23:25:00 27.7 C 13.37 g/m*3 27.7 C 0 km/h
2299 25-07-2019 23:30:00 27.6 C 13.04 g/m*3 27.6 C 0 km/h
2300 25-07-2019 23:35:00 27.4 C 13.16 g/m*3 27.4 C 0 km/h
Sensor: Nr:Datum:Temp:Abs-Feuchte:Windchill:Wind:
Aussen-T/F 2301 25-07-2019 23:40:00 27.3 C 13.08 g/m*3 27.3 C 1.6 km/h
2302 25-07-2019 23:45:00 27.2 C 13.01 g/m*3 27.2 C 0 km/h
2303 25-07-2019 23:50:00 27.1 C 13.2 g/m*3 27.1 C 0 km/h
2304 25-07-2019 23:55:00 26.9 C 13.56 g/m*3 26.9 C 1.6 km/h
2305 26-07-2019 00:00:00 26.8 C 13.49 g/m*3 26.8 C 0 km/h
2306 26-07-2019 00:05:00 26.7 C 13.42 g/m*3 26.7 C 0 km/h
2307 26-07-2019 00:10:00 26.5 C 13.02 g/m*3 26.5 C 0 km/h
2308 26-07-2019 00:15:00 26.4 C 13.19 g/m*3 26.4 C 0 km/h
2309 26-07-2019 00:20:00 26.3 C 13.12 g/m*3 26.3 C 0 km/h
2310 26-07-2019 00:25:00 26.2 C 13.29 g/m*3 26.2 C 0 km/h
2311 26-07-2019 00:30:00 26.1 C 13.22 g/m*3 26.1 C 0 km/h
2312 26-07-2019 00:35:00 26 C 12.9 g/m*3 26 C 0 km/h
2313 26-07-2019 00:40:00 25.9 C 13.07 g/m*3 25.9 C 0 km/h
2314 26-07-2019 00:45:00 25.9 C 13.07 g/m*3 25.9 C 0 km/h
2315 26-07-2019 00:50:00 25.8 C 13 g/m*3 25.8 C 0 km/h
2316 26-07-2019 00:55:00 25.7 C 12.93 g/m*3 25.7 C 0 km/h
2317 26-07-2019 01:00:00 25.6 C 12.86 g/m*3 25.6 C 0 km/h
2318 26-07-2019 01:05:00 25.5 C 13.02 g/m*3 25.5 C 0 km/h
2319 26-07-2019 01:10:00 25.4 C 12.71 g/m*3 25.4 C 0 km/h
2320 26-07-2019 01:15:00 25.3 C 13.11 g/m*3 25.3 C 0 km/h
2321 26-07-2019 01:20:00 25.2 C 13.04 g/m*3 25.2 C 0 km/h
2322 26-07-2019 01:25:00 25.2 C 13.27 g/m*3 25.2 C 0 km/h
2323 26-07-2019 01:30:00 25.1 C 12.96 g/m*3 25.1 C 0 km/h
2324 26-07-2019 01:35:00 24.9 C 13.28 g/m*3 24.9 C 0 km/h
2325 26-07-2019 01:40:00 24.8 C 13.43 g/m*3 24.8 C 0 km/h
Sensor: Nr:Datum:Temp:Abs-Feuchte:Windchill:Wind:
Aussen-T/F 2326 26-07-2019 01:45:00 24.6 C 13.5 g/m*3 24.6 C 0 km/h
2327 26-07-2019 01:50:00 24.3 C 13.28 g/m*3 24.3 C 0 km/h
2328 26-07-2019 01:55:00 24.1 C 13.13 g/m*3 24.1 C 0 km/h
2329 26-07-2019 02:00:00 23.8 C 13.34 g/m*3 23.8 C 0 km/h
2330 26-07-2019 02:05:00 23.6 C 13.61 g/m*3 23.6 C 0 km/h
2331 26-07-2019 02:10:00 23.3 C 13.59 g/m*3 23.3 C 0 km/h
2332 26-07-2019 02:15:00 23 C 13.57 g/m*3 23 C 0 km/h
2333 26-07-2019 02:20:00 22.8 C 13.61 g/m*3 22.8 C 0 km/h
2334 26-07-2019 02:25:00 22.6 C 13.66 g/m*3 22.6 C 0 km/h
2335 26-07-2019 02:30:00 22.3 C 13.62 g/m*3 22.3 C 0 km/h
2336 26-07-2019 02:35:00 22.2 C 13.55 g/m*3 22.2 C 0 km/h
2337 26-07-2019 02:40:00 21.9 C 13.31 g/m*3 21.9 C 0 km/h
2338 26-07-2019 02:45:00 21.7 C 12.97 g/m*3 21.7 C 0 km/h
2339 26-07-2019 02:50:00 21.6 C 13.09 g/m*3 21.6 C 0 km/h
2340 26-07-2019 02:55:00 21.4 C 12.75 g/m*3 21.4 C 0 km/h
2341 26-07-2019 03:00:00 21.3 C 13.05 g/m*3 21.3 C 0 km/h
2342 26-07-2019 03:05:00 21.2 C 13.16 g/m*3 21.2 C 0 km/h
2343 26-07-2019 03:10:00 21.2 C 13.16 g/m*3 21.2 C 0 km/h
2344 26-07-2019 03:15:00 21.1 C 12.9 g/m*3 21.1 C 0 km/h
2345 26-07-2019 03:20:00 21.1 C 13.08 g/m*3 21.1 C 0 km/h
2346 26-07-2019 03:25:00 21 C 13.01 g/m*3 21 C 0 km/h
2347 26-07-2019 03:30:00 21 C 13.19 g/m*3 21 C 0 km/h
2348 26-07-2019 03:35:00 20.9 C 13.11 g/m*3 20.9 C 0 km/h
2349 26-07-2019 03:40:00 20.8 C 13.04 g/m*3 20.8 C 0 km/h
2350 26-07-2019 03:45:00 20.8 C 13.04 g/m*3 20.8 C 0 km/h
Sensor: Nr:Datum:Temp:Abs-Feuchte:Windchill:Wind:
Aussen-T/F 2351 26-07-2019 03:50:00 20.8 C 13.4 g/m*3 20.8 C 0 km/h
2352 26-07-2019 03:55:00 20.7 C 13.32 g/m*3 20.7 C 0 km/h
2353 26-07-2019 04:00:00 20.7 C 13.32 g/m*3 20.7 C 0 km/h
2354 26-07-2019 04:05:00 20.6 C 13.42 g/m*3 20.6 C 0 km/h
2355 26-07-2019 04:10:00 20.4 C 13.27 g/m*3 20.4 C 0 km/h
2356 26-07-2019 04:15:00 20.3 C 13.19 g/m*3 20.3 C 0 km/h
2357 26-07-2019 04:20:00 20.3 C 13.37 g/m*3 20.3 C 0 km/h
2358 26-07-2019 04:25:00 20.2 C 13.46 g/m*3 20.2 C 0 km/h
2359 26-07-2019 04:30:00 20.1 C 13.39 g/m*3 20.1 C 0 km/h
2360 26-07-2019 04:35:00 19.9 C 13.23 g/m*3 19.9 C 0 km/h
2361 26-07-2019 04:40:00 19.9 C 13.4 g/m*3 19.9 C 0 km/h
2362 26-07-2019 04:45:00 19.8 C 13.32 g/m*3 19.8 C 0 km/h
2363 26-07-2019 04:50:00 19.7 C 13.25 g/m*3 19.7 C 0 km/h
2364 26-07-2019 04:55:00 19.6 C 13.34 g/m*3 19.6 C 0 km/h
2365 26-07-2019 05:00:00 19.6 C 13.34 g/m*3 19.6 C 0 km/h
2366 26-07-2019 05:05:00 19.5 C 13.09 g/m*3 19.5 C 0 km/h
2367 26-07-2019 05:10:00 19.4 C 13.01 g/m*3 19.4 C 0 km/h
2368 26-07-2019 05:15:00 19.3 C 12.94 g/m*3 19.3 C 0 km/h
2369 26-07-2019 05:20:00 19.3 C 13.1 g/m*3 19.3 C 0 km/h
2370 26-07-2019 05:25:00 19.3 C 12.94 g/m*3 19.3 C 0 km/h
2371 26-07-2019 05:30:00 19.3 C 13.27 g/m*3 19.3 C 0 km/h
2372 26-07-2019 05:35:00 19.3 C 13.27 g/m*3 19.3 C 0 km/h
2373 26-07-2019 05:40:00 19.2 C 13.19 g/m*3 19.2 C 0 km/h
2374 26-07-2019 05:45:00 19.2 C 13.19 g/m*3 19.2 C 0 km/h
2375 26-07-2019 05:50:00 19.1 C 12.95 g/m*3 19.1 C 0 km/h
Sensor: Nr:Datum:Temp:Abs-Feuchte:Windchill:Wind:
Aussen-T/F 2376 26-07-2019 05:55:00 19 C 12.87 g/m*3 19 C 0 km/h
2377 26-07-2019 06:00:00 18.9 C 12.96 g/m*3 18.9 C 0 km/h
2378 26-07-2019 06:05:00 19 C 12.87 g/m*3 19 C 0 km/h
2379 26-07-2019 06:10:00 19 C 12.87 g/m*3 19 C 0 km/h
2380 26-07-2019 06:15:00 18.9 C 12.96 g/m*3 18.9 C 0 km/h
2381 26-07-2019 06:20:00 18.9 C 12.96 g/m*3 18.9 C 0 km/h
2382 26-07-2019 06:25:00 18.9 C 12.96 g/m*3 18.9 C 0 km/h
2383 26-07-2019 06:30:00 18.9 C 12.96 g/m*3 18.9 C 0 km/h
2384 26-07-2019 06:35:00 18.9 C 13.12 g/m*3 18.9 C 0 km/h
2385 26-07-2019 06:40:00 18.9 C 13.12 g/m*3 18.9 C 0 km/h
2386 26-07-2019 06:45:00 19 C 13.2 g/m*3 19 C 0 km/h
2387 26-07-2019 06:50:00 19.1 C 13.28 g/m*3 19.1 C 0 km/h
2388 26-07-2019 06:55:00 19.1 C 13.44 g/m*3 19.1 C 0 km/h
2389 26-07-2019 07:00:00 19.2 C 13.69 g/m*3 19.2 C 0 km/h
2390 26-07-2019 07:05:00 19.3 C 13.77 g/m*3 19.3 C 0 km/h
2391 26-07-2019 07:10:00 19.3 C 13.77 g/m*3 19.3 C 0 km/h
2392 26-07-2019 07:15:00 19.4 C 13.85 g/m*3 19.4 C 0 km/h
2393 26-07-2019 07:20:00 19.4 C 13.68 g/m*3 19.4 C 0 km/h
2394 26-07-2019 07:25:00 19.5 C 13.93 g/m*3 19.5 C 0 km/h
2395 26-07-2019 07:30:00 19.6 C 14.01 g/m*3 19.6 C 0 km/h
2396 26-07-2019 07:35:00 19.7 C 14.09 g/m*3 19.7 C 0 km/h
2397 26-07-2019 07:40:00 19.8 C 14.18 g/m*3 19.8 C 0 km/h
2398 26-07-2019 07:45:00 19.9 C 14.09 g/m*3 19.9 C 0 km/h
2399 26-07-2019 07:50:00 20.1 C 14.08 g/m*3 20.1 C 0 km/h
2400 26-07-2019 07:55:00 20.2 C 14.16 g/m*3 20.2 C 0 km/h
Sensor: Nr:Datum:Temp:Abs-Feuchte:Windchill:Wind:
Aussen-T/F 2401 26-07-2019 08:00:00 20.4 C 14.33 g/m*3 20.4 C 0 km/h
2402 26-07-2019 08:05:00 20.5 C 14.59 g/m*3 20.5 C 0 km/h
2403 26-07-2019 08:10:00 20.6 C 14.5 g/m*3 20.6 C 0 km/h
2404 26-07-2019 08:15:00 20.7 C 14.76 g/m*3 20.7 C 0 km/h
2405 26-07-2019 08:20:00 20.8 C 14.67 g/m*3 20.8 C 0 km/h
2406 26-07-2019 08:25:00 20.9 C 14.57 g/m*3 20.9 C 0 km/h
2407 26-07-2019 08:30:00 21.1 C 14.56 g/m*3 21.1 C 0 km/h
2408 26-07-2019 08:35:00 21.3 C 14.73 g/m*3 21.3 C 0 km/h
2409 26-07-2019 08:40:00 21.5 C 14.71 g/m*3 21.5 C 0 km/h
2410 26-07-2019 08:45:00 21.7 C 15.07 g/m*3 21.7 C 0 km/h
2411 26-07-2019 08:50:00 21.9 C 15.44 g/m*3 21.9 C 0 km/h
2412 26-07-2019 08:55:00 21.9 C 15.05 g/m*3 21.9 C 0 km/h
2413 26-07-2019 09:00:00 22.1 C 14.84 g/m*3 22.1 C 0 km/h
2414 26-07-2019 09:05:00 22.3 C 15.01 g/m*3 22.3 C 0 km/h
2415 26-07-2019 09:10:00 22.4 C 14.7 g/m*3 22.4 C 0 km/h
2416 26-07-2019 09:15:00 22.7 C 14.75 g/m*3 22.7 C 0 km/h
2417 26-07-2019 09:20:00 22.9 C 15.12 g/m*3 22.9 C 0 km/h
2418 26-07-2019 09:25:00 23.1 C 14.47 g/m*3 23.1 C 0 km/h
2419 26-07-2019 09:30:00 23.4 C 14.72 g/m*3 23.4 C 1.6 km/h
2420 26-07-2019 09:35:00 23.7 C 14.33 g/m*3 23.7 C 0 km/h
2421 26-07-2019 09:40:00 24.2 C 14.74 g/m*3 24.2 C 1.6 km/h
2422 26-07-2019 09:45:00 24.6 C 14.85 g/m*3 24.6 C 0 km/h
2423 26-07-2019 09:50:00 25 C 13.35 g/m*3 25 C 4.8 km/h
2424 26-07-2019 09:55:00 25.7 C 14.36 g/m*3 25.7 C 4.8 km/h
2425 26-07-2019 10:00:00 25.9 C 14.53 g/m*3 25.9 C 1.6 km/h
Sensor: Nr:Datum:Temp:Abs-Feuchte:Windchill:Wind:
Aussen-T/F 2426 26-07-2019 10:05:00 26.3 C 14.36 g/m*3 26.3 C 8.1 km/h
2427 26-07-2019 10:10:00 26.4 C 14.19 g/m*3 26.4 C 1.6 km/h
2428 26-07-2019 10:15:00 26.8 C 14 g/m*3 26.8 C 6.4 km/h
2429 26-07-2019 10:20:00 27.2 C 14.05 g/m*3 27.2 C 4.8 km/h
2430 26-07-2019 10:25:00 27.6 C 12.77 g/m*3 27.6 C 6.4 km/h
2431 26-07-2019 10:30:00 28.4 C 12.79 g/m*3 28.4 C 9.7 km/h
2432 26-07-2019 10:35:00 29.1 C 13.28 g/m*3 29.1 C 9.7 km/h
2433 26-07-2019 10:40:00 29.6 C 13.06 g/m*3 29.6 C 9.7 km/h
2434 26-07-2019 10:45:00 30.1 C 13.11 g/m*3 30.1 C 9.7 km/h
2435 26-07-2019 10:50:00 30.5 C 13.08 g/m*3 30.5 C 6.4 km/h
2436 26-07-2019 10:55:00 30.8 C 12.98 g/m*3 30.8 C 6.4 km/h
2437 26-07-2019 11:00:00 31 C 12.48 g/m*3 31 C 6.4 km/h
2438 26-07-2019 11:05:00 31.2 C 12.62 g/m*3 31.2 C 4.8 km/h
2439 26-07-2019 11:10:00 31.4 C 13.41 g/m*3 31.4 C 3.2 km/h
2440 26-07-2019 11:15:00 31.5 C 13.15 g/m*3 31.5 C 3.2 km/h
2441 26-07-2019 11:20:00 31.7 C 12.96 g/m*3 31.7 C 6.4 km/h
2442 26-07-2019 11:25:00 31.9 C 13.43 g/m*3 31.9 C 6.4 km/h
2443 26-07-2019 11:30:00 32.1 C 12.9 g/m*3 32.1 C 1.6 km/h
2444 26-07-2019 11:35:00 32.3 C 13.72 g/m*3 32.3 C 3.2 km/h
2445 26-07-2019 11:40:00 32.6 C 13.59 g/m*3 32.6 C 4.8 km/h
2446 26-07-2019 11:45:00 32.8 C 13.03 g/m*3 32.8 C 3.2 km/h
2447 26-07-2019 11:50:00 32.9 C 13.1 g/m*3 32.9 C 6.4 km/h
2448 26-07-2019 11:55:00 33.2 C 13.31 g/m*3 33.2 C 3.2 km/h
2449 26-07-2019 12:00:00 33.4 C 13.09 g/m*3 33.4 C 4.8 km/h
2450 26-07-2019 12:05:00 33.6 C 12.86 g/m*3 33.6 C 6.4 km/h
Sensor: Nr:Datum:Temp:Abs-Feuchte:Windchill:Wind:
Aussen-T/F 2451 26-07-2019 12:10:00 33.7 C 13.67 g/m*3 33.7 C 6.4 km/h
2452 26-07-2019 12:15:00 33.8 C 13 g/m*3 33.8 C 9.7 km/h
2453 26-07-2019 12:20:00 34.1 C 13.2 g/m*3 34.1 C 8.1 km/h
2454 26-07-2019 12:25:00 34.2 C 13.65 g/m*3 34.2 C 6.4 km/h
2455 26-07-2019 12:30:00 34.3 C 12.96 g/m*3 34.3 C 6.4 km/h
2456 26-07-2019 12:35:00 34.5 C 13.1 g/m*3 34.5 C 9.7 km/h
2457 26-07-2019 12:40:00 34.8 C 13.3 g/m*3 34.8 C 12.9 km/h
2458 26-07-2019 12:45:00 35.1 C 13.11 g/m*3 35.1 C 12.9 km/h
2459 26-07-2019 12:50:00 35.3 C 13.25 g/m*3 35.3 C 11.3 km/h
2460 26-07-2019 12:55:00 35.4 C 12.92 g/m*3 35.4 C 11.3 km/h
2461 26-07-2019 13:00:00 35.5 C 12.98 g/m*3 35.5 C 12.9 km/h
2462 26-07-2019 13:05:00 35.6 C 12.64 g/m*3 35.6 C 12.9 km/h
2463 26-07-2019 13:10:00 35.7 C 12.71 g/m*3 35.7 C 9.7 km/h
2464 26-07-2019 13:15:00 35.7 C 13.12 g/m*3 35.7 C 8.1 km/h
2465 26-07-2019 13:20:00 35.8 C 13.19 g/m*3 35.8 C 6.4 km/h
2466 26-07-2019 13:25:00 35.8 C 12.77 g/m*3 35.8 C 8.1 km/h
2467 26-07-2019 13:30:00 35.9 C 12.43 g/m*3 35.9 C 9.7 km/h
2468 26-07-2019 13:35:00 36.1 C 12.97 g/m*3 36.1 C 8.1 km/h
2469 26-07-2019 13:40:00 36.2 C 13.04 g/m*3 36.2 C 11.3 km/h
2470 26-07-2019 13:45:00 36.4 C 13.18 g/m*3 36.4 C 9.7 km/h
2471 26-07-2019 13:50:00 36.6 C 12.88 g/m*3 36.6 C 9.7 km/h
2472 26-07-2019 13:55:00 36.8 C 12.58 g/m*3 36.8 C 8.1 km/h
2473 26-07-2019 14:00:00 36.9 C 12.65 g/m*3 36.9 C 9.7 km/h
2474 26-07-2019 14:05:00 36.9 C 12.21 g/m*3 36.9 C 9.7 km/h
2475 26-07-2019 14:10:00 36.8 C 12.15 g/m*3 36.8 C 8.1 km/h
Sensor: Nr:Datum:Temp:Abs-Feuchte:Windchill:Wind:
Aussen-T/F 2476 26-07-2019 14:15:00 36.9 C 12.21 g/m*3 36.9 C 4.8 km/h
2477 26-07-2019 14:20:00 37.1 C 12.78 g/m*3 37.1 C 6.4 km/h
2478 26-07-2019 14:25:00 37.4 C 12.08 g/m*3 37.4 C 11.3 km/h
2479 26-07-2019 14:30:00 37.6 C 11.75 g/m*3 37.6 C 8.1 km/h
2480 26-07-2019 14:35:00 37.8 C 11.87 g/m*3 37.8 C 6.4 km/h
2481 26-07-2019 14:40:00 37.8 C 11.87 g/m*3 37.8 C 6.4 km/h
2482 26-07-2019 14:45:00 37.7 C 10.9 g/m*3 37.7 C 6.4 km/h
2483 26-07-2019 14:50:00 37.7 C 11.81 g/m*3 37.7 C 3.2 km/h
2484 26-07-2019 14:55:00 37.7 C 10.9 g/m*3 37.7 C 4.8 km/h
2485 26-07-2019 15:00:00 38.1 C 11.59 g/m*3 38.1 C 6.4 km/h
2486 26-07-2019 15:05:00 38.3 C 11.71 g/m*3 38.3 C 11.3 km/h
2487 26-07-2019 15:10:00 38.6 C 11.41 g/m*3 38.6 C 9.7 km/h
2488 26-07-2019 15:15:00 38.7 C 11.95 g/m*3 38.7 C 8.1 km/h
2489 26-07-2019 15:20:00 38.3 C 12.65 g/m*3 38.3 C 27.4 km/h
2490 26-07-2019 15:25:00 37.3 C 13.35 g/m*3 37.3 C 19.3 km/h
2491 26-07-2019 15:30:00 36.8 C 13.02 g/m*3 36.8 C 9.7 km/h
2492 26-07-2019 15:35:00 36.3 C 13.11 g/m*3 36.3 C 14.5 km/h
2493 26-07-2019 15:40:00 35.9 C 12.84 g/m*3 35.9 C 16.1 km/h
2494 26-07-2019 15:45:00 35.6 C 13.05 g/m*3 35.6 C 12.9 km/h
2495 26-07-2019 15:50:00 35.7 C 12.3 g/m*3 35.7 C 14.5 km/h
2496 26-07-2019 15:55:00 35.6 C 12.23 g/m*3 35.6 C 12.9 km/h
2497 26-07-2019 16:00:00 35.4 C 12.51 g/m*3 35.4 C 11.3 km/h
2498 26-07-2019 16:05:00 35.3 C 12.85 g/m*3 35.3 C 8.1 km/h
2499 26-07-2019 16:10:00 35.4 C 12.92 g/m*3 35.4 C 6.4 km/h
2500 26-07-2019 16:15:00 35.4 C 12.51 g/m*3 35.4 C 6.4 km/h
Sensor: Nr:Datum:Temp:Abs-Feuchte:Windchill:Wind:
Aussen-T/F 2501 26-07-2019 16:20:00 35.5 C 12.98 g/m*3 35.5 C 3.2 km/h
2502 26-07-2019 16:25:00 35.6 C 15.09 g/m*3 35.6 C 0 km/h
2503 26-07-2019 16:30:00 35.6 C 15.91 g/m*3 35.6 C 1.6 km/h
2504 26-07-2019 16:35:00 35.6 C 16.31 g/m*3 35.6 C 0 km/h
2505 26-07-2019 16:40:00 35.3 C 12.85 g/m*3 35.3 C 11.3 km/h
2506 26-07-2019 16:45:00 34.9 C 13.37 g/m*3 34.9 C 8.1 km/h
2507 26-07-2019 16:50:00 34.8 C 13.69 g/m*3 34.8 C 3.2 km/h
2508 26-07-2019 16:55:00 34.6 C 12.78 g/m*3 34.6 C 9.7 km/h
2509 26-07-2019 17:00:00 34.2 C 13.27 g/m*3 34.2 C 12.9 km/h
2510 26-07-2019 17:05:00 34.1 C 15.84 g/m*3 34.1 C 0 km/h
2511 26-07-2019 17:10:00 33.5 C 14.25 g/m*3 33.5 C 8.1 km/h
2512 26-07-2019 17:15:00 32.9 C 14.16 g/m*3 32.9 C 8.1 km/h
2513 26-07-2019 17:20:00 32.6 C 14.64 g/m*3 32.6 C 3.2 km/h
2514 26-07-2019 17:25:00 32.4 C 15.17 g/m*3 32.4 C 0 km/h
2515 26-07-2019 17:30:00 32.2 C 15.35 g/m*3 32.2 C 6.4 km/h
2516 26-07-2019 17:35:00 31.9 C 15.45 g/m*3 31.9 C 4.8 km/h
2517 26-07-2019 17:40:00 31.8 C 14.36 g/m*3 31.8 C 9.7 km/h
2518 26-07-2019 17:45:00 31.7 C 14.62 g/m*3 31.7 C 4.8 km/h
2519 26-07-2019 17:50:00 31.4 C 14.71 g/m*3 31.4 C 8.1 km/h
2520 26-07-2019 17:55:00 31.3 C 14.31 g/m*3 31.3 C 6.4 km/h
2521 26-07-2019 18:00:00 31.2 C 14.56 g/m*3 31.2 C 3.2 km/h
2522 26-07-2019 18:05:00 31.1 C 14.48 g/m*3 31.1 C 6.4 km/h
2523 26-07-2019 18:10:00 30.9 C 14.01 g/m*3 30.9 C 6.4 km/h
2524 26-07-2019 18:15:00 30.9 C 14.01 g/m*3 30.9 C 9.7 km/h
2525 26-07-2019 18:20:00 30.8 C 13.93 g/m*3 30.8 C 14.5 km/h
Sensor: Nr:Datum:Temp:Abs-Feuchte:Windchill:Wind:
Aussen-T/F 2526 26-07-2019 18:25:00 30.7 C 14.17 g/m*3 30.7 C 16.1 km/h
2527 26-07-2019 18:30:00 30.6 C 14.09 g/m*3 30.6 C 11.3 km/h
2528 26-07-2019 18:35:00 30.3 C 14.18 g/m*3 30.3 C 6.4 km/h
2529 26-07-2019 18:40:00 30.1 C 14.02 g/m*3 30.1 C 12.9 km/h
2530 26-07-2019 18:45:00 29.7 C 13.72 g/m*3 29.7 C 11.3 km/h
2531 26-07-2019 18:50:00 29.6 C 14.24 g/m*3 29.6 C 6.4 km/h
2532 26-07-2019 18:55:00 29.4 C 14.09 g/m*3 29.4 C 9.7 km/h
2533 26-07-2019 19:00:00 29.3 C 14.31 g/m*3 29.3 C 4.8 km/h
2534 26-07-2019 19:05:00 29.3 C 14.6 g/m*3 29.3 C 0 km/h
2535 26-07-2019 19:10:00 29.2 C 14.52 g/m*3 29.2 C 0 km/h
2536 26-07-2019 19:15:00 29.1 C 14.44 g/m*3 29.1 C 0 km/h
2537 26-07-2019 19:20:00 29.1 C 15.02 g/m*3 29.1 C 0 km/h
2538 26-07-2019 19:25:00 28.9 C 14.57 g/m*3 28.9 C 0 km/h
2539 26-07-2019 19:30:00 28.8 C 15.06 g/m*3 28.8 C 0 km/h
2540 26-07-2019 19:35:00 28.7 C 14.98 g/m*3 28.7 C 0 km/h
2541 26-07-2019 19:40:00 28.6 C 15.18 g/m*3 28.6 C 0 km/h
2542 26-07-2019 19:45:00 28.4 C 15.01 g/m*3 28.4 C 0 km/h
2543 26-07-2019 19:50:00 28.3 C 14.93 g/m*3 28.3 C 0 km/h
2544 26-07-2019 19:55:00 28.2 C 15.4 g/m*3 28.2 C 0 km/h
2545 26-07-2019 20:00:00 28.1 C 15.31 g/m*3 28.1 C 0 km/h
2546 26-07-2019 20:05:00 28 C 15.23 g/m*3 28 C 0 km/h
2547 26-07-2019 20:10:00 27.9 C 15.42 g/m*3 27.9 C 0 km/h
2548 26-07-2019 20:15:00 27.8 C 15.33 g/m*3 27.8 C 0 km/h
2549 26-07-2019 20:20:00 27.7 C 15.51 g/m*3 27.7 C 0 km/h
2550 26-07-2019 20:25:00 27.6 C 15.16 g/m*3 27.6 C 0 km/h
Sensor: Nr:Datum:Temp:Abs-Feuchte:Windchill:Wind:
Aussen-T/F 2551 26-07-2019 20:30:00 27.5 C 15.61 g/m*3 27.5 C 0 km/h
2552 26-07-2019 20:35:00 27.4 C 15 g/m*3 27.4 C 0 km/h
2553 26-07-2019 20:40:00 27.2 C 15.35 g/m*3 27.2 C 0 km/h
2554 26-07-2019 20:45:00 27.1 C 15.27 g/m*3 27.1 C 0 km/h
2555 26-07-2019 20:50:00 27.1 C 15.27 g/m*3 27.1 C 0 km/h
2556 26-07-2019 20:55:00 26.9 C 15.1 g/m*3 26.9 C 0 km/h
2557 26-07-2019 21:00:00 26.8 C 15.02 g/m*3 26.8 C 0 km/h
2558 26-07-2019 21:05:00 26.7 C 14.93 g/m*3 26.7 C 0 km/h
2559 26-07-2019 21:10:00 26.7 C 14.93 g/m*3 26.7 C 0 km/h
2560 26-07-2019 21:15:00 26.6 C 15.1 g/m*3 26.6 C 0 km/h
2561 26-07-2019 21:20:00 26.4 C 14.69 g/m*3 26.4 C 0 km/h
2562 26-07-2019 21:25:00 26.3 C 14.61 g/m*3 26.3 C 0 km/h
2563 26-07-2019 21:30:00 26.2 C 14.52 g/m*3 26.2 C 0 km/h
2564 26-07-2019 21:35:00 26.2 C 14.52 g/m*3 26.2 C 1.6 km/h
2565 26-07-2019 21:40:00 26.1 C 14.44 g/m*3 26.1 C 1.6 km/h
2566 26-07-2019 21:45:00 26.1 C 14.69 g/m*3 26.1 C 0 km/h
2567 26-07-2019 21:50:00 26 C 14.61 g/m*3 26 C 0 km/h
2568 26-07-2019 21:55:00 25.9 C 14.53 g/m*3 25.9 C 1.6 km/h
2569 26-07-2019 22:00:00 25.9 C 14.53 g/m*3 25.9 C 1.6 km/h
2570 26-07-2019 22:05:00 25.8 C 14.69 g/m*3 25.8 C 0 km/h
2571 26-07-2019 22:10:00 25.7 C 14.6 g/m*3 25.7 C 0 km/h
2572 26-07-2019 22:15:00 25.7 C 14.6 g/m*3 25.7 C 1.6 km/h
2573 26-07-2019 22:20:00 25.7 C 14.84 g/m*3 25.7 C 0 km/h
2574 26-07-2019 22:25:00 25.7 C 14.84 g/m*3 25.7 C 0 km/h
2575 26-07-2019 22:30:00 25.6 C 15 g/m*3 25.6 C 0 km/h
Sensor: Nr:Datum:Temp:Abs-Feuchte:Windchill:Wind:
Aussen-T/F 2576 26-07-2019 22:35:00 25.4 C 14.83 g/m*3 25.4 C 0 km/h
2577 26-07-2019 22:40:00 25.3 C 14.51 g/m*3 25.3 C 0 km/h
2578 26-07-2019 22:45:00 25.2 C 14.67 g/m*3 25.2 C 0 km/h
2579 26-07-2019 22:50:00 25.1 C 14.58 g/m*3 25.1 C 0 km/h
2580 26-07-2019 22:55:00 24.9 C 14.65 g/m*3 24.9 C 0 km/h
2581 26-07-2019 23:00:00 24.8 C 14.8 g/m*3 24.8 C 0 km/h
2582 26-07-2019 23:05:00 24.8 C 14.8 g/m*3 24.8 C 0 km/h
2583 26-07-2019 23:10:00 24.7 C 14.94 g/m*3 24.7 C 0 km/h
2584 26-07-2019 23:15:00 24.6 C 14.85 g/m*3 24.6 C 0 km/h
2585 26-07-2019 23:20:00 24.5 C 14.99 g/m*3 24.5 C 0 km/h
2586 26-07-2019 23:25:00 24.4 C 14.91 g/m*3 24.4 C 0 km/h
2587 26-07-2019 23:30:00 24.3 C 14.83 g/m*3 24.3 C 0 km/h
2588 26-07-2019 23:35:00 24.2 C 14.74 g/m*3 24.2 C 0 km/h
2589 26-07-2019 23:40:00 24.2 C 14.74 g/m*3 24.2 C 0 km/h
2590 26-07-2019 23:45:00 24.1 C 14.88 g/m*3 24.1 C 3.2 km/h
2591 26-07-2019 23:50:00 23.9 C 14.71 g/m*3 23.9 C 0 km/h
2592 26-07-2019 23:55:00 23.8 C 14.63 g/m*3 23.8 C 0 km/h
2593 27-07-2019 00:00:00 23.6 C 14.68 g/m*3 23.6 C 0 km/h
2594 27-07-2019 00:05:00 23.4 C 14.51 g/m*3 23.4 C 0 km/h
2595 27-07-2019 00:10:00 23.3 C 14.43 g/m*3 23.3 C 0 km/h
2596 27-07-2019 00:15:00 23.3 C 14.64 g/m*3 23.3 C 0 km/h
2597 27-07-2019 00:20:00 23.2 C 14.55 g/m*3 23.2 C 0 km/h
2598 27-07-2019 00:25:00 23.2 C 14.55 g/m*3 23.2 C 0 km/h
2599 27-07-2019 00:30:00 23.1 C 14.47 g/m*3 23.1 C 1.6 km/h
2600 27-07-2019 00:35:00 23.1 C 14.68 g/m*3 23.1 C 4.8 km/h
Sensor: Nr:Datum:Temp:Abs-Feuchte:Windchill:Wind:
Aussen-T/F 2601 27-07-2019 00:40:00 23 C 14.59 g/m*3 23 C 0 km/h
2602 27-07-2019 00:45:00 22.9 C 14.51 g/m*3 22.9 C 0 km/h
2603 27-07-2019 00:50:00 22.9 C 14.51 g/m*3 22.9 C 0 km/h
2604 27-07-2019 00:55:00 22.8 C 14.63 g/m*3 22.8 C 0 km/h
2605 27-07-2019 01:00:00 22.8 C 14.63 g/m*3 22.8 C 0 km/h
2606 27-07-2019 01:05:00 22.7 C 14.55 g/m*3 22.7 C 0 km/h
2607 27-07-2019 01:10:00 22.7 C 14.75 g/m*3 22.7 C 0 km/h
2608 27-07-2019 01:15:00 22.6 C 14.66 g/m*3 22.6 C 0 km/h
2609 27-07-2019 01:20:00 22.7 C 14.95 g/m*3 22.7 C 0 km/h
2610 27-07-2019 01:25:00 22.7 C 14.75 g/m*3 22.7 C 0 km/h
2611 27-07-2019 01:30:00 22.7 C 14.75 g/m*3 22.7 C 0 km/h
2612 27-07-2019 01:35:00 22.7 C 14.75 g/m*3 22.7 C 0 km/h
2613 27-07-2019 01:40:00 22.7 C 14.95 g/m*3 22.7 C 0 km/h
2614 27-07-2019 01:45:00 22.6 C 14.87 g/m*3 22.6 C 0 km/h
2615 27-07-2019 01:50:00 22.4 C 14.7 g/m*3 22.4 C 0 km/h
2616 27-07-2019 01:55:00 22.3 C 14.61 g/m*3 22.3 C 0 km/h
2617 27-07-2019 02:00:00 22.3 C 14.61 g/m*3 22.3 C 0 km/h
2618 27-07-2019 02:05:00 22.3 C 14.41 g/m*3 22.3 C 0 km/h
2619 27-07-2019 02:10:00 22.3 C 14.41 g/m*3 22.3 C 0 km/h
2620 27-07-2019 02:15:00 22.3 C 14.81 g/m*3 22.3 C 0 km/h
2621 27-07-2019 02:20:00 22.4 C 14.89 g/m*3 22.4 C 0 km/h
2622 27-07-2019 02:25:00 22.4 C 15.09 g/m*3 22.4 C 0 km/h
2623 27-07-2019 02:30:00 22.4 C 15.09 g/m*3 22.4 C 0 km/h
2624 27-07-2019 02:35:00 22.4 C 15.09 g/m*3 22.4 C 0 km/h
2625 27-07-2019 02:40:00 22.3 C 15.01 g/m*3 22.3 C 0 km/h
Sensor: Nr:Datum:Temp:Abs-Feuchte:Windchill:Wind:
Aussen-T/F 2626 27-07-2019 02:45:00 22.3 C 15.01 g/m*3 22.3 C 0 km/h
2627 27-07-2019 02:50:00 22.3 C 15.01 g/m*3 22.3 C 0 km/h
2628 27-07-2019 02:55:00 22.3 C 15.01 g/m*3 22.3 C 0 km/h
2629 27-07-2019 03:00:00 22.3 C 15.01 g/m*3 22.3 C 0 km/h
2630 27-07-2019 03:05:00 22.3 C 15.01 g/m*3 22.3 C 1.6 km/h
2631 27-07-2019 03:10:00 22.3 C 14.61 g/m*3 22.3 C 1.6 km/h
2632 27-07-2019 03:15:00 22.4 C 14.7 g/m*3 22.4 C 0 km/h
2633 27-07-2019 03:20:00 22.5 C 14.58 g/m*3 22.5 C 0 km/h
2634 27-07-2019 03:25:00 22.6 C 14.46 g/m*3 22.6 C 0 km/h
2635 27-07-2019 03:30:00 22.6 C 14.26 g/m*3 22.6 C 0 km/h
2636 27-07-2019 03:35:00 22.8 C 14.02 g/m*3 22.8 C 3.2 km/h
2637 27-07-2019 03:40:00 23.2 C 15.59 g/m*3 23.2 C 1.6 km/h
2638 27-07-2019 03:45:00 23.1 C 16.12 g/m*3 23.1 C 0 km/h
2639 27-07-2019 03:50:00 22.7 C 15.96 g/m*3 22.7 C 3.2 km/h
2640 27-07-2019 03:55:00 22.3 C 15.8 g/m*3 22.3 C 3.2 km/h
2641 27-07-2019 04:00:00 21.9 C 16.02 g/m*3 21.9 C 0 km/h
2642 27-07-2019 04:05:00 21.7 C 16.02 g/m*3 21.7 C 0 km/h
2643 27-07-2019 04:10:00 21.4 C 15.94 g/m*3 21.4 C 0 km/h
2644 27-07-2019 04:15:00 21.1 C 15.66 g/m*3 21.1 C 0 km/h
2645 27-07-2019 04:20:00 20.9 C 15.66 g/m*3 20.9 C 0 km/h
2646 27-07-2019 04:25:00 20.8 C 15.75 g/m*3 20.8 C 0 km/h
2647 27-07-2019 04:30:00 20.7 C 15.66 g/m*3 20.7 C 0 km/h
2648 27-07-2019 04:35:00 20.6 C 15.57 g/m*3 20.6 C 0 km/h
2649 27-07-2019 04:40:00 20.5 C 15.66 g/m*3 20.5 C 0 km/h
2650 27-07-2019 04:45:00 20.4 C 15.57 g/m*3 20.4 C 0 km/h
Sensor: Nr:Datum:Temp:Abs-Feuchte:Windchill:Wind:
Aussen-T/F 2651 27-07-2019 04:50:00 20.4 C 15.57 g/m*3 20.4 C 0 km/h
2652 27-07-2019 04:55:00 20.4 C 15.74 g/m*3 20.4 C 0 km/h
2653 27-07-2019 05:00:00 20.4 C 15.57 g/m*3 20.4 C 0 km/h
2654 27-07-2019 05:05:00 20.4 C 15.57 g/m*3 20.4 C 0 km/h
2655 27-07-2019 05:10:00 20.3 C 15.65 g/m*3 20.3 C 0 km/h
2656 27-07-2019 05:15:00 20.3 C 15.65 g/m*3 20.3 C 0 km/h
2657 27-07-2019 05:20:00 20.3 C 15.65 g/m*3 20.3 C 0 km/h
2658 27-07-2019 05:25:00 20.3 C 15.65 g/m*3 20.3 C 0 km/h
2659 27-07-2019 05:30:00 20.2 C 15.56 g/m*3 20.2 C 0 km/h
2660 27-07-2019 05:35:00 20.3 C 15.65 g/m*3 20.3 C 0 km/h
2661 27-07-2019 05:40:00 20.2 C 15.56 g/m*3 20.2 C 0 km/h
2662 27-07-2019 05:45:00 20.2 C 15.56 g/m*3 20.2 C 0 km/h
2663 27-07-2019 05:50:00 20.2 C 15.56 g/m*3 20.2 C 0 km/h
2664 27-07-2019 05:55:00 20.2 C 15.39 g/m*3 20.2 C 0 km/h
2665 27-07-2019 06:00:00 20.2 C 15.39 g/m*3 20.2 C 0 km/h
2666 27-07-2019 06:05:00 20.3 C 15.65 g/m*3 20.3 C 0 km/h
2667 27-07-2019 06:10:00 20.3 C 15.48 g/m*3 20.3 C 0 km/h
2668 27-07-2019 06:15:00 20.3 C 15.65 g/m*3 20.3 C 0 km/h
2669 27-07-2019 06:20:00 20.3 C 15.48 g/m*3 20.3 C 0 km/h
2670 27-07-2019 06:25:00 20.4 C 15.74 g/m*3 20.4 C 0 km/h
2671 27-07-2019 06:30:00 20.6 C 15.93 g/m*3 20.6 C 3.2 km/h
2672 27-07-2019 06:35:00 20.7 C 16.02 g/m*3 20.7 C 0 km/h
2673 27-07-2019 06:40:00 20.7 C 15.84 g/m*3 20.7 C 0 km/h
2674 27-07-2019 06:45:00 20.8 C 15.93 g/m*3 20.8 C 0 km/h
2675 27-07-2019 06:50:00 20.8 C 16.12 g/m*3 20.8 C 0 km/h
Sensor: Nr:Datum:Temp:Abs-Feuchte:Windchill:Wind:
Aussen-T/F 2676 27-07-2019 06:55:00 20.9 C 16.21 g/m*3 20.9 C 0 km/h
2677 27-07-2019 07:00:00 20.9 C 16.21 g/m*3 20.9 C 0 km/h
2678 27-07-2019 07:05:00 21 C 16.3 g/m*3 21 C 0 km/h
2679 27-07-2019 07:10:00 20.9 C 16.03 g/m*3 20.9 C 0 km/h
2680 27-07-2019 07:15:00 21 C 16.3 g/m*3 21 C 0 km/h
2681 27-07-2019 07:20:00 21.1 C 16.21 g/m*3 21.1 C 0 km/h
2682 27-07-2019 07:25:00 21.2 C 16.31 g/m*3 21.2 C 0 km/h
2683 27-07-2019 07:30:00 21.3 C 16.59 g/m*3 21.3 C 0 km/h
2684 27-07-2019 07:35:00 21.4 C 16.69 g/m*3 21.4 C 0 km/h
2685 27-07-2019 07:40:00 21.4 C 16.5 g/m*3 21.4 C 0 km/h
2686 27-07-2019 07:45:00 21.5 C 16.59 g/m*3 21.5 C 0 km/h
2687 27-07-2019 07:50:00 21.6 C 16.5 g/m*3 21.6 C 0 km/h
2688 27-07-2019 07:55:00 21.7 C 16.41 g/m*3 21.7 C 0 km/h
2689 27-07-2019 08:00:00 21.8 C 16.5 g/m*3 21.8 C 0 km/h
2690 27-07-2019 08:05:00 21.9 C 16.6 g/m*3 21.9 C 0 km/h
2691 27-07-2019 08:10:00 22.1 C 16.79 g/m*3 22.1 C 1.6 km/h
2692 27-07-2019 08:15:00 22.1 C 16.4 g/m*3 22.1 C 0 km/h
2693 27-07-2019 08:20:00 22.2 C 16.3 g/m*3 22.2 C 1.6 km/h
2694 27-07-2019 08:25:00 22.3 C 16.19 g/m*3 22.3 C 0 km/h
2695 27-07-2019 08:30:00 22.5 C 16.18 g/m*3 22.5 C 3.2 km/h
2696 27-07-2019 08:35:00 22.8 C 16.26 g/m*3 22.8 C 1.6 km/h
2697 27-07-2019 08:40:00 23 C 16.03 g/m*3 23 C 4.8 km/h
2698 27-07-2019 08:45:00 23.2 C 16.22 g/m*3 23.2 C 1.6 km/h
2699 27-07-2019 08:50:00 23.4 C 16.19 g/m*3 23.4 C 3.2 km/h
2700 27-07-2019 08:55:00 23.6 C 16.16 g/m*3 23.6 C 1.6 km/h
Sensor: Nr:Datum:Temp:Abs-Feuchte:Windchill:Wind:
Aussen-T/F 2701 27-07-2019 09:00:00 23.8 C 16.35 g/m*3 23.8 C 1.6 km/h
2702 27-07-2019 09:05:00 24.1 C 16.63 g/m*3 24.1 C 4.8 km/h
2703 27-07-2019 09:10:00 24.3 C 16.82 g/m*3 24.3 C 3.2 km/h
2704 27-07-2019 09:15:00 24.4 C 16.47 g/m*3 24.4 C 1.6 km/h
2705 27-07-2019 09:20:00 24.6 C 16.43 g/m*3 24.6 C 0 km/h
2706 27-07-2019 09:25:00 24.8 C 16.62 g/m*3 24.8 C 1.6 km/h
2707 27-07-2019 09:30:00 24.9 C 16.71 g/m*3 24.9 C 4.8 km/h
2708 27-07-2019 09:35:00 25.1 C 16.9 g/m*3 25.1 C 3.2 km/h
2709 27-07-2019 09:40:00 25.1 C 16.67 g/m*3 25.1 C 6.4 km/h
2710 27-07-2019 09:45:00 25.2 C 16.76 g/m*3 25.2 C 6.4 km/h
2711 27-07-2019 09:50:00 25.2 C 16.76 g/m*3 25.2 C 4.8 km/h
2712 27-07-2019 09:55:00 25.2 C 16.76 g/m*3 25.2 C 4.8 km/h
2713 27-07-2019 10:00:00 25.2 C 16.76 g/m*3 25.2 C 6.4 km/h
2714 27-07-2019 10:05:00 25.3 C 16.62 g/m*3 25.3 C 8.1 km/h
2715 27-07-2019 10:10:00 25.3 C 16.62 g/m*3 25.3 C 9.7 km/h
2716 27-07-2019 10:15:00 25.3 C 18.73 g/m*3 25.3 C 6.4 km/h
2717 27-07-2019 10:20:00 25 C 18.88 g/m*3 25 C 0 km/h
2718 27-07-2019 10:25:00 24.7 C 19.01 g/m*3 24.7 C 0 km/h
2719 27-07-2019 10:30:00 24.4 C 18.92 g/m*3 24.4 C 0 km/h
2720 27-07-2019 10:35:00 24.2 C 18.92 g/m*3 24.2 C 0 km/h
2721 27-07-2019 10:40:00 24.1 C 19.04 g/m*3 24.1 C 0 km/h
2722 27-07-2019 10:45:00 24.1 C 19.25 g/m*3 24.1 C 0 km/h
2723 27-07-2019 10:50:00 24.1 C 19.04 g/m*3 24.1 C 0 km/h
2724 27-07-2019 10:55:00 24 C 18.93 g/m*3 24 C 0 km/h
2725 27-07-2019 11:00:00 24 C 19.15 g/m*3 24 C 0 km/h
Sensor: Nr:Datum:Temp:Abs-Feuchte:Windchill:Wind:
Aussen-T/F 2726 27-07-2019 11:05:00 24.1 C 19.25 g/m*3 24.1 C 0 km/h
2727 27-07-2019 11:10:00 24.1 C 19.25 g/m*3 24.1 C 0 km/h
2728 27-07-2019 11:15:00 24.1 C 19.25 g/m*3 24.1 C 0 km/h
2729 27-07-2019 11:20:00 24.2 C 19.36 g/m*3 24.2 C 0 km/h
2730 27-07-2019 11:25:00 24.2 C 19.36 g/m*3 24.2 C 0 km/h
2731 27-07-2019 11:30:00 24.2 C 19.14 g/m*3 24.2 C 0 km/h
2732 27-07-2019 11:35:00 24 C 18.49 g/m*3 24 C 0 km/h
2733 27-07-2019 11:40:00 23.9 C 18.39 g/m*3 23.9 C 1.6 km/h
2734 27-07-2019 11:45:00 23.7 C 18.18 g/m*3 23.7 C 0 km/h
2735 27-07-2019 11:50:00 23.5 C 17.76 g/m*3 23.5 C 3.2 km/h
2736 27-07-2019 11:55:00 23.3 C 17.77 g/m*3 23.3 C 1.6 km/h
2737 27-07-2019 12:00:00 23.2 C 17.67 g/m*3 23.2 C 1.6 km/h
2738 27-07-2019 12:05:00 23.2 C 18.09 g/m*3 23.2 C 0 km/h
2739 27-07-2019 12:10:00 23.2 C 18.29 g/m*3 23.2 C 0 km/h
2740 27-07-2019 12:15:00 23.2 C 18.29 g/m*3 23.2 C 0 km/h
2741 27-07-2019 12:20:00 23.2 C 17.88 g/m*3 23.2 C 3.2 km/h
2742 27-07-2019 12:25:00 23.3 C 17.77 g/m*3 23.3 C 3.2 km/h
2743 27-07-2019 12:30:00 23.5 C 17.76 g/m*3 23.5 C 1.6 km/h
2744 27-07-2019 12:35:00 23.8 C 17.42 g/m*3 23.8 C 1.6 km/h
2745 27-07-2019 12:40:00 24.1 C 17.5 g/m*3 24.1 C 1.6 km/h
2746 27-07-2019 12:45:00 24.4 C 18.25 g/m*3 24.4 C 4.8 km/h
2747 27-07-2019 12:50:00 24.8 C 17.75 g/m*3 24.8 C 3.2 km/h
2748 27-07-2019 12:55:00 25.1 C 18.06 g/m*3 25.1 C 3.2 km/h
2749 27-07-2019 13:00:00 25.3 C 17.56 g/m*3 25.3 C 4.8 km/h
2750 27-07-2019 13:05:00 25.5 C 17.99 g/m*3 25.5 C 6.4 km/h
Sensor: Nr:Datum:Temp:Abs-Feuchte:Windchill:Wind:
Aussen-T/F 2751 27-07-2019 13:10:00 25.7 C 17.72 g/m*3 25.7 C 1.6 km/h
2752 27-07-2019 13:15:00 26 C 18.26 g/m*3 26 C 4.8 km/h
2753 27-07-2019 13:20:00 26.2 C 18.22 g/m*3 26.2 C 8.1 km/h
2754 27-07-2019 13:25:00 26.2 C 18.22 g/m*3 26.2 C 12.9 km/h
2755 27-07-2019 13:30:00 26.1 C 18.36 g/m*3 26.1 C 8.1 km/h
2756 27-07-2019 13:35:00 26.2 C 18.46 g/m*3 26.2 C 4.8 km/h
2757 27-07-2019 13:40:00 26.2 C 18.22 g/m*3 26.2 C 3.2 km/h
2758 27-07-2019 13:45:00 26.2 C 17.73 g/m*3 26.2 C 4.8 km/h
2759 27-07-2019 13:50:00 26.2 C 17.23 g/m*3 26.2 C 6.4 km/h
2760 27-07-2019 13:55:00 26.2 C 17.73 g/m*3 26.2 C 4.8 km/h
2761 27-07-2019 14:00:00 26.2 C 16.99 g/m*3 26.2 C 8.1 km/h
2762 27-07-2019 14:05:00 26.1 C 17.14 g/m*3 26.1 C 3.2 km/h
2763 27-07-2019 14:10:00 25.9 C 16.95 g/m*3 25.9 C 6.4 km/h
2764 27-07-2019 14:15:00 25.9 C 16.46 g/m*3 25.9 C 4.8 km/h
2765 27-07-2019 14:20:00 25.8 C 16.85 g/m*3 25.8 C 1.6 km/h
2766 27-07-2019 14:25:00 25.7 C 16.52 g/m*3 25.7 C 3.2 km/h
2767 27-07-2019 14:30:00 25.6 C 16.9 g/m*3 25.6 C 4.8 km/h
2768 27-07-2019 14:35:00 25.5 C 16.81 g/m*3 25.5 C 4.8 km/h
2769 27-07-2019 14:40:00 25.5 C 17.28 g/m*3 25.5 C 4.8 km/h
2770 27-07-2019 14:45:00 25.5 C 17.28 g/m*3 25.5 C 3.2 km/h
2771 27-07-2019 14:50:00 25.5 C 17.76 g/m*3 25.5 C 4.8 km/h
2772 27-07-2019 14:55:00 25.5 C 17.52 g/m*3 25.5 C 6.4 km/h
2773 27-07-2019 15:00:00 25.3 C 17.32 g/m*3 25.3 C 8.1 km/h
2774 27-07-2019 15:05:00 25.1 C 17.13 g/m*3 25.1 C 11.3 km/h
2775 27-07-2019 15:10:00 24.8 C 16.84 g/m*3 24.8 C 8.1 km/h
Sensor: Nr:Datum:Temp:Abs-Feuchte:Windchill:Wind:
Aussen-T/F 2776 27-07-2019 15:15:00 24.7 C 16.98 g/m*3 24.7 C 3.2 km/h
2777 27-07-2019 15:20:00 24.7 C 16.98 g/m*3 24.7 C 4.8 km/h
2778 27-07-2019 15:25:00 24.8 C 17.07 g/m*3 24.8 C 3.2 km/h
2779 27-07-2019 15:30:00 24.8 C 16.84 g/m*3 24.8 C 6.4 km/h
2780 27-07-2019 15:35:00 25 C 17.03 g/m*3 25 C 9.7 km/h
2781 27-07-2019 15:40:00 25.1 C 17.13 g/m*3 25.1 C 8.1 km/h
2782 27-07-2019 15:45:00 25.2 C 16.99 g/m*3 25.2 C 8.1 km/h
2783 27-07-2019 15:50:00 25.4 C 17.19 g/m*3 25.4 C 8.1 km/h
2784 27-07-2019 15:55:00 25.6 C 17.62 g/m*3 25.6 C 8.1 km/h
2785 27-07-2019 16:00:00 25.8 C 17.33 g/m*3 25.8 C 11.3 km/h
2786 27-07-2019 16:05:00 26.1 C 17.14 g/m*3 26.1 C 12.9 km/h
2787 27-07-2019 16:10:00 26.2 C 16.74 g/m*3 26.2 C 9.7 km/h
2788 27-07-2019 16:15:00 26.2 C 16.49 g/m*3 26.2 C 12.9 km/h
2789 27-07-2019 16:20:00 26.2 C 16.74 g/m*3 26.2 C 12.9 km/h
2790 27-07-2019 16:25:00 26.3 C 16.83 g/m*3 26.3 C 9.7 km/h
2791 27-07-2019 16:30:00 26.3 C 16.59 g/m*3 26.3 C 11.3 km/h
2792 27-07-2019 16:35:00 26.2 C 16.49 g/m*3 26.2 C 9.7 km/h
2793 27-07-2019 16:40:00 25.9 C 16.46 g/m*3 25.9 C 8.1 km/h
2794 27-07-2019 16:45:00 25.7 C 16.04 g/m*3 25.7 C 12.9 km/h
2795 27-07-2019 16:50:00 25.5 C 16.34 g/m*3 25.5 C 12.9 km/h
2796 27-07-2019 16:55:00 25.2 C 16.53 g/m*3 25.2 C 14.5 km/h
2797 27-07-2019 17:00:00 24.9 C 16.71 g/m*3 24.9 C 12.9 km/h
2798 27-07-2019 17:05:00 24.6 C 16.66 g/m*3 24.6 C 12.9 km/h
2799 27-07-2019 17:10:00 24.5 C 17.01 g/m*3 24.5 C 9.7 km/h
2800 27-07-2019 17:15:00 24.5 C 17.23 g/m*3 24.5 C 6.4 km/h
Sensor: Nr:Datum:Temp:Abs-Feuchte:Windchill:Wind:
Aussen-T/F 2801 27-07-2019 17:20:00 24.5 C 17.23 g/m*3 24.5 C 6.4 km/h
2802 27-07-2019 17:25:00 24.5 C 17.23 g/m*3 24.5 C 8.1 km/h
2803 27-07-2019 17:30:00 24.4 C 16.91 g/m*3 24.4 C 8.1 km/h
2804 27-07-2019 17:35:00 24.4 C 16.91 g/m*3 24.4 C 8.1 km/h
2805 27-07-2019 17:40:00 24.4 C 17.14 g/m*3 24.4 C 6.4 km/h
2806 27-07-2019 17:45:00 24.4 C 16.91 g/m*3 24.4 C 4.8 km/h
2807 27-07-2019 17:50:00 24.4 C 16.91 g/m*3 24.4 C 4.8 km/h
2808 27-07-2019 17:55:00 24.4 C 16.91 g/m*3 24.4 C 6.4 km/h
2809 27-07-2019 18:00:00 24.4 C 17.14 g/m*3 24.4 C 6.4 km/h
2810 27-07-2019 18:05:00 24.4 C 17.14 g/m*3 24.4 C 6.4 km/h
2811 27-07-2019 18:10:00 24.4 C 16.91 g/m*3 24.4 C 4.8 km/h
2812 27-07-2019 18:15:00 24.6 C 17.33 g/m*3 24.6 C 4.8 km/h
2813 27-07-2019 18:20:00 24.8 C 17.3 g/m*3 24.8 C 8.1 km/h
2814 27-07-2019 18:25:00 25.1 C 17.36 g/m*3 25.1 C 4.8 km/h
2815 27-07-2019 18:30:00 25.4 C 17.66 g/m*3 25.4 C 6.4 km/h
2816 27-07-2019 18:35:00 25.3 C 17.56 g/m*3 25.3 C 6.4 km/h
2817 27-07-2019 18:40:00 25.3 C 17.56 g/m*3 25.3 C 6.4 km/h
2818 27-07-2019 18:45:00 25.2 C 17.46 g/m*3 25.2 C 6.4 km/h
2819 27-07-2019 18:50:00 25.1 C 17.36 g/m*3 25.1 C 6.4 km/h
2820 27-07-2019 18:55:00 24.9 C 17.4 g/m*3 24.9 C 8.1 km/h
2821 27-07-2019 19:00:00 24.7 C 17.43 g/m*3 24.7 C 9.7 km/h
2822 27-07-2019 19:05:00 24.5 C 17.23 g/m*3 24.5 C 8.1 km/h
2823 27-07-2019 19:10:00 24.3 C 16.82 g/m*3 24.3 C 8.1 km/h
2824 27-07-2019 19:15:00 24.1 C 16.85 g/m*3 24.1 C 9.7 km/h
2825 27-07-2019 19:20:00 23.9 C 17.09 g/m*3 23.9 C 6.4 km/h
Sensor: Nr:Datum:Temp:Abs-Feuchte:Windchill:Wind:
Aussen-T/F 2826 27-07-2019 19:25:00 23.8 C 17.42 g/m*3 23.8 C 9.7 km/h
2827 27-07-2019 19:30:00 23.7 C 17.54 g/m*3 23.7 C 4.8 km/h
2828 27-07-2019 19:35:00 23.6 C 17.65 g/m*3 23.6 C 4.8 km/h
2829 27-07-2019 19:40:00 23.4 C 17.66 g/m*3 23.4 C 4.8 km/h
2830 27-07-2019 19:45:00 23.4 C 17.66 g/m*3 23.4 C 4.8 km/h
2831 27-07-2019 19:50:00 23.4 C 17.87 g/m*3 23.4 C 4.8 km/h
2832 27-07-2019 19:55:00 23.3 C 17.56 g/m*3 23.3 C 8.1 km/h
2833 27-07-2019 20:00:00 23.2 C 17.46 g/m*3 23.2 C 6.4 km/h
2834 27-07-2019 20:05:00 23.1 C 17.57 g/m*3 23.1 C 6.4 km/h
2835 27-07-2019 20:10:00 23.1 C 17.57 g/m*3 23.1 C 4.8 km/h
2836 27-07-2019 20:15:00 23 C 17.47 g/m*3 23 C 3.2 km/h
2837 27-07-2019 20:20:00 23 C 17.47 g/m*3 23 C 6.4 km/h
2838 27-07-2019 20:25:00 22.9 C 17.37 g/m*3 22.9 C 6.4 km/h
2839 27-07-2019 20:30:00 22.8 C 17.27 g/m*3 22.8 C 4.8 km/h
2840 27-07-2019 20:35:00 22.8 C 17.27 g/m*3 22.8 C 4.8 km/h
2841 27-07-2019 20:40:00 22.8 C 17.27 g/m*3 22.8 C 6.4 km/h
2842 27-07-2019 20:45:00 22.7 C 17.17 g/m*3 22.7 C 6.4 km/h
2843 27-07-2019 20:50:00 22.6 C 17.08 g/m*3 22.6 C 4.8 km/h
2844 27-07-2019 20:55:00 22.6 C 17.08 g/m*3 22.6 C 8.1 km/h
2845 27-07-2019 21:00:00 22.4 C 16.88 g/m*3 22.4 C 6.4 km/h
2846 27-07-2019 21:05:00 22.4 C 16.88 g/m*3 22.4 C 6.4 km/h
2847 27-07-2019 21:10:00 22.3 C 16.78 g/m*3 22.3 C 4.8 km/h
2848 27-07-2019 21:15:00 22.3 C 16.78 g/m*3 22.3 C 4.8 km/h
2849 27-07-2019 21:20:00 22.2 C 16.88 g/m*3 22.2 C 4.8 km/h
2850 27-07-2019 21:25:00 22.1 C 16.79 g/m*3 22.1 C 8.1 km/h
Sensor: Nr:Datum:Temp:Abs-Feuchte:Windchill:Wind:
Aussen-T/F 2851 27-07-2019 21:30:00 22.1 C 16.79 g/m*3 22.1 C 9.7 km/h
2852 27-07-2019 21:35:00 21.9 C 16.6 g/m*3 21.9 C 6.4 km/h
2853 27-07-2019 21:40:00 21.9 C 16.6 g/m*3 21.9 C 8.1 km/h
2854 27-07-2019 21:45:00 21.8 C 16.5 g/m*3 21.8 C 3.2 km/h
2855 27-07-2019 21:50:00 21.8 C 16.5 g/m*3 21.8 C 9.7 km/h
2856 27-07-2019 21:55:00 21.7 C 16.41 g/m*3 21.7 C 11.3 km/h
2857 27-07-2019 22:00:00 21.7 C 16.41 g/m*3 21.7 C 8.1 km/h
2858 27-07-2019 22:05:00 21.6 C 16.5 g/m*3 21.6 C 9.7 km/h
2859 27-07-2019 22:10:00 21.6 C 16.5 g/m*3 21.6 C 8.1 km/h
2860 27-07-2019 22:15:00 21.6 C 16.5 g/m*3 21.6 C 8.1 km/h
2861 27-07-2019 22:20:00 21.5 C 16.41 g/m*3 21.5 C 12.9 km/h
2862 27-07-2019 22:25:00 21.4 C 16.31 g/m*3 21.4 C 6.4 km/h
2863 27-07-2019 22:30:00 21.4 C 16.31 g/m*3 21.4 C 4.8 km/h
2864 27-07-2019 22:35:00 21.4 C 16.31 g/m*3 21.4 C 9.7 km/h
2865 27-07-2019 22:40:00 21.3 C 16.22 g/m*3 21.3 C 8.1 km/h
2866 27-07-2019 22:45:00 21.3 C 16.4 g/m*3 21.3 C 8.1 km/h
2867 27-07-2019 22:50:00 21.3 C 16.4 g/m*3 21.3 C 6.4 km/h
2868 27-07-2019 22:55:00 21.3 C 16.4 g/m*3 21.3 C 4.8 km/h
2869 27-07-2019 23:00:00 21.3 C 16.4 g/m*3 21.3 C 8.1 km/h
2870 27-07-2019 23:05:00 21.2 C 16.31 g/m*3 21.2 C 6.4 km/h
2871 27-07-2019 23:10:00 21.2 C 16.31 g/m*3 21.2 C 8.1 km/h
2872 27-07-2019 23:15:00 21.2 C 16.49 g/m*3 21.2 C 4.8 km/h
2873 27-07-2019 23:20:00 21.2 C 16.49 g/m*3 21.2 C 1.6 km/h
2874 27-07-2019 23:25:00 21.2 C 16.49 g/m*3 21.2 C 3.2 km/h
2875 27-07-2019 23:30:00 21.1 C 16.4 g/m*3 21.1 C 0 km/h
Sensor: Nr:Datum:Temp:Abs-Feuchte:Windchill:Wind:
Aussen-T/F 2876 27-07-2019 23:35:00 21.1 C 16.4 g/m*3 21.1 C 0 km/h
2877 27-07-2019 23:40:00 21.1 C 16.4 g/m*3 21.1 C 1.6 km/h
2878 27-07-2019 23:45:00 21.1 C 16.4 g/m*3 21.1 C 0 km/h
2879 27-07-2019 23:50:00 21 C 16.3 g/m*3 21 C 0 km/h
2880 27-07-2019 23:55:00 21 C 16.3 g/m*3 21 C 4.8 km/h
2881 28-07-2019 00:00:00 20.9 C 16.21 g/m*3 20.9 C 3.2 km/h
2882 28-07-2019 00:05:00 20.9 C 16.39 g/m*3 20.9 C 3.2 km/h
2883 28-07-2019 00:10:00 20.9 C 16.39 g/m*3 20.9 C 1.6 km/h
2884 28-07-2019 00:15:00 20.9 C 16.39 g/m*3 20.9 C 4.8 km/h
2885 28-07-2019 00:20:00 20.8 C 16.3 g/m*3 20.8 C 1.6 km/h
2886 28-07-2019 00:25:00 20.8 C 16.3 g/m*3 20.8 C 1.6 km/h
2887 28-07-2019 00:30:00 20.8 C 16.3 g/m*3 20.8 C 3.2 km/h
2888 28-07-2019 00:35:00 20.8 C 16.3 g/m*3 20.8 C 4.8 km/h
2889 28-07-2019 00:40:00 20.8 C 16.3 g/m*3 20.8 C 0 km/h
2890 28-07-2019 00:45:00 20.8 C 16.3 g/m*3 20.8 C 3.2 km/h
2891 28-07-2019 00:50:00 20.8 C 16.3 g/m*3 20.8 C 4.8 km/h
2892 28-07-2019 00:55:00 20.8 C 16.3 g/m*3 20.8 C 1.6 km/h
2893 28-07-2019 01:00:00 20.8 C 16.3 g/m*3 20.8 C 6.4 km/h
2894 28-07-2019 01:05:00 20.7 C 16.2 g/m*3 20.7 C 3.2 km/h
2895 28-07-2019 01:10:00 20.7 C 16.2 g/m*3 20.7 C 3.2 km/h
2896 28-07-2019 01:15:00 20.7 C 16.2 g/m*3 20.7 C 4.8 km/h
2897 28-07-2019 01:20:00 20.7 C 16.2 g/m*3 20.7 C 3.2 km/h
2898 28-07-2019 01:25:00 20.7 C 16.2 g/m*3 20.7 C 4.8 km/h
2899 28-07-2019 01:30:00 20.7 C 16.2 g/m*3 20.7 C 3.2 km/h
2900 28-07-2019 01:35:00 20.7 C 16.2 g/m*3 20.7 C 0 km/h
Sensor: Nr:Datum:Temp:Abs-Feuchte:Windchill:Wind:
Aussen-T/F 2901 28-07-2019 01:40:00 20.7 C 16.2 g/m*3 20.7 C 0 km/h
2902 28-07-2019 01:45:00 20.7 C 16.2 g/m*3 20.7 C 0 km/h
2903 28-07-2019 01:50:00 20.7 C 16.2 g/m*3 20.7 C 0 km/h
2904 28-07-2019 01:55:00 20.7 C 16.2 g/m*3 20.7 C 4.8 km/h
2905 28-07-2019 02:00:00 20.7 C 16.2 g/m*3 20.7 C 4.8 km/h
2906 28-07-2019 02:05:00 20.7 C 16.2 g/m*3 20.7 C 3.2 km/h
2907 28-07-2019 02:10:00 20.7 C 16.2 g/m*3 20.7 C 1.6 km/h
2908 28-07-2019 02:15:00 20.7 C 16.2 g/m*3 20.7 C 0 km/h
2909 28-07-2019 02:20:00 20.7 C 16.2 g/m*3 20.7 C 3.2 km/h
2910 28-07-2019 02:25:00 20.7 C 16.2 g/m*3 20.7 C 3.2 km/h
2911 28-07-2019 02:30:00 20.7 C 16.2 g/m*3 20.7 C 0 km/h
2912 28-07-2019 02:35:00 20.7 C 16.2 g/m*3 20.7 C 3.2 km/h
2913 28-07-2019 02:40:00 20.7 C 16.2 g/m*3 20.7 C 1.6 km/h
2914 28-07-2019 02:45:00 20.7 C 16.2 g/m*3 20.7 C 0 km/h
2915 28-07-2019 02:50:00 20.7 C 16.2 g/m*3 20.7 C 0 km/h
2916 28-07-2019 02:55:00 20.7 C 16.2 g/m*3 20.7 C 0 km/h
2917 28-07-2019 03:00:00 20.7 C 16.2 g/m*3 20.7 C 0 km/h
2918 28-07-2019 03:05:00 20.7 C 16.2 g/m*3 20.7 C 0 km/h
2919 28-07-2019 03:10:00 20.7 C 16.2 g/m*3 20.7 C 1.6 km/h
2920 28-07-2019 03:15:00 20.7 C 16.2 g/m*3 20.7 C 0 km/h
2921 28-07-2019 03:20:00 20.7 C 16.2 g/m*3 20.7 C 1.6 km/h
2922 28-07-2019 03:25:00 20.7 C 16.2 g/m*3 20.7 C 0 km/h
2923 28-07-2019 03:30:00 20.7 C 16.2 g/m*3 20.7 C 0 km/h
2924 28-07-2019 03:35:00 20.7 C 16.2 g/m*3 20.7 C 0 km/h
2925 28-07-2019 03:40:00 20.7 C 16.2 g/m*3 20.7 C 0 km/h
Sensor: Nr:Datum:Temp:Abs-Feuchte:Windchill:Wind:
Aussen-T/F 2926 28-07-2019 03:45:00 20.7 C 16.2 g/m*3 20.7 C 0 km/h
2927 28-07-2019 03:50:00 20.6 C 16.11 g/m*3 20.6 C 1.6 km/h
2928 28-07-2019 03:55:00 20.6 C 16.11 g/m*3 20.6 C 0 km/h
2929 28-07-2019 04:00:00 20.7 C 16.2 g/m*3 20.7 C 0 km/h
2930 28-07-2019 04:05:00 20.6 C 16.11 g/m*3 20.6 C 0 km/h
2931 28-07-2019 04:10:00 20.6 C 16.29 g/m*3 20.6 C 6.4 km/h
2932 28-07-2019 04:15:00 20.6 C 16.29 g/m*3 20.6 C 1.6 km/h
2933 28-07-2019 04:20:00 20.6 C 16.29 g/m*3 20.6 C 3.2 km/h
2934 28-07-2019 04:25:00 20.6 C 16.29 g/m*3 20.6 C 0 km/h
2935 28-07-2019 04:30:00 20.6 C 16.29 g/m*3 20.6 C 0 km/h
2936 28-07-2019 04:35:00 20.6 C 16.29 g/m*3 20.6 C 0 km/h
2937 28-07-2019 04:40:00 20.6 C 16.29 g/m*3 20.6 C 0 km/h
2938 28-07-2019 04:45:00 20.6 C 16.29 g/m*3 20.6 C 0 km/h
2939 28-07-2019 04:50:00 20.6 C 16.29 g/m*3 20.6 C 0 km/h
2940 28-07-2019 04:55:00 20.6 C 16.29 g/m*3 20.6 C 0 km/h
2941 28-07-2019 05:00:00 20.6 C 16.29 g/m*3 20.6 C 0 km/h
2942 28-07-2019 05:05:00 20.6 C 16.29 g/m*3 20.6 C 4.8 km/h
2943 28-07-2019 05:10:00 20.6 C 16.29 g/m*3 20.6 C 3.2 km/h
2944 28-07-2019 05:15:00 20.6 C 16.29 g/m*3 20.6 C 4.8 km/h
2945 28-07-2019 05:20:00 20.6 C 16.29 g/m*3 20.6 C 6.4 km/h
2946 28-07-2019 05:25:00 20.6 C 16.29 g/m*3 20.6 C 1.6 km/h
2947 28-07-2019 05:30:00 20.5 C 16.19 g/m*3 20.5 C 1.6 km/h
2948 28-07-2019 05:35:00 20.5 C 16.19 g/m*3 20.5 C 1.6 km/h
2949 28-07-2019 05:40:00 20.5 C 16.19 g/m*3 20.5 C 3.2 km/h
2950 28-07-2019 05:45:00 20.5 C 16.19 g/m*3 20.5 C 0 km/h
Sensor: Nr:Datum:Temp:Abs-Feuchte:Windchill:Wind:
Aussen-T/F 2951 28-07-2019 05:50:00 20.5 C 16.19 g/m*3 20.5 C 0 km/h
2952 28-07-2019 05:55:00 20.5 C 16.19 g/m*3 20.5 C 0 km/h
2953 28-07-2019 06:00:00 20.5 C 16.19 g/m*3 20.5 C 3.2 km/h
2954 28-07-2019 06:05:00 20.5 C 16.19 g/m*3 20.5 C 0 km/h
2955 28-07-2019 06:10:00 20.5 C 16.19 g/m*3 20.5 C 0 km/h
2956 28-07-2019 06:15:00 20.5 C 16.19 g/m*3 20.5 C 0 km/h
2957 28-07-2019 06:20:00 20.5 C 16.19 g/m*3 20.5 C 0 km/h
2958 28-07-2019 06:25:00 20.5 C 16.19 g/m*3 20.5 C 1.6 km/h
2959 28-07-2019 06:30:00 20.5 C 16.19 g/m*3 20.5 C 4.8 km/h
2960 28-07-2019 06:35:00 20.6 C 16.29 g/m*3 20.6 C 3.2 km/h
2961 28-07-2019 06:40:00 20.6 C 16.29 g/m*3 20.6 C 4.8 km/h
2962 28-07-2019 06:45:00 20.6 C 16.29 g/m*3 20.6 C 3.2 km/h
2963 28-07-2019 06:50:00 20.6 C 16.29 g/m*3 20.6 C 1.6 km/h
2964 28-07-2019 06:55:00 20.6 C 16.29 g/m*3 20.6 C 3.2 km/h
2965 28-07-2019 07:00:00 20.6 C 16.29 g/m*3 20.6 C 4.8 km/h
2966 28-07-2019 07:05:00 20.7 C 16.38 g/m*3 20.7 C 3.2 km/h
2967 28-07-2019 07:10:00 20.7 C 16.38 g/m*3 20.7 C 6.4 km/h
2968 28-07-2019 07:15:00 20.7 C 16.2 g/m*3 20.7 C 9.7 km/h
2969 28-07-2019 07:20:00 20.7 C 16.2 g/m*3 20.7 C 8.1 km/h
2970 28-07-2019 07:25:00 20.7 C 16.2 g/m*3 20.7 C 6.4 km/h
2971 28-07-2019 07:30:00 20.7 C 16.2 g/m*3 20.7 C 12.9 km/h
2972 28-07-2019 07:35:00 20.7 C 16.2 g/m*3 20.7 C 12.9 km/h
2973 28-07-2019 07:40:00 20.7 C 16.2 g/m*3 20.7 C 8.1 km/h
2974 28-07-2019 07:45:00 20.7 C 16.02 g/m*3 20.7 C 4.8 km/h
2975 28-07-2019 07:50:00 20.7 C 16.02 g/m*3 20.7 C 4.8 km/h
Sensor: Nr:Datum:Temp:Abs-Feuchte:Windchill:Wind:
Aussen-T/F 2976 28-07-2019 07:55:00 20.7 C 16.02 g/m*3 20.7 C 9.7 km/h
2977 28-07-2019 08:00:00 20.7 C 16.02 g/m*3 20.7 C 11.3 km/h
2978 28-07-2019 08:05:00 20.7 C 16.02 g/m*3 20.7 C 4.8 km/h
2979 28-07-2019 08:10:00 20.8 C 16.12 g/m*3 20.8 C 6.4 km/h
2980 28-07-2019 08:15:00 20.8 C 16.12 g/m*3 20.8 C 8.1 km/h
2981 28-07-2019 08:20:00 20.7 C 16.02 g/m*3 20.7 C 11.3 km/h
2982 28-07-2019 08:25:00 20.7 C 16.02 g/m*3 20.7 C 8.1 km/h
2983 28-07-2019 08:30:00 20.7 C 16.02 g/m*3 20.7 C 6.4 km/h
2984 28-07-2019 08:35:00 20.7 C 16.02 g/m*3 20.7 C 8.1 km/h
2985 28-07-2019 08:40:00 20.7 C 16.02 g/m*3 20.7 C 9.7 km/h
2986 28-07-2019 08:45:00 20.7 C 16.02 g/m*3 20.7 C 9.7 km/h
2987 28-07-2019 08:50:00 20.7 C 16.02 g/m*3 20.7 C 8.1 km/h
2988 28-07-2019 08:55:00 20.7 C 16.2 g/m*3 20.7 C 8.1 km/h
2989 28-07-2019 09:00:00 20.6 C 16.11 g/m*3 20.6 C 4.8 km/h
2990 28-07-2019 09:05:00 20.6 C 16.11 g/m*3 20.6 C 8.1 km/h
2991 28-07-2019 09:10:00 20.6 C 16.11 g/m*3 20.6 C 6.4 km/h
2992 28-07-2019 09:15:00 20.6 C 16.11 g/m*3 20.6 C 8.1 km/h
2993 28-07-2019 09:20:00 20.5 C 16.01 g/m*3 20.5 C 8.1 km/h
2994 28-07-2019 09:25:00 20.4 C 15.92 g/m*3 20.4 C 8.1 km/h
2995 28-07-2019 09:30:00 20.4 C 15.92 g/m*3 20.4 C 6.4 km/h
2996 28-07-2019 09:35:00 20.3 C 15.83 g/m*3 20.3 C 11.3 km/h
2997 28-07-2019 09:40:00 20.3 C 16 g/m*3 20.3 C 9.7 km/h
2998 28-07-2019 09:45:00 20.3 C 16 g/m*3 20.3 C 9.7 km/h
2999 28-07-2019 09:50:00 20.3 C 16 g/m*3 20.3 C 9.7 km/h
3000 28-07-2019 09:55:00 20.2 C 15.91 g/m*3 20.2 C 9.7 km/h
Sensor: Nr:Datum:Temp:Abs-Feuchte:Windchill:Wind:
Aussen-T/F 3001 28-07-2019 10:00:00 20.2 C 15.91 g/m*3 20.2 C 8.1 km/h
3002 28-07-2019 10:05:00 20.2 C 15.91 g/m*3 20.2 C 6.4 km/h
3003 28-07-2019 10:10:00 20.2 C 15.91 g/m*3 20.2 C 4.8 km/h
3004 28-07-2019 10:15:00 20.2 C 15.91 g/m*3 20.2 C 11.3 km/h
3005 28-07-2019 10:20:00 20.1 C 15.82 g/m*3 20.1 C 6.4 km/h
3006 28-07-2019 10:25:00 20.1 C 15.99 g/m*3 20.1 C 11.3 km/h
3007 28-07-2019 10:30:00 19.9 C 15.81 g/m*3 19.9 C 9.7 km/h
3008 28-07-2019 10:35:00 19.9 C 15.81 g/m*3 19.9 C 11.3 km/h
3009 28-07-2019 10:40:00 19.9 C 15.81 g/m*3 19.9 C 9.7 km/h
3010 28-07-2019 10:45:00 19.9 C 15.98 g/m*3 19.9 C 8.1 km/h
3011 28-07-2019 10:50:00 19.8 C 15.89 g/m*3 19.8 C 6.4 km/h
3012 28-07-2019 10:55:00 19.9 C 15.98 g/m*3 19.9 C 3.2 km/h
3013 28-07-2019 11:00:00 19.8 C 15.89 g/m*3 19.8 C 4.8 km/h
3014 28-07-2019 11:05:00 19.8 C 15.89 g/m*3 19.8 C 6.4 km/h
3015 28-07-2019 11:10:00 19.8 C 15.89 g/m*3 19.8 C 3.2 km/h
3016 28-07-2019 11:15:00 19.8 C 15.89 g/m*3 19.8 C 4.8 km/h
3017 28-07-2019 11:20:00 19.9 C 15.98 g/m*3 19.9 C 1.6 km/h
3018 28-07-2019 11:25:00 19.9 C 15.98 g/m*3 19.9 C 4.8 km/h
3019 28-07-2019 11:30:00 20.1 C 15.99 g/m*3 20.1 C 6.4 km/h
3020 28-07-2019 11:35:00 20.2 C 16.09 g/m*3 20.2 C 8.1 km/h
3021 28-07-2019 11:40:00 20.3 C 16 g/m*3 20.3 C 8.1 km/h
3022 28-07-2019 11:45:00 20.4 C 15.92 g/m*3 20.4 C 12.9 km/h
3023 28-07-2019 11:50:00 20.4 C 15.92 g/m*3 20.4 C 4.8 km/h
3024 28-07-2019 11:55:00 20.6 C 15.93 g/m*3 20.6 C 4.8 km/h
3025 28-07-2019 12:00:00 20.6 C 15.93 g/m*3 20.6 C 8.1 km/h
Sensor: Nr:Datum:Temp:Abs-Feuchte:Windchill:Wind:
Aussen-T/F 3026 28-07-2019 12:05:00 20.5 C 15.84 g/m*3 20.5 C 9.7 km/h
3027 28-07-2019 12:10:00 20.5 C 15.84 g/m*3 20.5 C 6.4 km/h
3028 28-07-2019 12:15:00 20.5 C 15.66 g/m*3 20.5 C 9.7 km/h
3029 28-07-2019 12:20:00 20.5 C 15.66 g/m*3 20.5 C 8.1 km/h
3030 28-07-2019 12:25:00 20.5 C 15.66 g/m*3 20.5 C 1.6 km/h
3031 28-07-2019 12:30:00 20.4 C 15.39 g/m*3 20.4 C 8.1 km/h
3032 28-07-2019 12:35:00 20.5 C 15.48 g/m*3 20.5 C 6.4 km/h
3033 28-07-2019 12:40:00 20.6 C 15.75 g/m*3 20.6 C 6.4 km/h
3034 28-07-2019 12:45:00 20.5 C 15.48 g/m*3 20.5 C 8.1 km/h
3035 28-07-2019 12:50:00 20.5 C 15.48 g/m*3 20.5 C 9.7 km/h
3036 28-07-2019 12:55:00 20.5 C 15.48 g/m*3 20.5 C 11.3 km/h
3037 28-07-2019 13:00:00 20.5 C 15.48 g/m*3 20.5 C 4.8 km/h
3038 28-07-2019 13:05:00 20.6 C 15.57 g/m*3 20.6 C 4.8 km/h
3039 28-07-2019 13:10:00 20.5 C 15.3 g/m*3 20.5 C 9.7 km/h
3040 28-07-2019 13:15:00 20.5 C 15.3 g/m*3 20.5 C 3.2 km/h
3041 28-07-2019 13:20:00 20.4 C 15.21 g/m*3 20.4 C 8.1 km/h
3042 28-07-2019 13:25:00 20.4 C 15.39 g/m*3 20.4 C 8.1 km/h
3043 28-07-2019 13:30:00 20.4 C 15.39 g/m*3 20.4 C 4.8 km/h
3044 28-07-2019 13:35:00 20.3 C 15.3 g/m*3 20.3 C 8.1 km/h
3045 28-07-2019 13:40:00 20.2 C 15.39 g/m*3 20.2 C 6.4 km/h
3046 28-07-2019 13:45:00 20.1 C 15.47 g/m*3 20.1 C 8.1 km/h
3047 28-07-2019 13:50:00 19.9 C 15.29 g/m*3 19.9 C 8.1 km/h
3048 28-07-2019 13:55:00 19.9 C 15.29 g/m*3 19.9 C 3.2 km/h
3049 28-07-2019 14:00:00 19.9 C 15.29 g/m*3 19.9 C 4.8 km/h
3050 28-07-2019 14:05:00 19.9 C 15.29 g/m*3 19.9 C 4.8 km/h
Sensor: Nr:Datum:Temp:Abs-Feuchte:Windchill:Wind:
Aussen-T/F 3051 28-07-2019 14:10:00 19.9 C 15.46 g/m*3 19.9 C 4.8 km/h
3052 28-07-2019 14:15:00 19.9 C 15.46 g/m*3 19.9 C 8.1 km/h
3053 28-07-2019 14:20:00 19.9 C 15.46 g/m*3 19.9 C 9.7 km/h
3054 28-07-2019 14:25:00 20 C 15.38 g/m*3 20 C 4.8 km/h
3055 28-07-2019 14:30:00 20.1 C 15.47 g/m*3 20.1 C 4.8 km/h
3056 28-07-2019 14:35:00 20.1 C 15.47 g/m*3 20.1 C 6.4 km/h
3057 28-07-2019 14:40:00 20.1 C 15.47 g/m*3 20.1 C 6.4 km/h
3058 28-07-2019 14:45:00 20.1 C 15.47 g/m*3 20.1 C 9.7 km/h
3059 28-07-2019 14:50:00 20 C 15.38 g/m*3 20 C 9.7 km/h
3060 28-07-2019 14:55:00 19.9 C 15.29 g/m*3 19.9 C 4.8 km/h
3061 28-07-2019 15:00:00 20 C 15.38 g/m*3 20 C 3.2 km/h
3062 28-07-2019 15:05:00 19.9 C 15.29 g/m*3 19.9 C 9.7 km/h
3063 28-07-2019 15:10:00 19.9 C 15.12 g/m*3 19.9 C 8.1 km/h
3064 28-07-2019 15:15:00 19.9 C 15.12 g/m*3 19.9 C 12.9 km/h
3065 28-07-2019 15:20:00 19.9 C 15.29 g/m*3 19.9 C 3.2 km/h
3066 28-07-2019 15:25:00 19.9 C 15.12 g/m*3 19.9 C 6.4 km/h
3067 28-07-2019 15:30:00 19.9 C 15.12 g/m*3 19.9 C 11.3 km/h
3068 28-07-2019 15:35:00 19.9 C 15.12 g/m*3 19.9 C 8.1 km/h
3069 28-07-2019 15:40:00 19.9 C 15.12 g/m*3 19.9 C 8.1 km/h
3070 28-07-2019 15:45:00 19.9 C 15.12 g/m*3 19.9 C 6.4 km/h
3071 28-07-2019 15:50:00 19.9 C 15.12 g/m*3 19.9 C 9.7 km/h
3072 28-07-2019 15:55:00 19.9 C 14.95 g/m*3 19.9 C 6.4 km/h
3073 28-07-2019 16:00:00 19.9 C 15.12 g/m*3 19.9 C 1.6 km/h
3074 28-07-2019 16:05:00 19.9 C 14.95 g/m*3 19.9 C 6.4 km/h
3075 28-07-2019 16:10:00 19.9 C 14.95 g/m*3 19.9 C 8.1 km/h
Sensor: Nr:Datum:Temp:Abs-Feuchte:Windchill:Wind:
Aussen-T/F 3076 28-07-2019 16:15:00 19.9 C 14.95 g/m*3 19.9 C 6.4 km/h
3077 28-07-2019 16:20:00 19.8 C 14.86 g/m*3 19.8 C 12.9 km/h
3078 28-07-2019 16:25:00 19.8 C 15.03 g/m*3 19.8 C 3.2 km/h
3079 28-07-2019 16:30:00 19.8 C 15.03 g/m*3 19.8 C 8.1 km/h
3080 28-07-2019 16:35:00 19.8 C 15.03 g/m*3 19.8 C 6.4 km/h
3081 28-07-2019 16:40:00 19.8 C 15.03 g/m*3 19.8 C 4.8 km/h
3082 28-07-2019 16:45:00 19.7 C 14.94 g/m*3 19.7 C 8.1 km/h
3083 28-07-2019 16:50:00 19.7 C 14.94 g/m*3 19.7 C 0 km/h
3084 28-07-2019 16:55:00 19.8 C 15.03 g/m*3 19.8 C 4.8 km/h
3085 28-07-2019 17:00:00 19.7 C 14.94 g/m*3 19.7 C 9.7 km/h
3086 28-07-2019 17:05:00 19.8 C 15.2 g/m*3 19.8 C 0 km/h
3087 28-07-2019 17:10:00 19.7 C 15.11 g/m*3 19.7 C 4.8 km/h
3088 28-07-2019 17:15:00 19.6 C 15.02 g/m*3 19.6 C 8.1 km/h
3089 28-07-2019 17:20:00 19.4 C 14.85 g/m*3 19.4 C 8.1 km/h
3090 28-07-2019 17:25:00 19.4 C 15.02 g/m*3 19.4 C 0 km/h
3091 28-07-2019 17:30:00 19.4 C 15.02 g/m*3 19.4 C 3.2 km/h
3092 28-07-2019 17:35:00 19.3 C 14.93 g/m*3 19.3 C 4.8 km/h
3093 28-07-2019 17:40:00 19.3 C 14.93 g/m*3 19.3 C 3.2 km/h
3094 28-07-2019 17:45:00 19.3 C 15.09 g/m*3 19.3 C 0 km/h
3095 28-07-2019 17:50:00 19.3 C 15.09 g/m*3 19.3 C 0 km/h
3096 28-07-2019 17:55:00 19.3 C 15.26 g/m*3 19.3 C 1.6 km/h
3097 28-07-2019 18:00:00 19.2 C 15.01 g/m*3 19.2 C 4.8 km/h
3098 28-07-2019 18:05:00 19.2 C 15.01 g/m*3 19.2 C 3.2 km/h
3099 28-07-2019 18:10:00 19.2 C 15.01 g/m*3 19.2 C 1.6 km/h
3100 28-07-2019 18:15:00 19.3 C 15.09 g/m*3 19.3 C 4.8 km/h
Sensor: Nr:Datum:Temp:Abs-Feuchte:Windchill:Wind:
Aussen-T/F 3101 28-07-2019 18:20:00 19.2 C 14.84 g/m*3 19.2 C 6.4 km/h
3102 28-07-2019 18:25:00 19.2 C 14.84 g/m*3 19.2 C 4.8 km/h
3103 28-07-2019 18:30:00 19.2 C 14.84 g/m*3 19.2 C 9.7 km/h
3104 28-07-2019 18:35:00 19.2 C 14.84 g/m*3 19.2 C 1.6 km/h
3105 28-07-2019 18:40:00 19.1 C 14.75 g/m*3 19.1 C 3.2 km/h
3106 28-07-2019 18:45:00 19.1 C 14.75 g/m*3 19.1 C 1.6 km/h
3107 28-07-2019 18:50:00 19.1 C 14.75 g/m*3 19.1 C 0 km/h
3108 28-07-2019 18:55:00 19.1 C 14.92 g/m*3 19.1 C 0 km/h
3109 28-07-2019 19:00:00 19.1 C 14.92 g/m*3 19.1 C 0 km/h
3110 28-07-2019 19:05:00 19.1 C 14.92 g/m*3 19.1 C 0 km/h
3111 28-07-2019 19:10:00 19 C 14.83 g/m*3 19 C 1.6 km/h
3112 28-07-2019 19:15:00 18.9 C 14.74 g/m*3 18.9 C 1.6 km/h
3113 28-07-2019 19:20:00 18.9 C 14.74 g/m*3 18.9 C 0 km/h
3114 28-07-2019 19:25:00 18.9 C 14.9 g/m*3 18.9 C 0 km/h
3115 28-07-2019 19:30:00 18.9 C 14.9 g/m*3 18.9 C 0 km/h
3116 28-07-2019 19:35:00 18.8 C 14.82 g/m*3 18.8 C 0 km/h
3117 28-07-2019 19:40:00 18.8 C 14.82 g/m*3 18.8 C 0 km/h
3118 28-07-2019 19:45:00 18.7 C 14.73 g/m*3 18.7 C 0 km/h
3119 28-07-2019 19:50:00 18.7 C 14.73 g/m*3 18.7 C 0 km/h
3120 28-07-2019 19:55:00 18.7 C 14.73 g/m*3 18.7 C 0 km/h
3121 28-07-2019 20:00:00 18.7 C 14.73 g/m*3 18.7 C 0 km/h
3122 28-07-2019 20:05:00 18.7 C 14.73 g/m*3 18.7 C 0 km/h
3123 28-07-2019 20:10:00 18.6 C 14.64 g/m*3 18.6 C 0 km/h
3124 28-07-2019 20:15:00 18.6 C 14.8 g/m*3 18.6 C 0 km/h
3125 28-07-2019 20:20:00 18.6 C 14.8 g/m*3 18.6 C 0 km/h
Sensor: Nr:Datum:Temp:Abs-Feuchte:Windchill:Wind:
Aussen-T/F 3126 28-07-2019 20:25:00 18.6 C 14.8 g/m*3 18.6 C 0 km/h
3127 28-07-2019 20:30:00 18.5 C 14.71 g/m*3 18.5 C 0 km/h
3128 28-07-2019 20:35:00 18.4 C 14.63 g/m*3 18.4 C 0 km/h
3129 28-07-2019 20:40:00 18.4 C 14.63 g/m*3 18.4 C 0 km/h
3130 28-07-2019 20:45:00 18.3 C 14.54 g/m*3 18.3 C 0 km/h
3131 28-07-2019 20:50:00 18.3 C 14.54 g/m*3 18.3 C 0 km/h
3132 28-07-2019 20:55:00 18.3 C 14.54 g/m*3 18.3 C 0 km/h
3133 28-07-2019 21:00:00 18.2 C 14.46 g/m*3 18.2 C 0 km/h
3134 28-07-2019 21:05:00 18.2 C 14.46 g/m*3 18.2 C 0 km/h
3135 28-07-2019 21:10:00 18.2 C 14.61 g/m*3 18.2 C 0 km/h
3136 28-07-2019 21:15:00 18.2 C 14.61 g/m*3 18.2 C 0 km/h
3137 28-07-2019 21:20:00 18.2 C 14.61 g/m*3 18.2 C 0 km/h
3138 28-07-2019 21:25:00 18.2 C 14.61 g/m*3 18.2 C 0 km/h
3139 28-07-2019 21:30:00 18.2 C 14.61 g/m*3 18.2 C 0 km/h
3140 28-07-2019 21:35:00 18.2 C 14.61 g/m*3 18.2 C 0 km/h
3141 28-07-2019 21:40:00 18.2 C 14.61 g/m*3 18.2 C 0 km/h
3142 28-07-2019 21:45:00 18.1 C 14.52 g/m*3 18.1 C 0 km/h
3143 28-07-2019 21:50:00 18.1 C 14.52 g/m*3 18.1 C 0 km/h
3144 28-07-2019 21:55:00 18.1 C 14.52 g/m*3 18.1 C 0 km/h
3145 28-07-2019 22:00:00 18.1 C 14.52 g/m*3 18.1 C 0 km/h
3146 28-07-2019 22:05:00 18.1 C 14.52 g/m*3 18.1 C 0 km/h
3147 28-07-2019 22:10:00 18 C 14.44 g/m*3 18 C 0 km/h
3148 28-07-2019 22:15:00 17.9 C 14.5 g/m*3 17.9 C 0 km/h
3149 28-07-2019 22:20:00 17.9 C 14.5 g/m*3 17.9 C 1.6 km/h
3150 28-07-2019 22:25:00 17.9 C 14.5 g/m*3 17.9 C 0 km/h
Sensor: Nr:Datum:Temp:Abs-Feuchte:Windchill:Wind:
Aussen-T/F 3151 28-07-2019 22:30:00 17.9 C 14.5 g/m*3 17.9 C 3.2 km/h
3152 28-07-2019 22:35:00 17.9 C 14.5 g/m*3 17.9 C 0 km/h
3153 28-07-2019 22:40:00 17.8 C 14.42 g/m*3 17.8 C 0 km/h
3154 28-07-2019 22:45:00 17.8 C 14.42 g/m*3 17.8 C 0 km/h
3155 28-07-2019 22:50:00 17.8 C 14.42 g/m*3 17.8 C 0 km/h
3156 28-07-2019 22:55:00 17.8 C 14.42 g/m*3 17.8 C 0 km/h
3157 28-07-2019 23:00:00 17.7 C 14.33 g/m*3 17.7 C 0 km/h
3158 28-07-2019 23:05:00 17.7 C 14.33 g/m*3 17.7 C 0 km/h
3159 28-07-2019 23:10:00 17.7 C 14.33 g/m*3 17.7 C 0 km/h
3160 28-07-2019 23:15:00 17.7 C 14.33 g/m*3 17.7 C 0 km/h
3161 28-07-2019 23:20:00 17.7 C 14.33 g/m*3 17.7 C 0 km/h
3162 28-07-2019 23:25:00 17.6 C 14.25 g/m*3 17.6 C 0 km/h
3163 28-07-2019 23:30:00 17.6 C 14.25 g/m*3 17.6 C 0 km/h
3164 28-07-2019 23:35:00 17.6 C 14.25 g/m*3 17.6 C 0 km/h
3165 28-07-2019 23:40:00 17.5 C 14.16 g/m*3 17.5 C 0 km/h
3166 28-07-2019 23:45:00 17.5 C 14.16 g/m*3 17.5 C 0 km/h
3167 28-07-2019 23:50:00 17.4 C 14.08 g/m*3 17.4 C 0 km/h
3168 28-07-2019 23:55:00 17.5 C 14.16 g/m*3 17.5 C 0 km/h
3169 29-07-2019 00:00:00 17.4 C 14.08 g/m*3 17.4 C 0 km/h
3170 29-07-2019 00:05:00 17.4 C 14.08 g/m*3 17.4 C 0 km/h
3171 29-07-2019 00:10:00 17.4 C 14.08 g/m*3 17.4 C 0 km/h
3172 29-07-2019 00:15:00 17.4 C 14.08 g/m*3 17.4 C 0 km/h
3173 29-07-2019 00:20:00 17.4 C 14.08 g/m*3 17.4 C 0 km/h
3174 29-07-2019 00:25:00 17.4 C 14.08 g/m*3 17.4 C 0 km/h
3175 29-07-2019 00:30:00 17.3 C 14 g/m*3 17.3 C 0 km/h
Sensor: Nr:Datum:Temp:Abs-Feuchte:Windchill:Wind:
Aussen-T/F 3176 29-07-2019 00:35:00 17.3 C 14 g/m*3 17.3 C 0 km/h
3177 29-07-2019 00:40:00 17.3 C 14 g/m*3 17.3 C 0 km/h
3178 29-07-2019 00:45:00 17.2 C 13.91 g/m*3 17.2 C 0 km/h
3179 29-07-2019 00:50:00 17.2 C 13.91 g/m*3 17.2 C 0 km/h
3180 29-07-2019 00:55:00 17.2 C 13.91 g/m*3 17.2 C 1.6 km/h
3181 29-07-2019 01:00:00 17.1 C 13.83 g/m*3 17.1 C 0 km/h
3182 29-07-2019 01:05:00 17.2 C 13.91 g/m*3 17.2 C 6.4 km/h
3183 29-07-2019 01:10:00 17.1 C 13.83 g/m*3 17.1 C 6.4 km/h
3184 29-07-2019 01:15:00 17.1 C 13.83 g/m*3 17.1 C 0 km/h
3185 29-07-2019 01:20:00 17.1 C 13.83 g/m*3 17.1 C 0 km/h
3186 29-07-2019 01:25:00 17.1 C 13.83 g/m*3 17.1 C 0 km/h
3187 29-07-2019 01:30:00 17.1 C 13.83 g/m*3 17.1 C 0 km/h
3188 29-07-2019 01:35:00 17.1 C 13.83 g/m*3 17.1 C 0 km/h
3189 29-07-2019 01:40:00 17.1 C 13.83 g/m*3 17.1 C 3.2 km/h
3190 29-07-2019 01:45:00 17.1 C 13.83 g/m*3 17.1 C 0 km/h
3191 29-07-2019 01:50:00 17.1 C 13.83 g/m*3 17.1 C 0 km/h
3192 29-07-2019 01:55:00 17.1 C 13.83 g/m*3 17.1 C 0 km/h
3193 29-07-2019 02:00:00 17.1 C 13.83 g/m*3 17.1 C 0 km/h
3194 29-07-2019 02:05:00 17 C 13.75 g/m*3 17 C 0 km/h
3195 29-07-2019 02:10:00 17 C 13.75 g/m*3 17 C 0 km/h
3196 29-07-2019 02:15:00 17 C 13.89 g/m*3 17 C 0 km/h
3197 29-07-2019 02:20:00 17 C 13.89 g/m*3 17 C 0 km/h
3198 29-07-2019 02:25:00 17 C 13.89 g/m*3 17 C 0 km/h
3199 29-07-2019 02:30:00 17 C 13.89 g/m*3 17 C 0 km/h
3200 29-07-2019 02:35:00 17 C 13.89 g/m*3 17 C 0 km/h
Sensor: Nr:Datum:Temp:Abs-Feuchte:Windchill:Wind:
Aussen-T/F 3201 29-07-2019 02:40:00 16.9 C 13.81 g/m*3 16.9 C 0 km/h
3202 29-07-2019 02:45:00 16.9 C 13.81 g/m*3 16.9 C 0 km/h
3203 29-07-2019 02:50:00 16.9 C 13.81 g/m*3 16.9 C 0 km/h
3204 29-07-2019 02:55:00 16.9 C 13.81 g/m*3 16.9 C 0 km/h
3205 29-07-2019 03:00:00 16.9 C 13.81 g/m*3 16.9 C 0 km/h
3206 29-07-2019 03:05:00 16.9 C 13.81 g/m*3 16.9 C 0 km/h
3207 29-07-2019 03:10:00 16.9 C 13.81 g/m*3 16.9 C 0 km/h
3208 29-07-2019 03:15:00 16.9 C 13.81 g/m*3 16.9 C 0 km/h
3209 29-07-2019 03:20:00 16.9 C 13.81 g/m*3 16.9 C